[[{"header":{"parameterUnit":"m.s-1","parameterCategory":1,"la1":31.0,"la2":29.5877,"lo1":-88.7671,"lo2":-86.6584,"dy":0.0162,"dx":0.0185,"nx":115,"ny":88,"refTime":"2023-07-13T12:00:00:Z","depth":0,"parameterNumber":2,"parameterNumberName":"U-component_of_WINDS"},"data":[0.0,0.0,0.0,0.0,0.0,0.0,0.0,0.0,0.0,0.0,0.0,0.0,0.0,0.0,0.0,0.0,0.0,0.0,0.0,0.0,0.0,0.0,0.0,0.0,0.0,0.0,0.0,0.0,0.0,0.0,0.0,0.0,0.0,0.0,0.0,0.0,0.0,0.0,0.0,0.0,0.0,0.0,0.0,0.0,0.0,0.0,0.0,0.0,0.0,0.0,0.0,0.0,0.0,0.0,0.0,0.0,0.0,0.0,0.0,0.0,0.0,0.0,0.0,0.0,0.0,0.0,0.0,0.0,0.0,0.0,0.0,0.0,0.0,0.0,0.0,0.0,0.0,0.0,0.0,0.0,0.0,0.0,0.0,0.0,0.0,0.0,0.0,0.0,0.0,0.0,0.0,0.0,0.0,0.0,0.0,0.0,0.0,0.0,0.0,0.0,0.0,0.0,0.0,0.0,0.0,0.0,0.0,0.0,0.0,0.0,0.0,0.0,0.0,0.0,0.0,0.0,0.0,0.0,0.0,0.0,0.0,0.0,0.0,0.0,0.0,0.0,0.0,0.0,0.0,0.0,0.0,0.0,0.0,0.0,0.0,0.0,0.0,0.0,0.0,0.0,0.0,0.0,0.0,0.0,0.0,0.0,0.0,0.0,0.0,0.0,0.0,0.0,0.0,0.0,0.0,0.0,0.0,0.0,0.0,0.0,0.0,0.0,0.0,0.0,0.0,0.0,0.0,0.0,0.0,0.0,0.0,0.0,0.0,0.0,0.0,0.0,0.0,0.0,0.0,0.0,0.0,0.0,0.0,0.0,0.0,0.0,0.0,0.0,0.0,0.0,0.0,0.0,0.0,0.0,0.0,0.0,0.0,0.0,0.0,0.0,0.0,0.0,0.0,0.0,0.0,0.0,0.0,0.0,0.0,0.0,0.0,0.0,0.0,0.0,0.0,0.0,0.0,0.0,0.0,0.0,0.0,0.0,0.0,0.0,0.0,0.0,0.0,0.0,0.0,0.0,0.0,0.0,0.0,0.0,0.0,0.0,0.0,0.0,0.0,0.0,0.0,0.0,0.0,0.0,0.0,0.0,0.0,0.0,0.0,0.0,0.0,0.0,0.0,0.0,0.0,0.0,0.0,0.0,0.0,0.0,0.0,0.0,0.0,0.0,0.0,0.0,0.0,0.0,0.0,0.0,0.0,0.0,0.0,0.0,0.0,0.0,0.0,0.0,0.0,0.0,0.0,0.0,0.0,0.0,0.0,0.0,0.0,0.0,0.0,0.0,0.0,0.0,0.0,0.0,0.0,0.0,0.0,0.0,0.0,0.0,0.0,0.0,0.0,0.0,0.0,0.0,0.0,0.0,0.0,0.0,0.0,0.0,0.0,0.0,0.0,0.0,0.0,0.0,0.0,0.0,0.0,0.0,0.0,0.0,0.0,0.0,0.0,0.0,0.0,0.0,0.0,0.0,0.0,0.0,0.0,0.0,0.0,0.0,0.0,0.0,0.0,0.0,0.0,0.0,0.0,0.0,0.0,0.0,0.0,0.0,0.0,0.0,0.0,0.0,0.0,0.0,0.0,0.0,0.0,0.0,0.0,0.0,0.0,0.0,0.0,0.0,0.0,0.0,0.0,0.0,0.0,0.0,0.0,0.0,0.0,0.0,0.0,0.0,0.0,0.0,0.0,0.0,0.0,0.0,0.0,0.0,0.0,0.0,0.0,0.0,0.0,0.0,0.0,0.0,0.0,0.0,0.0,0.0,0.0,0.0,0.0,0.0,0.0,0.0,0.0,0.0,0.0,0.0,0.0,0.0,0.0,0.0,0.0,0.0,0.0,0.0,0.0,0.0,0.0,0.0,0.0,0.0,0.0,0.0,0.0,0.0,0.0,0.0,0.0,0.0,0.0,0.0,0.0,0.0,0.0,0.0,0.0,0.0,0.0,0.0,0.0,0.0,0.0,0.0,0.0,0.0,0.0,0.0,0.0,0.0,0.0,0.0,0.0,0.0,0.0,0.0,0.0,0.0,0.0,0.0,0.0,0.0,0.0,0.0,0.0,0.0,0.0,0.0,0.0,0.0,0.0,0.0,0.0,0.0,0.0,0.0,0.0,0.0,0.0,0.0,0.0,0.0,0.0,0.0,0.0,0.0,0.0,0.0,0.0,0.0,0.0,0.0,0.0,0.0,0.0,0.0,0.0,0.0,0.0,0.0,0.0,0.0,0.0,0.0,0.0,0.0,0.0,0.0,0.0,0.0,0.0,0.0,0.0,0.0,0.0,0.0,0.0,0.0,0.0,0.0,0.0,0.0,0.0,0.0,0.0,0.0,0.0,0.0,0.0,0.0,0.0,0.0,0.0,0.0,0.0,0.0,0.0,0.0,0.0,0.0,0.0,0.0,0.0,0.0,0.0,0.0,0.0,0.0,0.0,0.0,0.0,0.0,0.0,0.0,0.0,0.0,0.0,0.0,0.0,0.0,0.0,0.0,0.0,0.0,0.0,0.0,0.0,0.0,0.0,0.0,0.0,0.0,0.0,0.0,0.0,0.0,0.0,0.0,0.0,0.0,0.0,0.0,0.0,0.0,0.0,0.0,0.0,0.0,0.0,0.0,0.0,0.0,0.0,0.0,0.0,0.0,0.0,0.0,0.0,0.0,0.0,0.0,0.0,0.0,0.0,0.0,0.0,0.0,0.0,0.0,0.0,0.0,0.0,0.0,0.0,0.0,0.0,0.0,0.0,0.0,0.0,0.0,0.0,0.0,0.0,0.0,0.0,0.0,0.0,0.0,0.0,0.0,0.0,0.0,0.0,0.0,0.0,0.0,0.0,0.0,0.0,0.0,0.0,0.0,0.0,0.0,0.0,0.0,0.0,0.0,0.0,0.0,0.0,0.0,0.0,0.0,0.0,0.0,0.0,0.0,0.0,0.0,0.0,0.0,0.0,0.0,0.0,0.0,0.0,0.0,0.0,0.0,0.0,0.0,0.0,0.0,0.0,0.0,0.0,0.0,0.0,0.0,0.0,0.0,0.0,0.0,0.0,0.0,0.0,0.0,0.0,0.0,0.0,0.0,0.0,0.0,0.0,0.0,0.0,0.0,0.0,0.0,0.0,0.0,0.0,0.0,0.0,0.0,0.0,0.0,0.0,0.0,0.0,0.0,0.0,0.0,0.0,0.0,0.0,0.0,0.0,0.0,0.0,0.0,0.0,0.0,0.0,0.0,0.0,0.0,0.0,0.0,0.0,0.0,0.0,0.0,0.0,0.0,0.0,0.0,0.0,0.0,0.0,0.0,0.0,0.0,0.0,0.0,0.0,0.0,0.0,0.0,0.0,0.0,0.0,0.0,0.0,0.0,0.0,0.0,0.0,0.0,0.0,0.0,0.0,0.0,0.0,0.0,0.0,0.0,0.0,0.0,0.0,0.0,0.0,0.0,0.0,0.0,0.0,0.0,0.0,0.0,0.0,0.0,0.0,0.0,0.0,0.0,0.0,0.0,0.0,0.0,0.0,0.0,0.0,0.0,0.0,0.0,0.0,0.0,0.0,0.0,0.0,0.0,0.0,0.0,0.0,0.0,0.0,0.0,0.0,0.0,0.0,0.0,0.0,0.0,0.0,0.0,0.0,0.0,0.0,0.0,0.0,0.0,0.0,0.0,0.0,0.0,0.0,0.0,0.0,0.0,0.0,0.0,0.0,0.0,0.0,0.0,0.0,0.0,0.0,0.0,0.0,0.0,0.0,0.0,0.0,0.0,0.0,0.0,0.0,0.0,0.0,0.0,0.0,0.0,0.0,0.0,0.0,0.0,0.0,0.0,0.0,0.0,0.0,0.0,0.0,0.0,0.0,0.0,0.0,0.0,0.0,0.0,0.0,0.0,0.0,0.0,0.0,0.0,0.0,0.0,0.0,0.0,0.0,0.0,0.0,0.0,0.0,0.0,0.0,0.0,0.0,0.0,0.0,0.0,0.0,0.0,0.0,0.0,0.0,0.0,0.0,0.0,0.0,0.0,0.0,0.0,0.0,0.0,0.0,0.0,0.0,0.0,0.0,0.0,0.0,0.0,0.0,0.0,0.0,0.0,0.0,0.0,0.0,0.0,0.0,0.0,0.0,0.0,0.0,0.0,0.0,0.0,0.0,0.0,0.0,0.0,0.0,0.0,0.0,0.0,0.0,0.0,0.0,0.0,0.0,0.0,0.0,0.0,0.0,0.0,0.0,0.0,0.0,0.0,0.0,0.0,0.0,0.0,0.0,0.0,0.0,0.0,0.0,0.0,-2.244,0.0,0.0,0.0,0.0,0.0,0.0,0.0,0.0,0.0,0.0,0.0,0.0,0.0,0.0,0.0,0.0,0.0,0.0,0.0,0.0,0.0,0.0,0.0,0.0,0.0,0.0,0.0,0.0,0.0,0.0,0.0,0.0,0.0,0.0,0.0,0.0,0.0,0.0,0.0,0.0,0.0,0.0,0.0,0.0,0.0,0.0,0.0,0.0,0.0,0.0,0.0,0.0,0.0,0.0,0.0,0.0,0.0,0.0,0.0,0.0,0.0,0.0,0.0,0.0,0.0,0.0,0.0,0.0,0.0,0.0,0.0,0.0,0.0,0.0,0.0,0.0,0.0,0.0,0.0,0.0,0.0,0.0,0.0,0.0,0.0,0.0,0.0,0.0,0.0,0.0,0.0,0.0,0.0,0.0,0.0,0.0,0.0,0.0,0.0,0.0,0.0,0.0,0.0,0.0,0.0,0.0,0.0,0.0,0.0,0.0,-2.1002,-2.3168,-2.0648,-2.0492,-2.3147,0.0,0.0,0.0,0.0,0.0,0.0,0.0,0.0,0.0,0.0,0.0,0.0,0.0,0.0,0.0,0.0,0.0,0.0,0.0,0.0,0.0,0.0,0.0,0.0,0.0,0.0,0.0,0.0,0.0,0.0,0.0,0.0,0.0,0.0,0.0,0.0,0.0,0.0,0.0,0.0,0.0,0.0,0.0,0.0,0.0,0.0,0.0,0.0,0.0,0.0,0.0,0.0,0.0,0.0,0.0,0.0,0.0,0.0,0.0,0.0,0.0,0.0,0.0,0.0,0.0,0.0,0.0,0.0,0.0,0.0,0.0,0.0,0.0,0.0,0.0,0.0,0.0,0.0,0.0,0.0,0.0,0.0,0.0,0.0,0.0,0.0,0.0,0.0,0.0,0.0,0.0,0.0,0.0,0.0,0.0,0.0,0.0,0.0,0.0,0.0,0.0,0.0,0.0,0.0,0.0,0.0,0.0,0.0,0.0,0.0,0.0,0.0,-2.108,-2.0807,-2.3596,0.0,0.0,0.0,0.0,0.0,0.0,0.0,0.0,0.0,0.0,0.0,0.0,0.0,0.0,0.0,0.0,0.0,0.0,0.0,0.0,0.0,0.0,0.0,0.0,0.0,0.0,0.0,0.0,0.0,0.0,0.0,0.0,0.0,0.0,0.0,0.0,0.0,0.0,0.0,0.0,0.0,0.0,0.0,0.0,0.0,0.0,0.0,0.0,0.0,0.0,0.0,0.0,0.0,0.0,0.0,0.0,0.0,0.0,0.0,0.0,0.0,0.0,0.0,0.0,0.0,0.0,0.0,0.0,0.0,0.0,0.0,0.0,0.0,0.0,0.0,0.0,0.0,0.0,0.0,0.0,0.0,0.0,0.0,0.0,0.0,0.0,0.0,0.0,0.0,0.0,0.0,0.0,0.0,0.0,0.0,0.0,0.0,0.0,0.0,0.0,0.0,0.0,0.0,0.0,0.0,0.0,0.0,0.0,0.0,0.0,-2.2532,-2.4695,-2.3786,0.0,-2.3686,0.0,0.0,0.0,0.0,0.0,0.0,0.0,0.0,0.0,0.0,0.0,0.0,0.0,0.0,0.0,0.0,0.0,0.0,0.0,0.0,0.0,0.0,0.0,0.0,0.0,0.0,0.0,0.0,0.0,0.0,0.0,0.0,0.0,0.0,0.0,0.0,0.0,0.0,0.0,0.0,0.0,0.0,0.0,0.0,0.0,0.0,0.0,0.0,0.0,0.0,0.0,0.0,0.0,0.0,0.0,0.0,0.0,0.0,0.0,0.0,0.0,0.0,0.0,0.0,0.0,0.0,0.0,0.0,0.0,0.0,0.0,0.0,0.0,0.0,0.0,0.0,0.0,0.0,0.0,0.0,0.0,0.0,0.0,0.0,0.0,0.0,0.0,0.0,0.0,0.0,0.0,0.0,0.0,0.0,0.0,0.0,0.0,0.0,0.0,0.0,0.0,0.0,0.0,0.0,0.0,0.0,0.0,0.0,0.0,0.0,-2.2671,-2.4163,-2.3951,-2.3506,0.0,0.0,0.0,0.0,0.0,0.0,0.0,0.0,0.0,0.0,0.0,0.0,0.0,0.0,0.0,0.0,0.0,0.0,0.0,0.0,0.0,0.0,0.0,0.0,0.0,0.0,0.0,0.0,0.0,0.0,0.0,0.0,0.0,0.0,0.0,0.0,0.0,0.0,0.0,0.0,0.0,0.0,0.0,0.0,0.0,0.0,0.0,0.0,0.0,0.0,0.0,0.0,0.0,0.0,0.0,0.0,0.0,0.0,0.0,0.0,0.0,0.0,0.0,0.0,0.0,0.0,0.0,0.0,0.0,0.0,0.0,0.0,0.0,0.0,0.0,0.0,0.0,0.0,0.0,0.0,0.0,0.0,0.0,0.0,0.0,0.0,0.0,0.0,0.0,0.0,0.0,0.0,0.0,0.0,0.0,0.0,0.0,0.0,0.0,0.0,0.0,0.0,0.0,0.0,0.0,0.0,0.0,0.0,0.0,0.0,-2.2242,-2.2833,-2.3916,-2.3535,-2.2995,-2.2366,0.0,0.0,0.0,0.0,0.0,0.0,0.0,0.0,0.0,0.0,0.0,0.0,0.0,0.0,0.0,0.0,0.0,0.0,0.0,0.0,0.0,0.0,0.0,0.0,0.0,0.0,0.0,0.0,0.0,0.0,0.0,0.0,0.0,0.0,0.0,0.0,0.0,0.0,0.0,0.0,0.0,0.0,0.0,0.0,0.0,0.0,0.0,0.0,0.0,0.0,0.0,0.0,0.0,0.0,0.0,0.0,0.0,0.0,0.0,0.0,0.0,0.0,0.0,0.0,0.0,0.0,0.0,0.0,0.0,0.0,0.0,0.0,0.0,0.0,0.0,0.0,0.0,0.0,0.0,0.0,0.0,0.0,0.0,0.0,0.0,0.0,0.0,0.0,0.0,0.0,0.0,0.0,0.0,0.0,0.0,0.0,0.0,0.0,0.0,0.0,0.0,0.0,0.0,0.0,0.0,0.0,0.0,0.0,-2.5108,-2.3425,-2.3144,-2.4622,-2.3004,-2.231,0.0,0.0,0.0,0.0,0.0,0.0,0.0,0.0,0.0,0.0,0.0,0.0,0.0,0.0,0.0,0.0,0.0,0.0,0.0,0.0,0.0,0.0,0.0,0.0,0.0,0.0,0.0,0.0,0.0,0.0,0.0,0.0,0.0,0.0,0.0,0.0,0.0,0.0,0.0,0.0,0.0,0.0,0.0,0.0,0.0,0.0,0.0,0.0,0.0,0.0,0.0,0.0,0.0,0.0,0.0,0.0,0.0,0.0,0.0,0.0,0.0,0.0,0.0,0.0,0.0,0.0,0.0,0.0,0.0,0.0,0.0,0.0,0.0,0.0,0.0,0.0,0.0,0.0,0.0,0.0,0.0,0.0,0.0,0.0,0.0,0.0,0.0,0.0,0.0,0.0,0.0,0.0,0.0,0.0,0.0,0.0,0.0,0.0,0.0,0.0,0.0,0.0,0.0,0.0,0.0,0.0,0.0,0.0,0.0,-2.3412,-2.333,-2.3575,-2.4142,-2.3275,-2.256,0.0,0.0,0.0,0.0,0.0,0.0,0.0,0.0,0.0,0.0,0.0,0.0,0.0,0.0,0.0,0.0,0.0,0.0,0.0,0.0,0.0,0.0,0.0,0.0,0.0,0.0,0.0,0.0,0.0,0.0,0.0,0.0,0.0,0.0,0.0,0.0,0.0,0.0,0.0,0.0,0.0,0.0,0.0,0.0,0.0,0.0,0.0,0.0,0.0,0.0,0.0,0.0,0.0,0.0,0.0,0.0,0.0,0.0,0.0,0.0,0.0,0.0,0.0,0.0,0.0,0.0,0.0,0.0,0.0,0.0,0.0,0.0,0.0,0.0,0.0,0.0,0.0,0.0,0.0,0.0,0.0,0.0,0.0,0.0,0.0,0.0,0.0,0.0,0.0,0.0,0.0,0.0,0.0,0.0,0.0,0.0,0.0,0.0,0.0,0.0,0.0,0.0,0.0,0.0,0.0,0.0,0.0,0.0,0.0,-2.2731,0.0,-2.353,-2.3571,-2.3053,-2.2369,0.0,0.0,0.0,0.0,0.0,0.0,0.0,0.0,0.0,0.0,0.0,0.0,0.0,0.0,0.0,0.0,0.0,0.0,0.0,0.0,0.0,0.0,0.0,0.0,0.0,0.0,0.0,0.0,0.0,0.0,0.0,0.0,0.0,0.0,0.0,0.0,0.0,0.0,0.0,0.0,0.0,0.0,0.0,0.0,0.0,0.0,0.0,0.0,0.0,0.0,0.0,0.0,0.0,0.0,0.0,0.0,0.0,0.0,0.0,0.0,0.0,0.0,0.0,0.0,0.0,0.0,0.0,0.0,0.0,0.0,0.0,0.0,0.0,0.0,0.0,0.0,0.0,0.0,0.0,0.0,0.0,0.0,0.0,0.0,0.0,0.0,0.0,0.0,0.0,0.0,0.0,0.0,0.0,0.0,0.0,0.0,0.0,0.0,0.0,0.0,0.0,0.0,0.0,0.0,0.0,0.0,0.0,0.0,-2.3381,-2.355,-2.312,-2.2949,-2.2995,-2.2323,-2.1642,0.0,0.0,0.0,0.0,0.0,0.0,0.0,0.0,0.0,0.0,0.0,0.0,0.0,0.0,0.0,0.0,0.0,0.0,0.0,0.0,0.0,0.0,0.0,0.0,0.0,0.0,0.0,0.0,0.0,0.0,0.0,0.0,0.0,0.0,0.0,0.0,0.0,0.0,0.0,0.0,0.0,0.0,0.0,0.0,0.0,0.0,0.0,0.0,0.0,0.0,0.0,0.0,0.0,0.0,0.0,0.0,0.0,0.0,0.0,0.0,0.0,0.0,0.0,0.0,0.0,0.0,0.0,0.0,0.0,0.0,0.0,0.0,0.0,0.0,0.0,0.0,0.0,0.0,0.0,0.0,0.0,0.0,0.0,0.0,0.0,0.0,0.0,0.0,0.0,0.0,0.0,0.0,0.0,0.0,0.0,0.0,0.0,0.0,0.0,0.0,0.0,0.0,0.0,0.0,0.0,0.0,0.0,0.0,0.0,-2.3113,-2.2678,-2.2814,-2.3532,-2.2267,-2.1801,0.0,0.0,0.0,0.0,0.0,0.0,0.0,0.0,0.0,0.0,0.0,0.0,0.0,0.0,0.0,0.0,0.0,0.0,0.0,0.0,0.0,0.0,0.0,0.0,0.0,0.0,0.0,0.0,0.0,0.0,0.0,0.0,0.0,0.0,0.0,0.0,0.0,0.0,0.0,0.0,0.0,0.0,0.0,0.0,0.0,0.0,0.0,0.0,0.0,0.0,0.0,0.0,0.0,0.0,0.0,0.0,0.0,0.0,0.0,0.0,0.0,0.0,0.0,0.0,0.0,0.0,0.0,0.0,0.0,0.0,0.0,0.0,0.0,0.0,0.0,0.0,0.0,0.0,0.0,0.0,0.0,0.0,0.0,0.0,0.0,0.0,0.0,0.0,0.0,0.0,0.0,0.0,0.0,0.0,0.0,0.0,0.0,0.0,0.0,0.0,0.0,0.0,0.0,0.0,0.0,0.0,0.0,0.0,0.0,-2.2404,-2.2295,-2.2654,-2.342,-2.2366,-2.203,-2.2539,0.0,0.0,0.0,0.0,0.0,0.0,0.0,0.0,0.0,0.0,0.0,0.0,0.0,0.0,0.0,0.0,0.0,0.0,0.0,0.0,0.0,0.0,0.0,0.0,0.0,0.0,0.0,0.0,0.0,0.0,0.0,0.0,0.0,0.0,0.0,0.0,0.0,0.0,0.0,0.0,0.0,0.0,0.0,0.0,0.0,0.0,0.0,0.0,0.0,0.0,0.0,0.0,0.0,0.0,0.0,0.0,0.0,0.0,0.0,0.0,0.0,0.0,0.0,0.0,0.0,0.0,0.0,0.0,0.0,0.0,0.0,0.0,0.0,0.0,0.0,0.0,0.0,0.0,0.0,0.0,0.0,0.0,0.0,0.0,0.0,0.0,0.0,0.0,0.0,0.0,0.0,0.0,0.0,0.0,0.0,0.0,0.0,0.0,0.0,0.0,0.0,0.0,0.0,0.0,0.0,0.0,0.0,0.0,-2.1599,-2.2201,-2.265,-2.2854,-2.2572,-2.2351,0.0,0.0,0.0,0.0,0.0,0.0,0.0,0.0,0.0,0.0,0.0,0.0,0.0,0.0,0.0,0.0,0.0,0.0,0.0,0.0,0.0,0.0,0.0,0.0,0.0,0.0,0.0,0.0,0.0,0.0,0.0,0.0,0.0,0.0,0.0,0.0,0.0,0.0,0.0,0.0,0.0,0.0,0.0,0.0,0.0,0.0,0.0,0.0,0.0,0.0,0.0,0.0,0.0,0.0,0.0,0.0,0.0,0.0,0.0,0.0,0.0,0.0,0.0,0.0,0.0,0.0,0.0,0.0,0.0,0.0,0.0,0.0,0.0,0.0,0.0,0.0,0.0,0.0,0.0,0.0,0.0,0.0,0.0,0.0,0.0,0.0,0.0,0.0,0.0,0.0,0.0,0.0,0.0,0.0,0.0,0.0,0.0,0.0,0.0,0.0,0.0,0.0,0.0,0.0,0.0,0.0,0.0,0.0,0.0,-2.26,-2.3598,-2.4258,-2.438,-2.3331,-2.2905,0.0,0.0,0.0,0.0,0.0,0.0,0.0,0.0,0.0,0.0,0.0,0.0,0.0,0.0,0.0,0.0,0.0,0.0,0.0,0.0,0.0,0.0,0.0,0.0,0.0,0.0,0.0,0.0,0.0,0.0,0.0,0.0,0.0,0.0,0.0,0.0,0.0,0.0,0.0,0.0,0.0,0.0,0.0,0.0,0.0,0.0,0.0,0.0,0.0,0.0,0.0,0.0,0.0,0.0,0.0,0.0,0.0,0.0,0.0,0.0,0.0,0.0,0.0,0.0,0.0,0.0,0.0,0.0,0.0,0.0,0.0,0.0,0.0,0.0,0.0,0.0,0.0,0.0,0.0,0.0,0.0,0.0,0.0,0.0,0.0,0.0,0.0,0.0,0.0,0.0,0.0,0.0,0.0,0.0,0.0,0.0,0.0,0.0,0.0,0.0,0.0,0.0,0.0,0.0,0.0,0.0,0.0,0.0,-2.3648,-2.2541,-2.4548,-2.5588,-2.5491,-2.4745,-2.3977,0.0,0.0,0.0,0.0,0.0,0.0,0.0,0.0,0.0,0.0,0.0,0.0,0.0,0.0,0.0,0.0,0.0,0.0,0.0,0.0,0.0,0.0,0.0,0.0,0.0,0.0,0.0,0.0,0.0,0.0,0.0,0.0,0.0,0.0,0.0,0.0,0.0,0.0,0.0,0.0,0.0,0.0,0.0,0.0,0.0,0.0,0.0,0.0,0.0,0.0,0.0,0.0,0.0,0.0,0.0,0.0,0.0,0.0,0.0,0.0,0.0,0.0,0.0,0.0,0.0,0.0,0.0,0.0,0.0,0.0,0.0,0.0,0.0,0.0,0.0,0.0,0.0,0.0,0.0,0.0,0.0,0.0,0.0,0.0,0.0,0.0,0.0,0.0,0.0,0.0,0.0,0.0,0.0,0.0,0.0,0.0,0.0,0.0,0.0,0.0,0.0,0.0,0.0,0.0,0.0,0.0,0.0,0.0,-2.3948,-2.2249,-2.5235,-2.6691,-2.6245,-2.6217,-2.5064,0.0,0.0,0.0,0.0,0.0,0.0,0.0,0.0,0.0,0.0,0.0,0.0,0.0,0.0,0.0,0.0,0.0,0.0,0.0,0.0,0.0,0.0,0.0,0.0,0.0,0.0,0.0,0.0,0.0,0.0,0.0,0.0,0.0,0.0,0.0,0.0,0.0,0.0,0.0,0.0,0.0,0.0,0.0,0.0,0.0,0.0,0.0,0.0,0.0,0.0,0.0,0.0,0.0,0.0,0.0,0.0,0.0,0.0,0.0,0.0,0.0,0.0,0.0,0.0,0.0,0.0,0.0,0.0,0.0,0.0,0.0,0.0,0.0,0.0,0.0,0.0,0.0,0.0,0.0,0.0,0.0,0.0,0.0,0.0,0.0,0.0,0.0,0.0,0.0,0.0,0.0,0.0,0.0,0.0,0.0,0.0,0.0,0.0,0.0,0.0,0.0,0.0,0.0,0.0,0.0,0.0,0.0,0.0,-2.4066,-2.4098,-2.6194,-2.7216,-2.6996,-2.5745,-2.4382,0.0,0.0,0.0,0.0,0.0,0.0,0.0,0.0,0.0,0.0,0.0,0.0,0.0,0.0,0.0,0.0,0.0,0.0,0.0,0.0,0.0,0.0,0.0,0.0,0.0,0.0,0.0,0.0,0.0,0.0,0.0,0.0,0.0,0.0,0.0,0.0,0.0,0.0,0.0,0.0,0.0,0.0,0.0,0.0,0.0,0.0,0.0,0.0,-1.9845,0.0,0.0,0.0,0.0,0.0,0.0,0.0,0.0,0.0,0.0,0.0,0.0,0.0,0.0,0.0,0.0,0.0,0.0,0.0,0.0,0.0,0.0,0.0,0.0,0.0,0.0,0.0,0.0,0.0,0.0,0.0,0.0,0.0,0.0,0.0,0.0,0.0,0.0,0.0,0.0,0.0,0.0,0.0,0.0,0.0,0.0,0.0,0.0,0.0,0.0,0.0,0.0,0.0,0.0,0.0,0.0,0.0,0.0,0.0,-2.4614,-2.4871,-2.6956,-2.8017,-2.783,-2.6741,-2.5245,0.0,0.0,0.0,0.0,0.0,0.0,0.0,0.0,0.0,0.0,0.0,0.0,0.0,0.0,0.0,0.0,0.0,0.0,0.0,0.0,0.0,0.0,0.0,0.0,0.0,0.0,0.0,0.0,0.0,0.0,0.0,0.0,0.0,0.0,0.0,0.0,0.0,0.0,0.0,0.0,0.0,0.0,0.0,0.0,0.0,0.0,0.0,0.0,0.0,0.0,0.0,0.0,0.0,0.0,0.0,0.0,0.0,0.0,0.0,0.0,0.0,0.0,0.0,0.0,0.0,0.0,0.0,0.0,0.0,0.0,0.0,0.0,0.0,0.0,0.0,0.0,0.0,0.0,0.0,0.0,0.0,0.0,0.0,0.0,0.0,0.0,0.0,0.0,0.0,0.0,0.0,0.0,0.0,0.0,0.0,0.0,0.0,0.0,0.0,0.0,0.0,0.0,0.0,0.0,0.0,0.0,0.0,-2.4484,-2.5271,-2.5665,-2.7619,-2.8768,-2.8823,-2.8,-2.6532,-2.4514,0.0,0.0,0.0,0.0,0.0,0.0,0.0,0.0,0.0,0.0,0.0,0.0,0.0,0.0,0.0,0.0,0.0,0.0,0.0,0.0,0.0,0.0,0.0,0.0,0.0,0.0,0.0,0.0,0.0,0.0,0.0,0.0,0.0,0.0,0.0,0.0,0.0,0.0,-1.7721,-1.7618,0.0,0.0,0.0,0.0,0.0,0.0,0.0,0.0,-1.8555,0.0,0.0,0.0,0.0,0.0,0.0,0.0,0.0,0.0,0.0,0.0,0.0,0.0,0.0,0.0,0.0,0.0,0.0,0.0,0.0,0.0,0.0,0.0,0.0,0.0,0.0,0.0,0.0,0.0,0.0,0.0,0.0,0.0,0.0,0.0,0.0,0.0,0.0,0.0,0.0,0.0,0.0,0.0,0.0,0.0,0.0,0.0,0.0,0.0,0.0,0.0,0.0,0.0,0.0,0.0,0.0,-2.5295,-2.4788,-2.5582,-2.7811,-2.8449,-2.8973,-2.9324,-2.771,-2.6605,-2.6103,0.0,0.0,0.0,0.0,0.0,0.0,0.0,0.0,0.0,0.0,0.0,0.0,0.0,0.0,0.0,0.0,0.0,0.0,0.0,0.0,0.0,0.0,0.0,0.0,0.0,0.0,0.0,0.0,0.0,0.0,0.0,0.0,0.0,0.0,0.0,0.0,0.0,0.0,0.0,-1.8038,-1.7882,0.0,0.0,0.0,0.0,0.0,0.0,0.0,0.0,-1.8797,0.0,0.0,0.0,0.0,0.0,0.0,0.0,0.0,0.0,0.0,0.0,0.0,0.0,0.0,0.0,0.0,0.0,0.0,0.0,0.0,0.0,0.0,0.0,0.0,0.0,0.0,0.0,0.0,0.0,0.0,0.0,0.0,0.0,0.0,0.0,0.0,0.0,0.0,0.0,0.0,0.0,0.0,0.0,0.0,0.0,0.0,0.0,0.0,0.0,0.0,0.0,0.0,0.0,0.0,0.0,-2.5179,-2.4861,-2.5672,-2.7766,-2.834,-2.8871,-2.9386,-2.7482,-2.6476,0.0,0.0,0.0,0.0,0.0,0.0,0.0,0.0,0.0,0.0,0.0,0.0,0.0,0.0,0.0,0.0,0.0,0.0,0.0,0.0,0.0,0.0,0.0,0.0,0.0,0.0,0.0,0.0,0.0,0.0,0.0,0.0,0.0,0.0,0.0,0.0,0.0,0.0,0.0,0.0,-1.8152,-1.8164,-1.8771,0.0,0.0,0.0,0.0,0.0,0.0,-1.985,-1.9557,0.0,0.0,0.0,0.0,0.0,0.0,0.0,0.0,0.0,0.0,0.0,0.0,0.0,0.0,0.0,0.0,0.0,0.0,0.0,0.0,0.0,0.0,0.0,0.0,0.0,0.0,0.0,0.0,0.0,0.0,0.0,0.0,0.0,0.0,0.0,0.0,0.0,0.0,0.0,0.0,0.0,0.0,0.0,0.0,0.0,0.0,0.0,0.0,0.0,0.0,0.0,0.0,0.0,0.0,0.0,-2.4776,-2.4846,-2.567,-2.7228,-2.7847,-2.8507,-2.9189,-2.7179,-2.6205,0.0,0.0,0.0,0.0,0.0,0.0,0.0,0.0,0.0,0.0,0.0,0.0,0.0,0.0,0.0,0.0,0.0,0.0,0.0,0.0,0.0,0.0,0.0,0.0,0.0,0.0,0.0,0.0,0.0,0.0,0.0,0.0,0.0,0.0,0.0,0.0,0.0,0.0,0.0,0.0,0.0,-1.8598,-1.9876,-1.8638,0.0,0.0,0.0,0.0,-2.0101,-2.0366,0.0,0.0,0.0,0.0,0.0,0.0,0.0,0.0,0.0,0.0,0.0,0.0,0.0,0.0,0.0,0.0,0.0,0.0,0.0,0.0,0.0,0.0,0.0,0.0,0.0,0.0,0.0,0.0,0.0,0.0,0.0,0.0,0.0,0.0,0.0,0.0,0.0,0.0,0.0,0.0,0.0,0.0,0.0,0.0,0.0,0.0,0.0,0.0,0.0,0.0,0.0,0.0,0.0,0.0,0.0,0.0,-2.4764,-2.4803,-2.5607,-2.7206,-2.7377,-2.7864,-2.8721,-2.6686,-2.5797,0.0,0.0,0.0,0.0,0.0,0.0,0.0,0.0,0.0,0.0,0.0,0.0,0.0,0.0,0.0,0.0,0.0,0.0,0.0,0.0,0.0,0.0,0.0,0.0,0.0,0.0,0.0,0.0,0.0,0.0,0.0,0.0,0.0,0.0,0.0,0.0,0.0,0.0,0.0,0.0,0.0,-1.9306,-2.0519,-1.9613,-1.8674,0.0,0.0,-1.9922,-2.0182,-2.0956,0.0,0.0,0.0,0.0,0.0,0.0,0.0,0.0,0.0,0.0,0.0,0.0,0.0,0.0,0.0,0.0,0.0,0.0,0.0,0.0,0.0,0.0,0.0,0.0,0.0,0.0,0.0,0.0,0.0,0.0,0.0,0.0,0.0,0.0,0.0,0.0,0.0,0.0,0.0,0.0,0.0,0.0,0.0,0.0,0.0,0.0,0.0,0.0,0.0,0.0,0.0,0.0,0.0,0.0,0.0,-2.38,-2.4371,-2.4411,-2.5122,-2.6608,-2.665,-2.7245,-2.8437,-2.5625,-2.4698,0.0,0.0,0.0,0.0,0.0,0.0,0.0,0.0,0.0,0.0,0.0,0.0,0.0,0.0,0.0,0.0,0.0,0.0,0.0,0.0,0.0,0.0,0.0,0.0,0.0,0.0,0.0,0.0,0.0,0.0,0.0,0.0,0.0,0.0,0.0,0.0,0.0,0.0,0.0,0.0,0.0,0.0,-2.0758,-1.9942,0.0,0.0,0.0,-2.0327,-2.0671,0.0,0.0,0.0,0.0,0.0,0.0,0.0,0.0,0.0,0.0,0.0,0.0,0.0,0.0,0.0,0.0,0.0,0.0,0.0,0.0,0.0,0.0,0.0,0.0,0.0,0.0,0.0,0.0,0.0,0.0,0.0,0.0,0.0,0.0,0.0,0.0,0.0,0.0,0.0,0.0,0.0,0.0,0.0,0.0,0.0,0.0,0.0,0.0,0.0,0.0,0.0,0.0,0.0,0.0,0.0,0.0,0.0,-2.4075,-2.3977,-2.468,-2.6151,-2.619,-2.6854,-2.8051,-2.5422,0.0,0.0,0.0,0.0,0.0,0.0,0.0,0.0,0.0,0.0,0.0,0.0,0.0,0.0,0.0,0.0,0.0,0.0,0.0,0.0,0.0,0.0,0.0,0.0,0.0,0.0,0.0,-1.8324,0.0,0.0,0.0,0.0,0.0,0.0,0.0,0.0,0.0,0.0,0.0,0.0,0.0,0.0,-2.0254,-2.1249,-2.0404,-2.0048,0.0,0.0,-2.0802,-2.1316,-2.2753,-2.311,0.0,0.0,0.0,0.0,0.0,0.0,0.0,0.0,0.0,0.0,0.0,0.0,0.0,0.0,0.0,0.0,0.0,0.0,0.0,0.0,0.0,0.0,0.0,0.0,0.0,0.0,0.0,0.0,0.0,0.0,0.0,0.0,0.0,0.0,0.0,0.0,0.0,0.0,0.0,0.0,0.0,0.0,0.0,0.0,0.0,0.0,0.0,0.0,0.0,0.0,0.0,0.0,0.0,0.0,0.0,-2.4064,-2.3737,-2.4399,-2.6107,-2.6246,-2.6718,-2.7631,-2.7078,-2.654,0.0,0.0,0.0,0.0,0.0,0.0,0.0,0.0,0.0,0.0,0.0,0.0,0.0,0.0,0.0,0.0,0.0,0.0,0.0,0.0,0.0,0.0,0.0,0.0,0.0,0.0,0.0,0.0,0.0,0.0,0.0,0.0,0.0,0.0,0.0,0.0,0.0,0.0,0.0,0.0,0.0,-2.1498,-2.236,-2.1238,-2.0798,0.0,0.0,-2.1384,-2.2116,-2.372,-2.4127,-2.1945,0.0,0.0,0.0,0.0,0.0,0.0,0.0,0.0,0.0,0.0,0.0,0.0,0.0,0.0,0.0,0.0,0.0,0.0,0.0,0.0,0.0,0.0,0.0,0.0,0.0,0.0,0.0,0.0,0.0,0.0,0.0,0.0,0.0,0.0,0.0,0.0,0.0,0.0,0.0,0.0,0.0,0.0,0.0,0.0,0.0,0.0,0.0,0.0,0.0,0.0,0.0,0.0,0.0,-2.3125,-2.4313,-2.3694,-2.419,-2.5917,-2.6211,-2.6778,-2.7825,-2.7308,-2.6401,0.0,0.0,0.0,0.0,0.0,0.0,0.0,0.0,0.0,0.0,0.0,0.0,0.0,0.0,0.0,0.0,0.0,0.0,0.0,0.0,0.0,0.0,0.0,0.0,0.0,0.0,0.0,0.0,-1.8007,-1.7687,-1.7319,0.0,0.0,0.0,0.0,0.0,0.0,0.0,0.0,0.0,0.0,-2.1105,-2.2661,-2.2372,0.0,0.0,-2.271,-2.2615,-2.2346,-2.3113,-2.3058,-2.1052,-2.0295,0.0,0.0,0.0,0.0,0.0,0.0,0.0,0.0,0.0,0.0,0.0,0.0,0.0,0.0,0.0,0.0,0.0,0.0,0.0,0.0,0.0,0.0,0.0,0.0,0.0,0.0,0.0,0.0,0.0,0.0,0.0,0.0,0.0,0.0,0.0,0.0,0.0,0.0,0.0,0.0,0.0,0.0,0.0,0.0,0.0,0.0,0.0,0.0,0.0,0.0,0.0,0.0,-2.3352,-2.4478,-2.3803,-2.4198,-2.5889,-2.6166,-2.6834,-2.7934,-2.775,-2.7028,0.0,0.0,0.0,0.0,0.0,0.0,0.0,0.0,0.0,0.0,0.0,0.0,0.0,0.0,0.0,0.0,0.0,0.0,0.0,0.0,0.0,0.0,0.0,0.0,0.0,0.0,0.0,0.0,-1.8035,-1.7875,-1.7821,0.0,0.0,0.0,0.0,0.0,0.0,0.0,0.0,0.0,0.0,-2.1397,-2.2501,-2.2739,-2.2848,-2.2979,-2.3045,-2.2964,-2.2772,-2.2892,-2.2499,-2.1001,0.0,0.0,0.0,0.0,0.0,0.0,0.0,0.0,0.0,0.0,0.0,0.0,0.0,0.0,0.0,0.0,0.0,0.0,0.0,0.0,0.0,0.0,0.0,0.0,0.0,0.0,0.0,0.0,0.0,0.0,-2.3711,0.0,0.0,0.0,0.0,0.0,0.0,0.0,0.0,0.0,0.0,0.0,0.0,0.0,0.0,0.0,0.0,0.0,0.0,0.0,0.0,0.0,0.0,-2.399,-2.4489,-2.4116,-2.4562,-2.5868,-2.6177,-2.6845,-2.7977,-2.8672,-2.891,-2.8672,0.0,0.0,0.0,0.0,0.0,0.0,0.0,0.0,0.0,0.0,0.0,0.0,0.0,0.0,0.0,0.0,0.0,0.0,0.0,0.0,0.0,0.0,0.0,0.0,0.0,0.0,-1.7859,-1.7988,-1.8355,0.0,0.0,0.0,0.0,0.0,0.0,0.0,0.0,0.0,0.0,-2.1918,-2.2672,-2.1855,-2.2062,-2.251,-2.2968,-2.2258,-2.2127,-2.3411,-2.3263,-2.2837,0.0,0.0,0.0,0.0,0.0,0.0,0.0,0.0,0.0,0.0,0.0,0.0,0.0,0.0,0.0,0.0,0.0,0.0,0.0,0.0,0.0,0.0,0.0,0.0,0.0,0.0,0.0,-2.3705,-2.3674,0.0,0.0,0.0,0.0,0.0,0.0,0.0,0.0,0.0,0.0,0.0,-2.3644,-2.3248,0.0,0.0,0.0,0.0,0.0,0.0,0.0,0.0,0.0,0.0,0.0,0.0,-2.42,-2.4892,-2.4524,-2.483,-2.5889,-2.6459,-2.7205,-2.8157,-2.908,-2.9488,-2.9237,0.0,0.0,0.0,0.0,0.0,0.0,0.0,0.0,0.0,0.0,0.0,0.0,0.0,0.0,0.0,0.0,0.0,0.0,0.0,0.0,0.0,0.0,0.0,0.0,0.0,-1.7855,0.0,0.0,0.0,0.0,0.0,0.0,0.0,0.0,0.0,0.0,0.0,-2.0284,-2.0734,-2.0978,-2.1118,-2.1152,-2.1796,-2.2717,0.0,0.0,0.0,0.0,0.0,0.0,0.0,0.0,0.0,0.0,0.0,0.0,0.0,0.0,-2.3066,-2.1311,-2.2036,-2.3072,-2.3639,0.0,0.0,0.0,0.0,0.0,0.0,0.0,0.0,0.0,0.0,0.0,0.0,0.0,0.0,-2.3614,0.0,-2.3752,0.0,0.0,0.0,0.0,0.0,0.0,0.0,0.0,-2.3311,-2.3491,-2.3712,-2.3477,-2.3844,0.0,-2.5342,-2.5457,0.0,0.0,0.0,0.0,0.0,0.0,0.0,0.0,-2.4519,-2.4914,-2.4827,-2.5096,-2.5899,-2.6524,-2.7306,-2.8265,-2.9415,-3.0067,-3.0084,-2.8188,-2.6585,0.0,0.0,0.0,0.0,0.0,0.0,0.0,0.0,0.0,0.0,0.0,0.0,0.0,0.0,0.0,0.0,0.0,0.0,0.0,0.0,0.0,0.0,0.0,-1.8394,0.0,0.0,0.0,0.0,0.0,0.0,0.0,0.0,0.0,-2.0055,-2.0426,-2.0814,-2.1149,-2.146,-2.1407,-2.0708,0.0,0.0,0.0,0.0,0.0,0.0,0.0,-2.0925,-2.1144,-2.183,-2.2626,-2.3449,-2.4224,-2.4618,-2.429,0.0,0.0,-2.3722,-2.4258,-2.5262,-2.5972,-2.5633,-2.5442,-2.5966,-2.5859,-2.5825,0.0,0.0,0.0,0.0,0.0,0.0,0.0,0.0,-2.1194,-2.2862,0.0,-2.3644,0.0,0.0,0.0,0.0,0.0,-2.3663,0.0,0.0,-2.2945,-2.2988,-2.3505,-2.3926,-2.4126,-2.4315,-2.6593,-2.6747,-2.5075,-2.5121,0.0,0.0,0.0,0.0,0.0,0.0,-2.4998,-2.4606,-2.5046,-2.5492,-2.5937,-2.6428,-2.7196,-2.8376,-2.9757,-3.0694,-3.1154,-3.0541,-2.9751,-2.8803,-2.6583,0.0,0.0,0.0,0.0,0.0,0.0,0.0,0.0,0.0,0.0,0.0,0.0,0.0,0.0,0.0,0.0,0.0,0.0,0.0,0.0,-2.0047,0.0,0.0,0.0,0.0,0.0,0.0,0.0,0.0,0.0,0.0,-2.0341,-2.1225,-2.1889,-2.1642,0.0,0.0,0.0,0.0,-2.2648,-2.0063,-1.9954,-2.0467,-2.1091,-2.1832,-2.2859,-2.4235,0.0,0.0,-2.725,-2.6245,-2.5489,-2.5371,-2.6594,-2.7239,-2.6701,-2.6389,-2.6523,-2.7575,-2.6688,-2.5923,-2.6689,-2.6427,-2.5724,-2.0979,0.0,0.0,0.0,0.0,-2.0047,-2.0778,-2.0982,-2.2677,-2.345,-2.3479,-2.3514,0.0,0.0,0.0,0.0,0.0,0.0,-2.4167,-2.4421,-2.4956,-2.502,-2.4836,-2.5419,-2.5867,-2.6209,-2.6579,-2.6567,-2.6111,-2.6025,-2.5765,-2.5387,0.0,0.0,0.0,0.0,-2.5211,-2.5293,-2.5899,-2.6413,-2.6905,-2.7303,-2.8171,-2.955,-3.0143,-3.0771,-3.1465,-3.1113,-3.0252,-2.888,-2.8158,0.0,0.0,0.0,0.0,0.0,0.0,0.0,0.0,0.0,0.0,0.0,0.0,0.0,0.0,0.0,0.0,0.0,0.0,0.0,-2.0392,-2.0539,-2.0293,0.0,0.0,0.0,0.0,0.0,0.0,0.0,0.0,0.0,-2.2652,-2.1928,-2.1664,0.0,0.0,-2.1067,-2.0227,-2.1296,-2.2269,-2.243,-2.2582,0.0,-2.4716,-2.4334,-2.4126,-2.4898,-2.6452,-2.7796,-2.8311,-2.8891,-2.915,-2.8822,-2.9652,-3.0395,-3.0581,-3.0033,-2.9858,-3.0695,-3.0356,-3.0044,-3.0781,-3.033,-2.9745,-2.2326,-2.1788,-2.0849,-2.0081,-1.9574,-2.0734,-2.1276,-2.1418,-2.2795,-2.3553,-2.3849,-2.3877,-2.3728,-2.3387,-2.2871,0.0,0.0,0.0,-2.5309,-2.5782,-2.6601,-2.6864,-2.6747,-2.7215,-2.7514,-2.7676,-2.7498,-2.725,-2.6936,-2.7006,-2.6729,-2.613,0.0,0.0,-2.5712,-2.5625,-2.5579,-2.5616,-2.6426,-2.7029,-2.7299,-2.8059,-2.8942,-2.9891,-3.0315,-3.0817,-3.1435,-3.162,-3.1063,-2.9674,-2.939,-2.8039,0.0,0.0,0.0,0.0,0.0,0.0,0.0,0.0,0.0,0.0,0.0,-2.1252,0.0,0.0,0.0,0.0,-2.1969,-2.1397,-2.0863,-2.0864,0.0,0.0,0.0,0.0,0.0,0.0,0.0,-2.2898,-2.4404,-2.5349,-2.4763,-2.394,-2.3547,-2.3945,-2.3389,-2.2822,-2.2441,0.0,-2.3962,-2.4268,-2.4301,-2.476,-2.6092,-2.6081,-2.6234,-2.7327,-2.8528,-2.951,-2.9849,-3.0799,-3.128,-3.0996,-3.1411,-3.1957,-3.2066,-3.1575,-3.1487,-3.2427,-3.2263,-3.2096,-3.2537,-3.2082,-3.1673,-2.3688,-2.3579,-2.225,-2.1227,-2.0586,-2.1412,-2.1665,-2.1573,-2.2097,-2.3383,-2.5094,-2.4503,-2.4827,-2.5803,-2.5264,0.0,-2.5039,-2.6064,-2.674,-2.7101,-2.7814,-2.8368,-2.8719,-2.9,-2.901,-2.8766,-2.8939,-2.8552,-2.7733,-2.8036,-2.7874,-2.728,-2.6805,-2.642,-2.6006,-2.6199,-2.6096,-2.5675,-2.6796,-2.7434,-2.7533,-2.873,-2.9496,-2.9853,-3.049,-3.0931,-3.124,-3.1973,-3.1891,-3.093,-3.0288,-2.9471,-2.8331,0.0,0.0,0.0,0.0,0.0,0.0,0.0,0.0,0.0,0.0,0.0,0.0,0.0,0.0,0.0,-2.3411,0.0,-2.2192,-2.1284,0.0,0.0,0.0,-2.2495,-2.4316,-2.5054,-2.5524,-2.5904,0.0,0.0,-2.6693,-2.6769,-2.6846,-2.6922,-2.714,-2.6955,-2.6136,-2.6671,-2.6889,-2.5622,-2.5587,-2.5775,-2.6616,-2.7533,-2.8787,-3.0362,-3.1323,-3.1487,-3.152,-3.188,-3.2077,-3.1651,-3.2001,-3.2241,-3.1763,-3.176,-3.1968,-3.2917,-3.2634,-3.2317,-3.2402,-3.1979,-3.1749,-2.4342,-2.4276,-2.3701,-2.3261,-2.2924,-2.3052,-2.3278,-2.3513,-2.3877,-2.4178,-2.4404,-2.446,-2.4493,-2.4421,-2.5049,-2.5389,-2.5586,-2.6382,-2.7161,-2.7921,-2.8361,-2.869,-2.901,-2.9514,-2.9626,-2.9383,-2.9639,-2.9652,-2.9368,-2.9183,-2.8993,-2.8757,-2.7981,-2.7263,-2.6711,-2.7075,-2.716,-2.6869,-2.7828,-2.8551,-2.9115,-2.9774,-3.0337,-3.0852,-3.1021,-3.123,-3.1476,-3.1687,-3.152,-3.0919,-3.0585,-2.959,-2.7655,-2.6453,0.0,0.0,0.0,0.0,0.0,0.0,0.0,0.0,0.0,-2.2048,-2.152,0.0,-2.2451,0.0,-2.337,-2.4138,-2.4379,-2.3998,0.0,0.0,-2.3116,-2.3613,-2.4622,-2.6141,-2.6889,-2.636,-2.7933,-2.8854,-2.8188,-2.841,-2.896,-2.9722,-2.8058,-2.6802,-2.6944,-2.7435,-2.7718,-2.7534,-2.8265,-2.9172,-2.9565,-3.0286,-3.0876,-3.1378,-3.1553,-3.1567,-3.1567,-3.1717,-3.1771,-3.1651,-3.1706,-3.2012,-3.2558,-3.2448,-3.2416,-3.2927,-3.2394,-3.1935,-3.2285,-3.1979,-3.1611,-2.4915,-2.5026,-2.4833,-2.489,-2.497,-2.4174,-2.3923,-2.4157,-2.4462,-2.4757,-2.502,-2.5449,-2.5525,-2.5345,-2.596,-2.6515,-2.7024,-2.7769,-2.8492,-2.9164,-2.9518,-2.9814,-3.0089,-3.0441,-3.0445,-3.0238,-3.0227,-3.0038,-2.9739,-2.9763,-2.955,-2.9186,-2.9168,-2.8811,-2.8166,-2.7504,-2.721,-2.729,-2.8191,-2.9121,-3.0136,-3.042,-3.0574,-3.0575,-3.0349,-3.0175,-2.9997,-3.0024,-2.9855,-2.9631,-2.9617,-2.8982,-2.7558,-2.6298,-2.509,0.0,0.0,0.0,0.0,0.0,0.0,0.0,0.0,0.0,0.0,0.0,-2.3449,-2.2936,-2.4246,-2.5003,-2.4748,-2.4881,-2.4886,-2.4708,-2.5206,-2.6012,-2.7094,-2.8354,-2.9027,-2.8747,-2.9895,-3.0584,-3.0006,-3.0138,-3.0541,-3.1116,-2.9838,-2.8921,-2.9183,-2.9419,-2.9594,-2.9626,-3.0319,-3.1007,-3.1476,-3.1782,-3.1968,-3.1957,-3.1968,-3.1891,-3.1673,-3.1815,-3.1891,-3.1695,-3.1804,-3.2022,-3.2361,-3.2448,-3.2481,-3.2623,-3.2514,-3.2241,-3.2066,-3.1826,-3.1567,-2.5329,-2.5569,-2.5552,-2.5929,-2.6478,-2.4964,-2.4351,-2.4543,-2.4713,-2.5382,-2.6422,-2.6943,-2.727,-2.7423,-2.7687,-2.812,-2.8732,-2.9563,-3.0209,-3.0604,-3.081,-3.1074,-3.1404,-3.1354,-3.1299,-3.1194,-3.0878,-3.0394,-2.9804,-3.0154,-2.9987,-2.9482,-3.0228,-3.0381,-2.9821,-2.8004,-2.7288,-2.7728,-2.8519,-2.9487,-3.0741,-3.0625,-3.0298,-2.9688,-2.923,-2.8654,-2.7958,-2.7903,-2.7903,-2.7903,-2.8063,-2.8043,-2.7723,-2.6011,-2.5101,0.0,-2.4125,0.0,0.0,0.0,0.0,0.0,0.0,0.0,0.0,-2.4519,-2.4639,-2.5,-2.5635,-2.5694,-2.4867,-2.537,-2.5955,-2.6551,-2.7549,-2.8751,-3.0084,-3.0608,-3.1066,-3.1662,-3.1673,-3.1651,-3.1738,-3.1717,-3.1618,-3.1673,-3.1509,-3.1356,-3.164,-3.1597,-3.1575,-3.1717,-3.1662,-3.1706,-3.2252,-3.2394,-3.2383,-3.2437,-3.247,-3.2317,-3.1935,-3.2132,-3.2252,-3.1957,-3.2143,-3.2274,-3.1935,-3.2274,-3.2459,-3.2536,-3.2721,-3.2623,-3.2001,-3.1782,-3.1706,-2.5262,-2.5592,-2.533,-2.5607,-2.619,-2.5591,-2.5822,-2.6567,-2.6056,-2.657,-2.7773,-2.8124,-2.8723,-2.9485,-2.9867,-3.0056,-3.0209,-3.0721,-3.1111,-3.143,-3.1125,-3.1318,-3.183,-3.1726,-3.169,-3.1657,-3.1862,-3.1895,-3.1747,-3.107,-3.0936,-3.1212,-3.0538,-3.0436,-3.0861,0.0,0.0,0.0,-2.9915,-3.0077,-3.0503,-2.9805,-2.9294,-2.9005,-2.8468,0.0,-2.7445,-2.7446,-2.7457,-2.7391,-2.7141,0.0,0.0,0.0,0.0,0.0,0.0,0.0,0.0,0.0,0.0,0.0,-2.6656,-2.6092,-2.5171,-2.4705,-2.5448,-2.772,-2.7236,-2.7201,-2.8359,-2.8541,-2.8603,-2.8574,-2.894,-2.9541,-3.0363,-3.0514,-3.0983,-3.2121,-3.1891,-3.1935,-3.259,-3.2132,-3.1804,-3.2143,-3.188,-3.1815,-3.2208,-3.2241,-3.223,-3.2219,-3.1935,-3.199,-3.2798,-3.2645,-3.2601,-3.282,-3.2982,-3.2885,-3.2765,-3.2503,-3.2547,-3.2656,-3.2569,-3.2634,-3.3191,-3.3158,-3.2993,-3.2993,-3.2732,-3.2459,-3.2285,-3.2241,-3.2121,-2.5524,0.0,-2.5592,-2.5734,0.0,-2.6003,-2.6432,-2.7417,-2.6874,-2.7483,-2.8986,-2.9584,-3.0218,-3.091,-3.1051,-3.1242,-3.1424,-3.1565,-3.1738,-3.1846,-3.1601,-3.1742,-3.2119,-3.2072,-3.2021,-3.1921,-3.2102,-3.1979,-3.1631,-3.1517,-3.1392,-3.1329,-3.1304,-3.1402,-3.1698,-3.1652,-3.1476,-3.123,-3.0755,-3.0784,-3.137,-3.073,-3.0063,-2.95,-2.9248,0.0,0.0,0.0,0.0,0.0,0.0,0.0,0.0,-2.7664,0.0,-2.7947,-2.7766,-2.7944,-2.8629,-2.844,-2.8495,-2.9004,-2.8874,-2.8233,-2.7075,-2.7162,-2.7905,-2.9303,-2.8878,-2.8758,-2.9365,-2.9724,-2.9867,-2.9614,-3.0038,-3.0525,-3.0994,-3.1283,-3.1671,-3.2274,-3.2361,-3.2547,-3.3037,-3.2678,-3.2448,-3.272,-3.2514,-3.2503,-3.2918,-3.2667,-3.2448,-3.2731,-3.2536,-3.2601,-3.3235,-3.3095,-3.2911,-3.3161,-3.3215,-3.3106,-3.2878,-3.2768,-3.2862,-3.3059,-3.2917,-3.296,-3.3278,-3.341,-3.342,-3.341,-3.3235,-3.2984,-3.2765,-3.235,-3.2033,-2.5727,-2.6532,-2.5801,-2.5928,-2.6592,-2.6339,-2.6926,-2.8081,0.0,0.0,0.0,-3.0822,-3.1464,-3.1848,-3.1918,-3.2031,-3.2275,-3.2336,-3.2371,-3.2316,-3.2147,-3.2242,-3.254,-3.2377,-3.2235,-3.2122,-3.2112,-3.1793,-3.1267,-3.1731,-3.1721,-3.1363,-3.2121,-3.2619,-3.264,-3.3106,-3.294,-3.2101,-3.1487,-3.1564,-3.2339,-3.1804,-3.1033,-3.0231,-3.0133,-2.9663,-2.8847,-2.8814,-2.8771,-2.8683,-2.8683,-2.8716,-2.8781,-2.8462,-2.8329,-2.8517,-2.8528,-2.8916,-2.981,-2.9763,-3.0087,-3.0941,-3.0679,-3.0078,-2.9241,-2.9794,-3.0237,-3.0351,-3.0237,-3.0018,-2.9657,-3.0138,-3.0477,-3.04,-3.0957,-3.1473,-3.184,-3.223,-3.2525,-3.2645,-3.2885,-3.3201,-3.3322,-3.3158,-3.3157,-3.3212,-3.3113,-3.3299,-3.3573,-3.3147,-3.2874,-3.3278,-3.3158,-3.3213,-3.365,-3.3573,-3.3451,-3.3516,-3.3538,-3.3387,-3.3106,-3.3095,-3.3235,-3.3399,-3.3268,-3.3321,-3.3344,-3.3683,-3.3879,-3.3814,-3.3803,-3.365,-3.3126,-3.2383,-3.1902,-2.5794,-2.613,-2.5457,-2.5599,-2.6213,-2.6465,-2.7708,-2.9452,-2.9485,-3.0049,-3.1111,-3.1138,-3.1731,-3.2643,-3.2643,-3.2643,-3.2705,-3.3013,-3.3295,-3.3575,-3.2725,-3.2731,-3.335,-3.2673,-3.2399,-3.2587,-3.2633,-3.2545,-3.2452,-3.2142,-3.2142,-3.2447,-3.2693,-3.3315,-3.4128,-3.4271,-3.425,-3.4098,-3.2842,-3.2241,-3.2372,-3.1476,-3.0745,-3.0231,-2.9849,-2.9347,-2.8822,-2.8844,-2.8593,-2.8122,-2.8089,-2.832,-2.8781,-2.9128,-2.9642,-3.0428,-3.0871,-3.1166,-3.1291,-3.1308,-3.1352,-3.1487,-3.1465,-3.1181,-3.0646,-3.0351,-3.0449,-3.0957,-3.0496,-3.025,-3.0521,-3.0472,-3.0756,-3.1472,-3.1706,-3.2068,-3.2754,-3.2907,-3.3115,-3.3475,-3.3268,-3.3442,-3.4032,-3.3595,-3.3354,-3.3541,-3.3431,-3.3289,-3.3683,-3.3693,-3.3803,-3.4076,-3.3584,-3.3421,-3.3898,-3.3888,-3.3801,-3.3991,-3.4114,-3.4171,-3.4062,-3.3857,-3.3825,-3.4218,-3.3934,-3.3868,-3.4174,-3.436,-3.424,-3.3945,-3.3846,-3.3639,-3.3202,-3.2634,-3.2164,-2.5801,-2.6003,-2.539,-2.5592,-2.6465,-2.7459,-2.8444,-2.9543,-3.0341,-3.1102,-3.1856,-3.1866,-3.2325,-3.3125,-3.3135,-3.3008,-3.2793,-3.3164,-3.319,-3.3064,-3.2772,-3.2832,-3.3073,-3.2683,-3.2555,-3.2669,-3.2669,-3.2669,-3.2649,-3.2452,-3.2463,-3.2706,-3.3064,-3.3692,-3.4457,-3.4468,-3.4468,-3.4502,-3.3617,-3.3147,-3.3126,-3.2448,-3.1979,-3.176,-3.1782,-3.1738,-3.152,-3.176,-3.1673,-3.1181,-3.0908,-3.0985,-3.1444,-3.0952,-3.1072,-3.2041,-3.2044,-3.1913,-3.164,-3.1567,-3.1567,-3.1567,-3.1567,-3.1531,-3.1302,-3.0954,-3.0867,-3.1176,-3.0769,-3.0596,-3.0937,-3.0874,-3.1116,-3.1998,-3.203,-3.234,-3.2996,-3.3322,-3.3551,-3.3759,-3.3846,-3.4032,-3.4469,-3.413,-3.3912,-3.4141,-3.3967,-3.3956,-3.4152,-3.4185,-3.4261,-3.4436,-3.4141,-3.401,-3.4213,-3.4137,-3.4038,-3.4065,-3.4199,-3.4244,-3.43,-3.4183,-3.4261,-3.4458,-3.4316,-3.4294,-3.4457,-3.4468,-3.4348,-3.4272,-3.3945,-3.3704,-3.3442,-3.2907,-3.2252,-2.5869,-2.6071,-2.5524,-2.5996,-2.7118,-2.8378,-2.9168,-2.9635,-3.0861,-3.1699,-3.223,-3.2422,-3.2858,-3.3355,-3.3418,-3.3242,-3.3064,-3.3156,-3.3125,-3.2872,-3.2842,-3.2868,-3.2824,-3.2789,-3.2669,-3.2669,-3.2669,-3.2669,-3.2669,-3.2669,-3.2784,-3.2955,-3.3353,-3.3918,-3.4468,-3.4468,-3.4468,-3.4446,-3.4141,-3.3956,-3.3945,-3.3584,-3.3399,-3.342,-3.3748,-3.3956,-3.3967,-3.4327,-3.4294,-3.3814,-3.3431,-3.3344,-3.3562,-3.2569,-3.2285,-3.2993,-3.2634,-3.2219,-3.1859,-3.1891,-3.1946,-3.1957,-3.1946,-3.1894,-3.1843,-3.1594,-3.1342,-3.1129,-3.0806,-3.0789,-3.0979,-3.1073,-3.1411,-3.222,-3.2413,-3.276,-3.3312,-3.3737,-3.3956,-3.401,-3.4294,-3.4446,-3.4468,-3.4468,-3.4435,-3.4424,-3.4468,-3.4468,-3.4468,-3.4468,-3.4468,-3.4468,-3.4468,-3.4435,-3.4412,-3.4289,-3.4177,-3.4142,-3.4132,-3.4255,-3.4244,-3.4356,-3.4468,-3.4468,-3.4468,-3.4435,-3.4457,-3.4468,-3.4457,-3.4447,-3.4109,-3.3715,-3.3377,-3.2874,-3.2241,-2.6071,-2.6071,-2.6048,-2.6851,-2.8196,-2.8914,-2.9643,-3.0369,-3.1129,-3.158,-3.1983,-3.254,-3.3048,-3.3355,-3.3355,-3.3515,-3.3701,-3.3345,-3.3447,-3.3911,-3.3125,-3.2917,-3.3223,-3.2913,-3.2669,-3.2669,-3.2669,-3.2669,-3.2669,-3.2737,-3.2955,-3.3455,-3.3568,-3.3907,-3.4412,-3.4468,-3.4468,-3.4468,-3.448,-3.4458,-3.4458,-3.4403,-3.4403,-3.4392,-3.4425,-3.4447,-3.4425,-3.4502,-3.4305,-3.3846,-3.3748,-3.3541,-3.3256,-3.3048,-3.2973,-3.3103,-3.2698,-3.2361,-3.235,-3.27,-3.2949,-3.2929,-3.2938,-3.2768,-3.2512,-3.2255,-3.171,-3.1052,-3.0641,-3.0622,-3.0722,-3.0986,-3.1632,-3.2687,-3.3069,-3.3571,-3.4129,-3.4425,-3.4458,-3.4458,-3.4413,-3.4468,-3.4468,-3.4468,-3.4468,-3.4468,-3.4468,-3.4468,-3.4468,-3.4468,-3.4468,-3.4468,-3.4468,-3.4423,-3.4255,-3.4356,-3.4311,-3.4199,-3.43,-3.4412,-3.4412,-3.4468,-3.4468,-3.4468,-3.4468,-3.4468,-3.4468,-3.4468,-3.4435,-3.448,-3.4119,-3.3584,-3.2809,-3.2503,-3.2241,-2.6733,-2.6741,-2.6725,-2.7459,-2.865,-2.9569,-3.0239,-3.075,-3.1193,-3.158,-3.1919,-3.2422,-3.2794,-3.3102,-3.3292,-3.3479,-3.3525,-3.3546,-3.3488,-3.3512,-3.3173,-3.3078,-3.2975,-3.283,-3.2669,-3.2669,-3.2669,-3.2669,-3.2727,-3.2908,-3.3296,-3.3861,-3.3918,-3.4076,-3.4468,-3.4468,-3.4468,-3.4468,-3.4468,-3.4468,-3.4468,-3.4468,-3.4468,-3.4468,-3.4468,-3.4468,-3.4468,-3.4468,-3.4425,-3.4229,-3.3956,-3.3846,-3.3923,-3.3388,-3.3202,-3.3431,-3.3049,-3.2918,-3.3202,-3.319,-3.3124,-3.3124,-3.3124,-3.2953,-3.262,-3.2362,-3.1976,-3.1475,-3.1123,-3.1096,-3.1402,-3.1748,-3.2296,-3.3144,-3.3628,-3.3982,-3.4435,-3.4468,-3.4468,-3.4468,-3.4468,-3.4468,-3.4468,-3.4468,-3.4468,-3.4468,-3.4468,-3.4468,-3.4468,-3.4468,-3.4468,-3.4468,-3.4468,-3.4468,-3.4356,-3.4412,-3.4412,-3.4356,-3.4412,-3.4468,-3.4468,-3.4468,-3.4468,-3.4468,-3.4468,-3.4468,-3.4468,-3.4272,-3.4141,-3.424,-3.4371,-3.3868,-3.2634,-3.2601,-3.2448,-2.7413,-2.7467,-2.7592,-2.818,-2.9159,-3.01,-3.0694,-3.0944,-3.1258,-3.158,-3.1919,-3.223,-3.2613,-3.2921,-3.3238,-3.343,-3.3456,-3.3586,-3.3427,-3.3115,-3.3324,-3.3151,-3.2721,-3.2871,-3.284,-3.2747,-3.2784,-3.2908,-3.2965,-3.3182,-3.3579,-3.403,-3.4097,-3.4255,-3.4468,-3.4468,-3.4468,-3.4468,-3.4468,-3.4468,-3.4468,-3.4468,-3.4468,-3.4468,-3.4468,-3.4468,-3.4468,-3.4468,-3.4468,-3.4457,-3.4185,-3.4152,-3.4402,-3.3846,-3.3573,-3.3748,-3.3606,-3.3551,-3.3781,-3.3584,-3.3464,-3.3464,-3.3464,-3.3291,-3.2965,-3.2703,-3.2429,-3.2054,-3.1854,-3.1868,-3.1971,-3.2378,-3.2913,-3.3494,-3.3974,-3.4311,-3.4457,-3.4468,-3.4468,-3.4468,-3.4468,-3.4468,-3.4468,-3.4468,-3.4468,-3.4468,-3.4468,-3.4468,-3.4468,-3.4468,-3.4468,-3.4468,-3.4468,-3.4468,-3.4468,-3.4468,-3.4468,-3.4468,-3.4468,-3.4468,-3.4468,-3.4468,-3.4468,-3.4468,-3.4468,-3.4468,-3.4468,-3.424,-3.3846,-3.3999,-3.3999,-3.3595,-3.235,-3.2503,-3.2381,-2.7898,-2.8196,-2.8568,-2.9094,-2.9813,-3.0546,-3.0879,-3.1009,-3.1258,-3.158,-3.1891,-3.223,-3.2603,-3.2892,-3.3219,-3.3597,-3.3773,-3.3466,-3.3356,-3.3552,-3.3499,-3.3172,-3.2789,-3.3141,-3.313,-3.2867,-3.3033,-3.3317,-3.3544,-3.36,-3.3738,-3.4119,-3.4129,-3.4266,-3.4468,-3.4468,-3.4468,-3.4468,-3.4468,-3.4468,-3.4468,-3.4468,-3.4524,-3.4524,-3.4468,-3.4468,-3.4468,-3.4468,-3.4468,-3.4468,-3.4424,-3.4491,-3.4457,-3.4402,-3.4218,-3.3912,-3.4196,-3.4229,-3.3934,-3.4163,-3.4382,-3.4414,-3.4282,-3.4136,-3.3535,-3.3367,-3.3096,-3.269,-3.254,-3.238,-3.2147,-3.2574,-3.3112,-3.3607,-3.4132,-3.4401,-3.4468,-3.4468,-3.4468,-3.4468,-3.4468,-3.4468,-3.4468,-3.4468,-3.4468,-3.4468,-3.4468,-3.4468,-3.4468,-3.4468,-3.4468,-3.4468,-3.4468,-3.4468,-3.4468,-3.4468,-3.4468,-3.4468,-3.4468,-3.4468,-3.4468,-3.4468,-3.4468,-3.4424,-3.437,-3.4414,-3.448,-3.4283,-3.3868,-3.3617,-3.3126,-3.2514,-3.2012,-3.1782,-3.1779,-2.9296,-2.9569,-2.9495,-2.9878,-3.0538,-3.0806,-3.1129,-3.1534,-3.1451,-3.156,-3.1856,-3.2244,-3.247,-3.2536,-3.3364,-3.3922,-3.4195,-3.4019,-3.3963,-3.3966,-3.4196,-3.3865,-3.3213,-3.3317,-3.3433,-3.3382,-3.3272,-3.3625,-3.4325,-3.4347,-3.4507,-3.4734,-3.4801,-3.4717,-3.4522,-3.4468,-3.4468,-3.4468,-3.4468,-3.4468,-3.4524,-3.4702,-3.4813,-3.4802,-3.459,-3.4468,-3.4468,-3.4468,-3.4468,-3.4468,-3.4468,-3.4468,-3.4468,-3.4468,-3.4458,-3.4305,-3.4425,-3.4447,-3.4316,-3.4425,-3.4468,-3.4468,-3.4367,-3.4086,-3.3681,-3.3409,-3.3182,-3.2794,-3.2669,-3.2566,-3.2597,-3.2976,-3.349,-3.3864,-3.4244,-3.4468,-3.4468,-3.4468,-3.4468,-3.4468,-3.4468,-3.4468,-3.4468,-3.4468,-3.4468,-3.4468,-3.4468,-3.4468,-3.4468,-3.4468,-3.4468,-3.4468,-3.4468,-3.4468,-3.4468,-3.4468,-3.4468,-3.4468,-3.4468,-3.4468,-3.4468,-3.4413,-3.4458,-3.4141,-3.4109,-3.4098,-3.4087,-3.4021,-3.365,-3.3093,-3.2579,-3.2416,-3.1731,-3.1902,-3.2016,-3.0292,-3.052,-3.0266,-3.0417,-3.0879,-3.1138,-3.1469,-3.1855,-3.1772,-3.1933,-3.2342,-3.2616,-3.2821,-3.3066,-3.372,-3.4235,-3.4518,-3.4396,-3.4238,-3.4015,-3.4393,-3.4111,-3.3501,-3.348,-3.3586,-3.3702,-3.3726,-3.4133,-3.4858,-3.51,-3.528,-3.5452,-3.531,-3.507,-3.4764,-3.4611,-3.4468,-3.4524,-3.4579,-3.4646,-3.4702,-3.498,-3.5146,-3.5091,-3.4924,-3.4802,-3.4802,-3.4802,-3.4747,-3.4702,-3.4635,-3.4579,-3.4524,-3.4468,-3.4468,-3.4468,-3.4468,-3.4468,-3.4468,-3.4468,-3.4468,-3.4468,-3.4244,-3.3974,-3.3625,-3.3363,-3.3022,-3.2784,-3.2669,-3.2737,-3.3012,-3.3342,-3.3681,-3.3974,-3.4255,-3.4468,-3.4468,-3.4468,-3.4468,-3.4468,-3.4468,-3.4468,-3.4468,-3.4468,-3.4468,-3.4468,-3.4468,-3.4468,-3.4468,-3.4468,-3.4468,-3.4468,-3.4468,-3.4468,-3.4468,-3.4468,-3.4468,-3.4468,-3.4468,-3.4468,-3.4413,-3.4414,-3.4218,-3.389,-3.3715,-3.3683,-3.3661,-3.3639,-3.3278,-3.2743,-3.2689,-3.2656,-3.2361,-3.2274,-3.2309,-3.0891,-3.0993,-3.0903,-3.0935,-3.1138,-3.1662,-3.1919,-3.2047,-3.2284,-3.2683,-3.3146,-3.3335,-3.3621,-3.4175,-3.431,-3.461,-3.4736,-3.4564,-3.4166,-3.3755,-3.4085,-3.3886,-3.3314,-3.3665,-3.3817,-3.3806,-3.4468,-3.4959,-3.5307,-3.5758,-3.6023,-3.5936,-3.5654,-3.5424,-3.5179,-3.4898,-3.4612,-3.4646,-3.4869,-3.4991,-3.5047,-3.5257,-3.5423,-3.5423,-3.5423,-3.5412,-3.5356,-3.5368,-3.5202,-3.498,-3.4935,-3.4813,-3.4524,-3.4468,-3.4468,-3.4468,-3.4468,-3.4468,-3.4468,-3.4468,-3.4468,-3.4468,-3.4255,-3.3918,-3.3636,-3.3306,-3.3022,-3.2784,-3.2727,-3.2898,-3.3409,-3.3579,-3.3625,-3.3681,-3.4188,-3.4468,-3.4468,-3.4468,-3.4468,-3.4468,-3.4468,-3.4468,-3.4468,-3.4468,-3.4468,-3.4468,-3.4468,-3.4468,-3.4468,-3.4468,-3.4468,-3.4468,-3.4468,-3.4468,-3.4468,-3.4468,-3.4468,-3.4468,-3.4468,-3.4457,-3.4392,-3.4305,-3.3967,-3.3628,-3.3213,-3.318,-3.3475,-3.3442,-3.3388,-3.3016,-3.3005,-3.2906,-3.2619,-3.2441,-3.2416,-3.1709,-3.1875,-3.169,-3.1763,-3.1974,-3.2166,-3.2358,-3.254,-3.2731,-3.2947,-3.3326,-3.3605,-3.3826,-3.4111,-3.4521,-3.4797,-3.4911,-3.4944,-3.4685,-3.4157,-3.4542,-3.4376,-3.3802,-3.3954,-3.4253,-3.4533,-3.5208,-3.5852,-3.6253,-3.6604,-3.6857,-3.6813,-3.6867,-3.648,-3.5924,-3.5702,-3.5502,-3.518,-3.5202,-3.5257,-3.5312,-3.5522,-3.5687,-3.5687,-3.5895,-3.5895,-3.5687,-3.5312,-3.498,-3.4702,-3.4635,-3.4579,-3.4524,-3.4468,-3.4468,-3.4468,-3.4468,-3.4468,-3.4468,-3.4468,-3.4468,-3.4412,-3.4086,-3.3749,-3.3568,-3.3126,-3.2841,-3.2737,-3.2727,-3.2898,-3.3239,-3.3523,-3.3738,-3.4188,-3.4401,-3.4468,-3.4468,-3.4468,-3.4468,-3.4468,-3.4468,-3.4468,-3.4468,-3.4468,-3.4468,-3.4468,-3.4468,-3.4468,-3.4468,-3.4468,-3.4468,-3.4468,-3.4468,-3.4468,-3.4468,-3.4468,-3.4468,-3.4468,-3.4468,-3.4359,-3.4294,-3.4021,-3.3683,-3.3235,-3.2831,-3.2842,-3.3126,-3.331,-3.3267,-3.3376,-3.3365,-3.3046,-3.2603,-3.2575,-3.2641,-3.2221,-3.2358,-3.2157,-3.2221,-3.2422,-3.2549,-3.2794,-3.3102,-3.3228,-3.3523,-3.3873,-3.4178,-3.4344,-3.4482,-3.4871,-3.5098,-3.5108,-3.5304,-3.4992,-3.4375,-3.4679,-3.4463,-3.3869,-3.4186,-3.4579,-3.5002,-3.5772,-3.6392,-3.6912,-3.7396,-3.7651,-3.7651,-3.7649,-3.7316,-3.6757,-3.6544,-3.623,-3.5759,-3.5803,-3.5768,-3.5666,-3.584,-3.6016,-3.6004,-3.6211,-3.615,-3.5913,-3.5413,-3.5035,-3.4747,-3.4579,-3.4468,-3.4468,-3.4468,-3.4468,-3.4468,-3.4468,-3.4468,-3.4468,-3.4468,-3.4412,-3.43,-3.3907,-3.3579,-3.3409,-3.2955,-3.2727,-3.2669,-3.2851,-3.3012,-3.3296,-3.3636,-3.4019,-3.4412,-3.4468,-3.4468,-3.4468,-3.4468,-3.4468,-3.4468,-3.4468,-3.4468,-3.4468,-3.4468,-3.4468,-3.4468,-3.4468,-3.4468,-3.4468,-3.4468,-3.4468,-3.4468,-3.4468,-3.4468,-3.4468,-3.4468,-3.4468,-3.4468,-3.4468,-3.4338,-3.4163,-3.3704,-3.3365,-3.2645,-3.2164,-3.2558,-3.2863,-3.3113,-3.3179,-3.3376,-3.3714,-3.3568,-3.3287,-3.3082,-3.3091,-3.2504,-3.2485,-3.2485,-3.254,-3.2667,-3.2921,-3.3238,-3.3481,-3.3859,-3.4278,-3.4767,-3.4839,-3.5036,-3.5284,-3.5345,-3.5356,-3.5418,-3.5345,-3.5105,-3.4679,-3.4637,-3.4291,-3.3919,-3.435,-3.4836,-3.54,-3.609,-3.6739,-3.7436,-3.81,-3.844,-3.8447,-3.8146,-3.7736,-3.765,-3.7219,-3.6804,-3.6376,-3.6499,-3.6328,-3.6009,-3.6114,-3.6369,-3.6458,-3.6346,-3.6244,-3.6162,-3.5658,-3.5213,-3.4991,-3.4635,-3.4468,-3.4468,-3.4468,-3.4468,-3.4468,-3.4468,-3.4468,-3.4468,-3.4468,-3.4412,-3.4199,-3.3851,-3.3466,-3.325,-3.2955,-3.2727,-3.2784,-3.3022,-3.3306,-3.3579,-3.3861,-3.4199,-3.4412,-3.4468,-3.4468,-3.4468,-3.4468,-3.4468,-3.4468,-3.4468,-3.4468,-3.4468,-3.4468,-3.4468,-3.4468,-3.4468,-3.4468,-3.4468,-3.4468,-3.4468,-3.4468,-3.4468,-3.4468,-3.4468,-3.4468,-3.4468,-3.4468,-3.4457,-3.436,-3.4043,-3.3562,-3.2885,-3.2208,-3.1888,-3.2293,-3.2621,-3.2882,-3.3383,-3.3919,-3.4105,-3.4135,-3.3999,-3.3712,-3.3412,-3.3593,-3.3491,-3.3481,-3.367,-3.3922,-3.4235,-3.4225,-3.4235,-3.4735,-3.4922,-3.4984,-3.517,-3.5294,-3.5428,-3.5428,-3.5428,-3.5428,-3.5418,-3.5271,-3.5061,-3.491,-3.4671,-3.4426,-3.476,-3.5369,-3.6082,-3.6686,-3.7487,-3.8349,-3.8814,-3.9131,-3.9414,-3.9229,-3.8965,-3.8608,-3.8262,-3.7657,-3.6938,-3.6824,-3.7001,-3.6971,-3.6516,-3.6789,-3.7634,-3.6844,-3.6494,-3.6532,-3.5754,-3.5087,-3.4657,-3.4579,-3.4468,-3.4468,-3.4468,-3.4468,-3.4468,-3.4468,-3.4468,-3.4468,-3.4468,-3.4468,-3.4367,-3.3851,-3.3523,-3.3296,-3.2955,-3.2841,-3.3022,-3.3203,-3.342,-3.3861,-3.403,-3.4255,-3.4412,-3.4468,-3.4468,-3.4468,-3.4468,-3.4468,-3.4468,-3.4468,-3.4468,-3.4468,-3.4468,-3.4468,-3.4468,-3.4468,-3.4468,-3.4468,-3.4468,-3.4468,-3.4468,-3.4468,-3.4468,-3.4468,-3.4468,-3.4468,-3.4468,-3.4446,-3.4447,-3.4054,-3.3628,-3.2754,-3.1924,-3.1903,-3.2196,-3.2534,-3.2881,-3.3582,-3.4255,-3.4475,-3.4504,-3.4232,-3.3963,-3.3683,-3.4033,-3.411,-3.411,-3.4235,-3.4423,-3.4725,-3.4859,-3.4922,-3.5356,-3.5552,-3.5418,-3.5541,-3.5541,-3.5428,-3.5428,-3.5428,-3.5428,-3.5541,-3.5537,-3.5406,-3.536,-3.5051,-3.4843,-3.5009,-3.5619,-3.6569,-3.7054,-3.7909,-3.8864,-3.9356,-3.9661,-3.9884,-3.9861,-3.9628,-3.9337,-3.9035,-3.8551,-3.7941,-3.7711,-3.7686,-3.7467,-3.6913,-3.6996,-3.7546,-3.693,-3.6734,-3.6733,-3.613,-3.5336,-3.4698,-3.4468,-3.4468,-3.4468,-3.4468,-3.4468,-3.4468,-3.4468,-3.4468,-3.4468,-3.4468,-3.4356,-3.4132,-3.3738,-3.3455,-3.3126,-3.2965,-3.3022,-3.3126,-3.342,-3.3759,-3.4041,-3.4199,-3.4356,-3.4468,-3.4468,-3.4468,-3.4468,-3.4468,-3.4468,-3.4468,-3.4468,-3.4468,-3.4468,-3.4468,-3.4468,-3.4468,-3.4468,-3.4468,-3.4468,-3.4468,-3.4468,-3.4468,-3.4468,-3.4468,-3.4468,-3.4468,-3.4468,-3.4468,-3.4294,-3.4294,-3.3967,-3.3474,-3.2792,-3.2119,-3.2046,-3.2159,-3.2627,-3.3098,-3.3648,-3.4266,-3.4567,-3.4696,-3.4517,-3.42,-3.3917,-3.4213,-3.4485,-3.4475,-3.4548,-3.4735,-3.4984,-3.5356,-3.5541,-3.586,-3.5983,-3.5921,-3.5921,-3.5737,-3.5479,-3.5418,-3.5418,-3.549,-3.5737,-3.5747,-3.5654,-3.553,-3.5399,-3.5146,-3.508,-3.5859,-3.6882,-3.7349,-3.8239,-3.9254,-3.9802,-4.0025,-4.0246,-4.0025,-3.9861,-3.9697,-3.9427,-3.9185,-3.8874,-3.8608,-3.8342,-3.7908,-3.7498,-3.7376,-3.7503,-3.7234,-3.6997,-3.6801,-3.6445,-3.5758,-3.4644,-3.4556,-3.4468,-3.4468,-3.4468,-3.4468,-3.4468,-3.4468,-3.4468,-3.4468,-3.4468,-3.4244,-3.3794,-3.3625,-3.3342,-3.3012,-3.3022,-3.3182,-3.342,-3.3805,-3.403,-3.4209,-3.4367,-3.4468,-3.4468,-3.4468,-3.4468,-3.4468,-3.4468,-3.4468,-3.4468,-3.4468,-3.4468,-3.4468,-3.4468,-3.4468,-3.4468,-3.4468,-3.4468,-3.4468,-3.4468,-3.4468,-3.4468,-3.4468,-3.4468,-3.4468,-3.4468,-3.4468,-3.4435,-3.4109,-3.3901,-3.3628,-3.322,-3.2782,-3.2421,-3.2461,-3.2692,-3.3048,-3.3522,-3.3952,-3.434,-3.4751,-3.4842,-3.4742,-3.433,-3.4033,-3.4987,-3.517,-3.517,-3.5479,-3.5983,-3.6361,-3.6361,-3.6239,-3.6545,-3.6473,-3.6279,-3.6034,-3.5849,-3.5767,-3.551,-3.5552,-3.5664,-3.5795,-3.5794,-3.5548,-3.5345,-3.5468,-3.5534,-3.5455,-3.6184,-3.7281,-3.7668,-3.8677,-3.9942,-4.0351,-4.0665,-4.0838,-4.0351,-4.0118,-4.006,-3.9591,-3.9231,-3.9036,-3.8978,-3.8976,-3.8821,-3.8302,-3.8132,-3.8262,-3.7804,-3.7265,-3.6866,-3.6371,-3.5786,-3.5146,-3.4731,-3.4468,-3.4468,-3.4468,-3.4468,-3.4468,-3.4468,-3.4468,-3.4468,-3.43,-3.4076,-3.3851,-3.3579,-3.3239,-3.3239,-3.3193,-3.3477,-3.3759,-3.4041,-3.4199,-3.4367,-3.4468,-3.4468,-3.4468,-3.4468,-3.4468,-3.4468,-3.4468,-3.4468,-3.4468,-3.4468,-3.4468,-3.4468,-3.4468,-3.4468,-3.4468,-3.4468,-3.4468,-3.4468,-3.4468,-3.4468,-3.4468,-3.4468,-3.4468,-3.4468,-3.4446,-3.4447,-3.4371,-3.401,-3.3824,-3.3537,-3.3314,-3.2941,-3.2897,-3.303,-3.3241,-3.339,-3.3736,-3.4094,-3.4512,-3.4886,-3.4824,-3.4675,-3.4348,-3.4119,-3.552,-3.5566,-3.5766,-3.5918,-3.6146,-3.6642,-3.68,-3.6739,-3.6972,-3.6842,-3.636,-3.6173,-3.5802,-3.5334,-3.5496,-3.5538,-3.5384,-3.5562,-3.5795,-3.5852,-3.5727,-3.5804,-3.6018,-3.6093,-3.6702,-3.7771,-3.8129,-3.9096,-4.0028,-4.0604,-4.0838,-4.1127,-4.0525,-4.0305,-4.0363,-3.9849,-3.9721,-3.9802,-3.9638,-3.9463,-3.9073,-3.8834,-3.8342,-3.839,-3.8097,-3.7747,-3.6749,-3.636,-3.5854,-3.5301,-3.4786,-3.4468,-3.4468,-3.4468,-3.4468,-3.4468,-3.4468,-3.4468,-3.4412,-3.4367,-3.4188,-3.3974,-3.3759,-3.3579,-3.3523,-3.3523,-3.3759,-3.403,-3.4199,-3.4367,-3.4468,-3.4468,-3.4468,-3.4468,-3.4468,-3.4468,-3.4468,-3.4468,-3.4468,-3.4468,-3.4468,-3.4468,-3.4468,-3.4468,-3.4468,-3.4468,-3.4468,-3.4468,-3.4468,-3.4468,-3.4468,-3.4468,-3.4468,-3.4468,-3.4468,-3.4413,-3.436,-3.4207,-3.3934,-3.3877,-3.3761,-3.3515,-3.3287,-3.3417,-3.3506,-3.3368,-3.3549,-3.3891,-3.4245,-3.4566,-3.4733,-3.4705,-3.4636,-3.4492,-3.4251,-3.5944,-3.5802,-3.6132,-3.6026,-3.59,-3.6527,-3.6842,-3.6924,-3.7303,-3.7025,-3.6399,-3.6339,-3.5707,-3.4991,-3.5302,-3.5166,-3.5032,-3.5274,-3.5801,-3.606,-3.588,-3.6026,-3.6269,-3.6595,-3.7006,-3.7868,-3.8315,-3.914,-4.0045,-4.0447,-4.0798,-4.1033,-4.0641,-4.0479,-4.0491,-4.0211,-4.006,-4.0396,-4.0326,-3.994,-3.9339,-3.9183,-3.8724,-3.7964,-3.7914,-3.7632,-3.6633,-3.6181,-3.5846,-3.5212,-3.4764,-3.4567,-3.4468,-3.4468,-3.4468,-3.4412,-3.4412,-3.4367,-3.4356,-3.43,-3.4188,-3.4097,-3.3985,-3.3918,-3.3794,-3.3918,-3.403,-3.4199,-3.4367,-3.4468,-3.4468,-3.4468,-3.4468,-3.4468,-3.4468,-3.4468,-3.4468,-3.4468,-3.4468,-3.4468,-3.4468,-3.4468,-3.4468,-3.4468,-3.4468,-3.4468,-3.4468,-3.4468,-3.4468,-3.4468,-3.4468,-3.4468,-3.4468,-3.4468,-3.4468,-3.4457,-3.4392,-3.424,-3.3956,-3.3955,-3.3992,-3.3837,-3.3754,-3.393,-3.3998,-3.3919,-3.393,-3.4263,-3.4526,-3.4659,-3.4567,-3.444,-3.4498,-3.4636,-3.4326,-3.6027,-3.6107,-3.5784,-3.573,-3.5986,-3.6491,-3.6698,-3.6883,-3.7418,-3.7352,-3.6589,-3.6324,-3.5708,-3.5087,-3.469,-3.4937,-3.5258,-3.5536,-3.5707,-3.5822,-3.5725,-3.592,-3.6529,-3.6646,-3.716,-3.7852,-3.8328,-3.9197,-4.0341,-4.0694,-4.0779,-4.0985,-4.0781,-4.0665,-4.0607,-4.0363,-4.0305,-4.0723,-4.0665,-4.0405,-4.0112,-3.9719,-3.9071,-3.7917,-3.7616,-3.6987,-3.6363,-3.5701,-3.5345,-3.5179,-3.4764,-3.4511,-3.4468,-3.4468,-3.4423,-3.4255,-3.4255,-3.4255,-3.4199,-3.3963,-3.3963,-3.3974,-3.3918,-3.3918,-3.3974,-3.4097,-3.4199,-3.4356,-3.4412,-3.4468,-3.4468,-3.4468,-3.4468,-3.4468,-3.4468,-3.4468,-3.4468,-3.4468,-3.4468,-3.4468,-3.4468,-3.4468,-3.4468,-3.4468,-3.4468,-3.4468,-3.4468,-3.4468,-3.4468,-3.4468,-3.4468,-3.4468,-3.4468,-3.4468,-3.4468,-3.4468,-3.4413,-3.4382,-3.4196,-3.4207,-3.4197,-3.4184,-3.4213,-3.4474,-3.4698,-3.4749,-3.4756,-3.4705,-3.4785,-3.4923,-3.4601,-3.4222,-3.4532,-3.4796,-3.4285,-3.6739,-3.6101,-3.6079,-3.5914,-3.5714,-3.6096,-3.6315,-3.6406,-3.6898,-3.6663,-3.6118,-3.5799,-3.5237,-3.4572,-3.4673,-3.5115,-3.5537,-3.5395,-3.5534,-3.5725,-3.5769,-3.6004,-3.6646,-3.67,-3.7223,-3.7719,-3.8095,-3.8807,-4.0202,-4.0427,-4.0643,-4.1019,-4.085,-4.0792,-4.0838,-4.0653,-4.0653,-4.0908,-4.0954,-4.065,-4.0078,-3.9639,-3.8735,-3.7744,-3.7262,-3.666,-3.5505,-3.5435,-3.507,-3.4862,-3.4633,-3.4489,-3.4468,-3.4468,-3.4412,-3.4199,-3.4199,-3.4255,-3.4142,-3.403,-3.4199,-3.4255,-3.4132,-3.4132,-3.4244,-3.4311,-3.4367,-3.4412,-3.4468,-3.4468,-3.4468,-3.4468,-3.4468,-3.4468,-3.4468,-3.4468,-3.4468,-3.4468,-3.4468,-3.4468,-3.4468,-3.4468,-3.4468,-3.4468,-3.4468,-3.4468,-3.4468,-3.4468,-3.4468,-3.4468,-3.4468,-3.4468,-3.4468,-3.4468,-3.4468,-3.4468,-3.4524,-3.4503,-3.4448,-3.4449,-3.4527,-3.4593,-3.4812,-3.5106,-3.5296,-3.5291,-3.4996,-3.4762,-3.4969,-3.5129,-3.4808,-3.4613,-3.4854,-3.4831,-3.44,-3.7223,-3.6056,-3.6271,-3.5878,-3.5233,-3.5594,-3.587,-3.5892,-3.6291,-3.6013,-3.5299,-3.5284,-3.4769,-3.4111,-3.4478,-3.5096,-3.5673,-3.5212,-3.5469,-3.5792,-3.5923,-3.6223,-3.6592,-3.6801,-3.7025,-3.7527,-3.7726,-3.8251,-3.9443,-3.995,-4.0487,-4.0827,-4.0789,-4.0896,-4.1057,-4.0896,-4.1012,-4.1127,-4.1172,-4.0657,-3.9741,-3.9105,-3.825,-3.7185,-3.7394,-3.6714,-3.5325,-3.5124,-3.5059,-3.4807,-3.4555,-3.4468,-3.4468,-3.4468,-3.4367,-3.4209,-3.4311,-3.4255,-3.4199,-3.4255,-3.4311,-3.4412,-3.4468,-3.4468,-3.4468,-3.4468,-3.4468,-3.4468,-3.4468,-3.4468,-3.4468,-3.4468,-3.4468,-3.4468,-3.4468,-3.4468,-3.4468,-3.4468,-3.4468,-3.4468,-3.4468,-3.4468,-3.4468,-3.4468,-3.4468,-3.4468,-3.4468,-3.4468,-3.4468,-3.4468,-3.4468,-3.4468,-3.4468,-3.4468,-3.4468,-3.4468,-3.4579,-3.4669,-3.4703,-3.4736,-3.4869,-3.5024,-3.53,-3.5453,-3.5482,-3.5381,-3.5085,-3.4905,-3.5164,-3.5221,-3.5003,-3.4992,-3.5164,-3.5118,-3.4826,-3.6649,-3.5991,-3.555,-3.5081,-3.4731,-3.5113,-3.5299,-3.54,-3.6049,-3.5947,-3.5157,-3.4948,-3.4561,-3.4103,-3.4138,-3.4404,-3.4722,-3.5168,-3.5412,-3.5668,-3.6007,-3.6332,-3.6646,-3.67,-3.6843,-3.7211,-3.7441,-3.8202,-3.9022,-3.9498,-4.0018,-4.0499,-4.0935,-4.1184,-4.1184,-4.1127,-4.1184,-4.1184,-4.1184,-4.0791,-4.0175,-3.9674,-3.8732,-3.7864,-3.7403,-3.6925,-3.5687,-3.5343,-3.5113,-3.5015,-3.4698,-3.4489,-3.4468,-3.4468,-3.4356,-3.4199,-3.4153,-3.4153,-3.4153,-3.4199,-3.4311,-3.4468,-3.4468,-3.4468,-3.4468,-3.4468,-3.4468,-3.4468,-3.4468,-3.4468,-3.4468,-3.4468,-3.4468,-3.4468,-3.4468,-3.4468,-3.4468,-3.4468,-3.4468,-3.4468,-3.4468,-3.4468,-3.4468,-3.4468,-3.4468,-3.4468,-3.4468,-3.4468,-3.4468,-3.4468,-3.4468,-3.4468,-3.4579,-3.4635,-3.4691,-3.4635,-3.4747,-3.4924,-3.498,-3.498,-3.5146,-3.5257,-3.5412,-3.5564,-3.5572,-3.5568,-3.5324,-3.5249,-3.542,-3.5439,-3.5359,-3.5359,-3.5405,-3.529,-3.5262,-3.6883,-3.62,-3.5865,-3.5344,-3.4868,-3.4977,-3.4998,-3.4918,-3.5331,-3.5309,-3.4851,-3.4491,-3.4062,-3.366,-3.3823,-3.4215,-3.445,-3.5068,-3.5467,-3.5687,-3.6059,-3.6375,-3.6429,-3.6483,-3.6592,-3.6862,-3.7059,-3.7434,-3.8302,-3.9215,-3.9874,-4.0379,-4.0896,-4.1184,-4.1184,-4.1184,-4.1184,-4.1069,-4.0815,-4.0525,-4.0106,-3.9453,-3.8617,-3.7655,-3.7372,-3.6656,-3.5854,-3.5375,-3.5048,-3.4884,-3.4589,-3.4479,-3.4468,-3.4468,-3.4412,-3.4356,-3.4367,-3.4266,-3.4153,-3.4266,-3.4367,-3.4479,-3.4468,-3.4468,-3.4468,-3.4468,-3.4468,-3.4468,-3.4468,-3.4468,-3.4468,-3.4468,-3.4468,-3.4468,-3.4468,-3.4468,-3.4468,-3.4468,-3.4468,-3.4468,-3.4468,-3.4468,-3.4468,-3.4468,-3.4468,-3.4468,-3.4468,-3.4468,-3.4468,-3.4468,-3.4468,-3.4468,-3.4635,-3.4813,-3.4924,-3.498,-3.508,-3.5191,-3.5191,-3.5257,-3.5312,-3.5423,-3.5577,-3.5632,-3.563,-3.5604,-3.5511,-3.564,-3.5875,-3.583,-3.5784,-3.5784,-3.5795,-3.5875,-3.586,-3.6851,-3.6312,-3.6161,-3.5681,-3.5113,-3.5091,-3.4924,-3.4702,-3.4902,-3.4835,-3.4534,-3.4322,-3.3836,-3.3399,-3.3847,-3.4315,-3.4482,-3.5079,-3.5488,-3.5852,-3.6114,-3.6266,-3.632,-3.632,-3.6429,-3.6592,-3.6862,-3.716,-3.7743,-3.867,-3.9621,-4.0222,-4.086,-4.1136,-4.1184,-4.1184,-4.1184,-4.1127,-4.0583,-4.021,-3.986,-3.9001,-3.8271,-3.7634,-3.7155,-3.66,-3.5895,-3.5474,-3.5212,-3.5059,-3.4655,-3.4479,-3.4468,-3.4468,-3.4468,-3.4468,-3.4468,-3.4479,-3.4423,-3.4468,-3.4468,-3.4468,-3.4468,-3.4468,-3.4468,-3.4468,-3.4468,-3.4468,-3.4468,-3.4468,-3.4468,-3.4468,-3.4468,-3.4468,-3.4468,-3.4468,-3.4468,-3.4468,-3.4468,-3.4468,-3.4468,-3.4468,-3.4468,-3.4468,-3.4468,-3.4468,-3.4468,-3.4468,-3.4468,-3.4524,-3.4579,-3.4635,-3.4813,-3.498,-3.5146,-3.5257,-3.5412,-3.5522,-3.5522,-3.5577,-3.5687,-3.5687,-3.5797,-3.5797,-3.5797,-3.585,-3.5888,-3.6077,-3.6254,-3.6117,-3.6036,-3.614,-3.6208,-3.6266,-3.6297,-3.6151,-3.6106,-3.6129,-3.5837,-3.5356,-3.5368,-3.5202,-3.4935,-3.4991,-3.4824,-3.4468,-3.4401,-3.4099,-3.3832,-3.4146,-3.4647,-3.4936,-3.5224,-3.5577,-3.5852,-3.6125,-3.632,-3.6375,-3.6375,-3.6386,-3.6483,-3.67,-3.697,-3.7416,-3.8309,-3.9096,-3.9717,-4.0562,-4.1028,-4.1127,-4.1069,-4.1069,-4.0918,-4.0396,-3.9859,-3.9383,-3.8631,-3.7868,-3.761,-3.7339,-3.7178,-3.7172,-3.6337,-3.5736,-3.5605,-3.4982,-3.4612,-3.4612,-3.459,-3.4579,-3.4635,-3.4635,-3.4702,-3.4813,-3.4646,-3.4524,-3.4524,-3.4524,-3.4635,-3.4635,-3.4524,-3.4524,-3.4524,-3.4524,-3.4468,-3.4468,-3.4468,-3.4468,-3.4468,-3.4468,-3.4468,-3.4468,-3.4468,-3.4468,-3.4468,-3.4468,-3.4468,-3.4468,-3.4468,-3.4468,-3.4468,-3.4468,-3.4468,-3.4524,-3.4579,-3.4747,-3.4802,-3.4991,-3.5157,-3.5368,-3.5467,-3.5687,-3.5797,-3.5797,-3.595,-3.6114,-3.6114,-3.6004,-3.6059,-3.6059,-3.6168,-3.6211,-3.6266,-3.6266,-3.6266,-3.6266,-3.6266,-3.6266,-3.6266,-3.6375,-3.6128,-3.5692,-3.5847,-3.569,-3.5423,-3.5577,-3.5412,-3.5047,-3.4991,-3.4702,-3.4255,-3.4412,-3.4071,-3.3829,-3.4403,-3.4803,-3.49,-3.5432,-3.5763,-3.6114,-3.6375,-3.6538,-3.6538,-3.6592,-3.6646,-3.6754,-3.6754,-3.6808,-3.7214,-3.8115,-3.8777,-3.9435,-4.0084,-4.0538,-4.0695,-4.0769,-4.0641,-4.0419,-3.9941,-3.9336,-3.9023,-3.7896,-3.7143,-3.7159,-3.6869,-3.6527,-3.6247,-3.643,-3.5969,-3.5454,-3.51,-3.4908,-3.4823,-3.4846,-3.4869,-3.4969,-3.4969,-3.508,-3.5091,-3.4869,-3.4579,-3.4802,-3.4913,-3.5024,-3.4969,-3.4913,-3.4813,-3.4758,-3.4579,-3.4468,-3.4468,-3.4468,-3.4468,-3.4468,-3.4468,-3.4468,-3.4524,-3.4579,-3.4579,-3.4635,-3.4579,-3.4468,-3.4468,-3.4468,-3.4468,-3.4468,-3.4468,-3.4524,-3.4579,-3.4691,-3.4924,-3.508,-3.5257,-3.5423,-3.5632,-3.5797,-3.595,-3.6004,-3.6059,-3.6168,-3.6266,-3.6266,-3.6211,-3.6266,-3.6266,-3.6266,-3.6266,-3.6266,-3.6266,-3.6266,-3.6266,-3.6266,-3.6266,-3.6266,-3.6375,-3.5959,-3.5544,-3.5632,-3.5632,-3.5577,-3.584,-3.5632,-3.5202,-3.5102,-3.4702,-3.4142,-3.4524,-3.436,-3.413,-3.4604,-3.5112,-3.523,-3.5595,-3.5982,-3.6277,-3.6538,-3.67,-3.6754,-3.6808,-3.6916,-3.7078,-3.6982,-3.6982,-3.7298,-3.795,-3.8374,-3.8868,-3.9412,-3.9959,-4.0546,-4.0351,-4.0165,-3.9989,-3.9464,-3.8827,-3.8515,-3.7281,-3.6612,-3.6662,-3.6346,-3.6399,-3.629,-3.6443,-3.6204,-3.5714,-3.543,-3.5296,-3.5212,-3.5191,-3.5224,-3.5312,-3.5423,-3.5423,-3.5368,-3.5146,-3.4869,-3.5091,-3.5257,-3.5368,-3.5312,-3.5146,-3.4991,-3.4935,-3.4702,-3.4468,-3.4468,-3.4468,-3.4468,-3.4468,-3.4468,-3.4524,-3.4635,-3.4747,-3.4813,-3.4869,-3.4747,-3.4635,-3.4702,-3.4702,-3.4579,-3.4635,-3.4691,-3.4702,-3.4758,-3.4924,-3.5202,-3.5368,-3.5522,-3.5742,-3.595,-3.6059,-3.6114,-3.6168,-3.6157,-3.6211,-3.6266,-3.6266,-3.6266,-3.6266,-3.6266,-3.6266,-3.6266,-3.6266,-3.6266,-3.6266,-3.6266,-3.6266,-3.6266,-3.6266,-3.6266,-3.5599,-3.5742,-3.5522,-3.5588,-3.5785,-3.6168,-3.5895,-3.5368,-3.5312,-3.4924,-3.4367,-3.498,-3.5024,-3.467,-3.5113,-3.5454,-3.5651,-3.5806,-3.6059,-3.6375,-3.6712,-3.6766,-3.6916,-3.7078,-3.7346,-3.753,-3.7423,-3.737,-3.7501,-3.7996,-3.8142,-3.826,-3.8782,-3.9544,-4.0536,-4.0339,-4.0153,-4.0012,-3.9244,-3.8481,-3.7724,-3.6725,-3.634,-3.6121,-3.5969,-3.6073,-3.6432,-3.6351,-3.6166,-3.604,-3.5701,-3.5565,-3.5501,-3.5457,-3.5434,-3.5478,-3.5478,-3.5588,-3.5753,-3.5533,-3.5423,-3.5368,-3.5478,-3.5478,-3.5368,-3.5213,-3.4991,-3.4991,-3.4702,-3.4524,-3.4468,-3.4468,-3.4468,-3.4524,-3.4524,-3.4635,-3.4813,-3.4869,-3.4924,-3.4924,-3.4924,-3.498,-3.4991,-3.4935,-3.4813,-3.4813,-3.4869,-3.4924,-3.498,-3.5202,-3.5423,-3.5588,-3.5742,-3.595,-3.6114,-3.6211,-3.6266,-3.6266,-3.6266,-3.6266,-3.6266,-3.6266,-3.6266,-3.6266,-3.6266,-3.6266,-3.6266,-3.6266,-3.6266,-3.6266,-3.6266,-3.6266,-3.6266,-3.6266,-3.6266,-3.5588,-3.5522,-3.5643,-3.5687,-3.5852,-3.6168,-3.595,-3.5423,-3.5202,-3.5035,-3.5035,-3.5312,-3.5312,-3.5246,-3.5467,-3.5742,-3.5852,-3.6332,-3.6549,-3.6592,-3.7047,-3.7411,-3.7507,-3.7613,-3.7826,-3.7945,-3.785,-3.7477,-3.7251,-3.7824,-3.786,-3.7842,-3.8243,-3.8942,-3.9442,-3.9406,-3.9105,-3.8885,-3.8057,-3.7212,-3.6962,-3.6286,-3.5757,-3.5588,-3.5638,-3.5964,-3.6296,-3.6145,-3.6127,-3.6132,-3.5791,-3.5712,-3.5647,-3.5578,-3.5753,-3.5895,-3.595,-3.6016,-3.6114,-3.6004,-3.5895,-3.5742,-3.5632,-3.5632,-3.5632,-3.5202,-3.5035,-3.4935,-3.4702,-3.4524,-3.4468,-3.4468,-3.4524,-3.459,-3.4646,-3.4813,-3.4924,-3.4991,-3.4991,-3.4869,-3.4869,-3.498,-3.5047,-3.5213,-3.5146,-3.5202,-3.5301,-3.5257,-3.5257,-3.5467,-3.5687,-3.5797,-3.595,-3.6114,-3.6266,-3.6266,-3.6266,-3.6266,-3.6266,-3.6266,-3.6266,-3.6266,-3.6266,-3.6266,-3.6266,-3.6266,-3.6266,-3.6266,-3.6266,-3.6266,-3.6266,-3.6266,-3.6266,-3.6266,-3.6266,-3.5797,-3.5742,-3.5742,-3.5906,-3.6004,-3.6223,-3.6004,-3.5577,-3.5368,-3.5368,-3.5423,-3.5577,-3.5632,-3.5687,-3.5895,-3.6114,-3.6168,-3.6603,-3.682,-3.6916,-3.7465,-3.7679,-3.7838,-3.8092,-3.8198,-3.825,-3.7998,-3.7625,-3.753,-3.7769,-3.7781,-3.7725,-3.774,-3.8079,-3.8401,-3.8309,-3.824,-3.8034,-3.7405,-3.6691,-3.6353,-3.5927,-3.5434,-3.532,-3.5386,-3.5714,-3.5841,-3.5862,-3.5856,-3.5816,-3.5835,-3.5792,-3.5703,-3.5832,-3.6093,-3.6211,-3.6266,-3.6277,-3.6266,-3.6266,-3.6059,-3.5797,-3.5797,-3.5797,-3.5687,-3.5312,-3.5091,-3.4935,-3.4635,-3.4524,-3.4468,-3.4468,-3.4579,-3.4646,-3.4813,-3.498,-3.5146,-3.5146,-3.5202,-3.5091,-3.5035,-3.5091,-3.5202,-3.5368,-3.5588,-3.5632,-3.5742,-3.5632,-3.5588,-3.5742,-3.5895,-3.6004,-3.6059,-3.6211,-3.6266,-3.6266,-3.6266,-3.6266,-3.6266,-3.6266,-3.6266,-3.6266,-3.6266,-3.6266,-3.6266,-3.6266,-3.6266,-3.6266,-3.632,-3.632,-3.6266,-3.6266,-3.6266,-3.6266,-3.6266,-3.5982,-3.62,-3.5961,-3.6004,-3.6266,-3.6266,-3.6114,-3.5808,-3.5797,-3.5643,-3.5467,-3.6059,-3.6059,-3.5961,-3.644,-3.6603,-3.6712,-3.697,-3.7089,-3.7292,-3.7667,-3.7785,-3.7945,-3.8145,-3.8356,-3.8303,-3.8145,-3.7945,-3.7928,-3.7658,-3.7603,-3.7524,-3.7215,-3.7323,-3.7417,-3.7394,-3.744,-3.7314,-3.6894,-3.6341,-3.6083,-3.577,-3.5491,-3.5332,-3.5323,-3.578,-3.5972,-3.5979,-3.6056,-3.6158,-3.6243,-3.615,-3.6095,-3.6189,-3.6248,-3.6266,-3.6266,-3.6266,-3.6254,-3.6243,-3.6079,-3.5806,-3.5706,-3.5751,-3.5577,-3.5202,-3.4924,-3.4824,-3.4646,-3.4579,-3.4468,-3.4579,-3.4702,-3.4869,-3.5047,-3.5202,-3.5356,-3.5467,-3.5522,-3.5522,-3.5423,-3.5478,-3.5577,-3.5742,-3.5852,-3.595,-3.6004,-3.5961,-3.5961,-3.6016,-3.6168,-3.6157,-3.6211,-3.6266,-3.6266,-3.6266,-3.6266,-3.6266,-3.6266,-3.6266,-3.6266,-3.6266,-3.6266,-3.6266,-3.6266,-3.6266,-3.6266,-3.632,-3.632,-3.632,-3.6375,-3.6429,-3.6429,-3.632,-3.6332,-3.563,-3.5772,-3.6019,-3.6223,-3.6266,-3.6266,-3.6211,-3.6114,-3.5906,-3.584,-3.6059,-3.6223,-3.6223,-3.6223,-3.6538,-3.6688,-3.6928,-3.7143,-3.737,-3.7625,-3.7838,-3.8051,-3.821,-3.8303,-3.8514,-3.8514,-3.8409,-3.8145,-3.7838,-3.7475,-3.7131,-3.6928,-3.6711,-3.6647,-3.6559,-3.6405,-3.6644,-3.6735,-3.6395,-3.6148,-3.6004,-3.5859,-3.558,-3.5413,-3.5511,-3.5963,-3.6167,-3.5923,-3.5967,-3.6305,-3.6215,-3.6039,-3.5856,-3.6128,-3.6266,-3.6266,-3.6266,-3.6254,-3.6208,-3.5944,-3.5748,-3.5649,-3.535,-3.5099,-3.5046,-3.4913,-3.4702,-3.4646,-3.4646,-3.4524,-3.4579,-3.4702,-3.4869,-3.5091,-3.5257,-3.5478,-3.5632,-3.5632,-3.5687,-3.5687,-3.5632,-3.5742,-3.5895,-3.6004,-3.6114,-3.6211,-3.6266,-3.6223,-3.6168,-3.6277,-3.6277,-3.6266,-3.6266,-3.6266,-3.6266,-3.6266,-3.6266,-3.6266,-3.6266,-3.6266,-3.6266,-3.6266,-3.6266,-3.6266,-3.6266,-3.6266,-3.6266,-3.632,-3.6375,-3.6538,-3.6592,-3.6592,-3.6538,-3.6483,-3.644,-3.5285,-3.5384,-3.5607,-3.5795,-3.6002,-3.6185,-3.6266,-3.6266,-3.6059,-3.6114,-3.6266,-3.6266,-3.6266,-3.634,-3.6514,-3.6706,-3.6893,-3.7204,-3.7481,-3.7838,-3.7998,-3.8104,-3.825,-3.8356,-3.8409,-3.8409,-3.8356,-3.8092,-3.7826,-3.7292,-3.6843,-3.6541,-3.632,-3.6211,-3.6159,-3.613,-3.6166,-3.6179,-3.6001,-3.5831,-3.5866,-3.5925,-3.569,-3.5546,-3.577,-3.6005,-3.6191,-3.5835,-3.5902,-3.6147,-3.6084,-3.597,-3.5863,-3.6114,-3.6266,-3.6266,-3.6266,-3.6266,-3.622,-3.6048,-3.5799,-3.5572,-3.5164,-3.4979,-3.4781,-3.4635,-3.4579,-3.4524,-3.4524,-3.4524,-3.4702,-3.4869,-3.5091,-3.5312,-3.5522,-3.5742,-3.5797,-3.5797,-3.5797,-3.5785,-3.5895,-3.5961,-3.6114,-3.6211,-3.6266,-3.6266,-3.6266,-3.6266,-3.6266,-3.6266,-3.6266,-3.6266,-3.6266,-3.6266,-3.6266,-3.6266,-3.6266,-3.6266,-3.6266,-3.6266,-3.6266,-3.6266,-3.6266,-3.6266,-3.6266,-3.632,-3.632,-3.6429,-3.6538,-3.67,-3.6862,-3.697,-3.6862,-3.67,-3.6646,-3.4895,-3.5063,-3.4889,-3.5159,-3.5508,-3.6075,-3.6283,-3.6329,-3.6283,-3.6286,-3.6309,-3.6266,-3.6266,-3.6294,-3.6424,-3.6684,-3.6914,-3.7197,-3.756,-3.7974,-3.8157,-3.8198,-3.8145,-3.8198,-3.8238,-3.808,-3.7974,-3.7986,-3.7773,-3.7292,-3.6808,-3.632,-3.6266,-3.6211,-3.6059,-3.6168,-3.6171,-3.6029,-3.6041,-3.5906,-3.5906,-3.5874,-3.5742,-3.5588,-3.5623,-3.5725,-3.5983,-3.5871,-3.568,-3.5938,-3.6038,-3.5955,-3.5972,-3.6114,-3.6266,-3.6266,-3.6266,-3.6266,-3.6208,-3.6059,-3.5813,-3.5608,-3.5378,-3.5046,-3.477,-3.4568,-3.4524,-3.4524,-3.4579,-3.4691,-3.4869,-3.5146,-3.5368,-3.5577,-3.5785,-3.595,-3.595,-3.595,-3.595,-3.6004,-3.6059,-3.6168,-3.6168,-3.6266,-3.6266,-3.6266,-3.6266,-3.6266,-3.6266,-3.6266,-3.6266,-3.6266,-3.6266,-3.6266,-3.6266,-3.6266,-3.6266,-3.6266,-3.6266,-3.6266,-3.6266,-3.6266,-3.6266,-3.6266,-3.6266,-3.632,-3.6375,-3.6526,-3.6688,-3.6928,-3.7089,-3.7304,-3.7239,-3.7066,-3.6916,-3.4239,-3.4337,-3.4895,-3.519,-3.5352,-3.6039,-3.6367,-3.6367,-3.6367,-3.6363,-3.6329,-3.6297,-3.6266,-3.6294,-3.636,-3.6661,-3.7015,-3.7178,-3.7512,-3.7829,-3.8092,-3.8145,-3.8039,-3.808,-3.808,-3.8027,-3.7921,-3.7773,-3.7453,-3.7131,-3.6862,-3.6375,-3.6266,-3.6211,-3.6168,-3.632,-3.6277,-3.6114,-3.6168,-3.6168,-3.6114,-3.6157,-3.6102,-3.6059,-3.6105,-3.6134,-3.6328,-3.6375,-3.633,-3.6476,-3.6442,-3.6348,-3.6203,-3.6277,-3.6266,-3.6266,-3.6266,-3.6266,-3.6197,-3.6059,-3.5819,-3.5527,-3.5265,-3.5001,-3.4759,-3.4636,-3.4524,-3.4579,-3.4691,-3.4869,-3.5091,-3.5368,-3.5643,-3.5852,-3.6004,-3.6059,-3.6157,-3.6157,-3.6157,-3.6211,-3.6266,-3.6266,-3.6266,-3.6266,-3.6266,-3.6266,-3.6266,-3.6266,-3.6266,-3.6266,-3.6266,-3.6266,-3.6266,-3.6266,-3.6266,-3.6266,-3.6266,-3.6266,-3.6266,-3.6266,-3.6266,-3.6266,-3.632,-3.6266,-3.632,-3.6337,-3.641,-3.6599,-3.6762,-3.7026,-3.7228,-3.7394,-3.7542,-3.7447,-3.7269,-3.3784,-3.3942,-3.4683,-3.5018,-3.5163,-3.5723,-3.6062,-3.6097,-3.6297,-3.6256,-3.6031,-3.6098,-3.621,-3.6248,-3.6349,-3.6673,-3.7062,-3.7159,-3.7536,-3.7841,-3.7974,-3.8027,-3.7974,-3.7974,-3.8027,-3.7974,-3.7974,-3.772,-3.7185,-3.7078,-3.6862,-3.6375,-3.6266,-3.632,-3.6332,-3.6386,-3.6386,-3.6332,-3.6375,-3.6375,-3.632,-3.6266,-3.6266,-3.6266,-3.6335,-3.6386,-3.6432,-3.6481,-3.6481,-3.647,-3.6424,-3.6399,-3.6257,-3.6266,-3.6266,-3.6266,-3.6266,-3.6266,-3.6174,-3.6016,-3.5794,-3.5613,-3.5386,-3.5134,-3.4947,-3.4813,-3.4813,-3.4813,-3.4869,-3.4991,-3.5368,-3.5687,-3.5852,-3.6059,-3.6168,-3.6211,-3.6211,-3.6211,-3.6211,-3.6266,-3.6266,-3.6266,-3.6266,-3.6266,-3.6266,-3.6266,-3.6266,-3.6266,-3.6266,-3.632,-3.632,-3.632,-3.632,-3.632,-3.6266,-3.6266,-3.6266,-3.6266,-3.6266,-3.6266,-3.6266,-3.632,-3.6332,-3.6306,-3.6287,-3.6275,-3.6382,-3.6507,-3.669,-3.6873,-3.7132,-3.7391,-3.7539,-3.7623,-3.7329,-3.3442,-3.3799,-3.4445,-3.471,-3.4843,-3.5337,-3.5624,-3.5695,-3.6072,-3.6143,-3.5897,-3.5958,-3.6089,-3.6251,-3.6395,-3.6743,-3.7062,-3.7175,-3.7524,-3.7853,-3.7962,-3.7974,-3.7974,-3.7974,-3.7974,-3.7933,-3.788,-3.7507,-3.7024,-3.697,-3.6754,-3.6375,-3.632,-3.6332,-3.644,-3.6495,-3.6495,-3.644,-3.6429,-3.6483,-3.6375,-3.6266,-3.6266,-3.6266,-3.6266,-3.6266,-3.6277,-3.6289,-3.6289,-3.6312,-3.6303,-3.6323,-3.63,-3.6266,-3.6266,-3.6266,-3.6266,-3.6266,-3.6243,-3.6231,-3.6057,-3.5884,-3.5554,-3.53,-3.5091,-3.5013,-3.4947,-3.5091,-3.5102,-3.5268,-3.5643,-3.5906,-3.6059,-3.6168,-3.6266,-3.632,-3.632,-3.632,-3.632,-3.632,-3.632,-3.632,-3.6266,-3.6266,-3.6266,-3.6266,-3.6266,-3.6266,-3.632,-3.632,-3.632,-3.632,-3.632,-3.632,-3.632,-3.6266,-3.6266,-3.6266,-3.6266,-3.6266,-3.632,-3.6375,-3.6414,-3.6348,-3.6317,-3.6297,-3.6279,-3.6346,-3.6549,-3.6749,-3.694,-3.7184,-3.7112,-3.7156,-3.7073,-3.3481,-3.3741,-3.4094,-3.4353,-3.4584,-3.5258,-3.5623,-3.5585,-3.5693,-3.5997,-3.6272,-3.6085,-3.6131,-3.6373,-3.6368,-3.6779,-3.7335,-3.7347,-3.7601,-3.7967,-3.7962,-3.7974,-3.7974,-3.7974,-3.7826,-3.7785,-3.7637,-3.7316,-3.6916,-3.6808,-3.6646,-3.6332,-3.6266,-3.6375,-3.6538,-3.6592,-3.6483,-3.6483,-3.6429,-3.6375,-3.6375,-3.6266,-3.6266,-3.6266,-3.6266,-3.6266,-3.6266,-3.6266,-3.6266,-3.6266,-3.6266,-3.6266,-3.6266,-3.6266,-3.6266,-3.6266,-3.6266,-3.6266,-3.6266,-3.6266,-3.6168,-3.6134,-3.5781,-3.5382,-3.5141,-3.4954,-3.512,-3.5522,-3.5599,-3.5677,-3.594,-3.607,-3.6266,-3.6266,-3.6266,-3.632,-3.632,-3.632,-3.6375,-3.6375,-3.6375,-3.632,-3.6266,-3.6266,-3.6266,-3.6266,-3.6266,-3.6266,-3.6266,-3.632,-3.6375,-3.6375,-3.6375,-3.632,-3.6332,-3.6266,-3.6266,-3.6266,-3.6266,-3.6266,-3.632,-3.6538,-3.6541,-3.6382,-3.6379,-3.6331,-3.6307,-3.6162,-3.636,-3.6558,-3.6747,-3.6858,-3.675,-3.6797,-3.6799]},{"header":{"parameterUnit":"m.s-1","parameterCategory":1,"la1":31.0,"la2":29.5877,"lo1":-88.7671,"lo2":-86.6584,"dy":0.0162,"dx":0.0185,"nx":115,"ny":88,"refTime":"2023-07-13T12:00:00:Z","depth":0,"parameterNumber":3,"parameterNumberName":"V-component_of_WINDS"},"data":[0.0,0.0,0.0,0.0,0.0,0.0,0.0,0.0,0.0,0.0,0.0,0.0,0.0,0.0,0.0,0.0,0.0,0.0,0.0,0.0,0.0,0.0,0.0,0.0,0.0,0.0,0.0,0.0,0.0,0.0,0.0,0.0,0.0,0.0,0.0,0.0,0.0,0.0,0.0,0.0,0.0,0.0,0.0,0.0,0.0,0.0,0.0,0.0,0.0,0.0,0.0,0.0,0.0,0.0,0.0,0.0,0.0,0.0,0.0,0.0,0.0,0.0,0.0,0.0,0.0,0.0,0.0,0.0,0.0,0.0,0.0,0.0,0.0,0.0,0.0,0.0,0.0,0.0,0.0,0.0,0.0,0.0,0.0,0.0,0.0,0.0,0.0,0.0,0.0,0.0,0.0,0.0,0.0,0.0,0.0,0.0,0.0,0.0,0.0,0.0,0.0,0.0,0.0,0.0,0.0,0.0,0.0,0.0,0.0,0.0,0.0,0.0,0.0,0.0,0.0,0.0,0.0,0.0,0.0,0.0,0.0,0.0,0.0,0.0,0.0,0.0,0.0,0.0,0.0,0.0,0.0,0.0,0.0,0.0,0.0,0.0,0.0,0.0,0.0,0.0,0.0,0.0,0.0,0.0,0.0,0.0,0.0,0.0,0.0,0.0,0.0,0.0,0.0,0.0,0.0,0.0,0.0,0.0,0.0,0.0,0.0,0.0,0.0,0.0,0.0,0.0,0.0,0.0,0.0,0.0,0.0,0.0,0.0,0.0,0.0,0.0,0.0,0.0,0.0,0.0,0.0,0.0,0.0,0.0,0.0,0.0,0.0,0.0,0.0,0.0,0.0,0.0,0.0,0.0,0.0,0.0,0.0,0.0,0.0,0.0,0.0,0.0,0.0,0.0,0.0,0.0,0.0,0.0,0.0,0.0,0.0,0.0,0.0,0.0,0.0,0.0,0.0,0.0,0.0,0.0,0.0,0.0,0.0,0.0,0.0,0.0,0.0,0.0,0.0,0.0,0.0,0.0,0.0,0.0,0.0,0.0,0.0,0.0,0.0,0.0,0.0,0.0,0.0,0.0,0.0,0.0,0.0,0.0,0.0,0.0,0.0,0.0,0.0,0.0,0.0,0.0,0.0,0.0,0.0,0.0,0.0,0.0,0.0,0.0,0.0,0.0,0.0,0.0,0.0,0.0,0.0,0.0,0.0,0.0,0.0,0.0,0.0,0.0,0.0,0.0,0.0,0.0,0.0,0.0,0.0,0.0,0.0,0.0,0.0,0.0,0.0,0.0,0.0,0.0,0.0,0.0,0.0,0.0,0.0,0.0,0.0,0.0,0.0,0.0,0.0,0.0,0.0,0.0,0.0,0.0,0.0,0.0,0.0,0.0,0.0,0.0,0.0,0.0,0.0,0.0,0.0,0.0,0.0,0.0,0.0,0.0,0.0,0.0,0.0,0.0,0.0,0.0,0.0,0.0,0.0,0.0,0.0,0.0,0.0,0.0,0.0,0.0,0.0,0.0,0.0,0.0,0.0,0.0,0.0,0.0,0.0,0.0,0.0,0.0,0.0,0.0,0.0,0.0,0.0,0.0,0.0,0.0,0.0,0.0,0.0,0.0,0.0,0.0,0.0,0.0,0.0,0.0,0.0,0.0,0.0,0.0,0.0,0.0,0.0,0.0,0.0,0.0,0.0,0.0,0.0,0.0,0.0,0.0,0.0,0.0,0.0,0.0,0.0,0.0,0.0,0.0,0.0,0.0,0.0,0.0,0.0,0.0,0.0,0.0,0.0,0.0,0.0,0.0,0.0,0.0,0.0,0.0,0.0,0.0,0.0,0.0,0.0,0.0,0.0,0.0,0.0,0.0,0.0,0.0,0.0,0.0,0.0,0.0,0.0,0.0,0.0,0.0,0.0,0.0,0.0,0.0,0.0,0.0,0.0,0.0,0.0,0.0,0.0,0.0,0.0,0.0,0.0,0.0,0.0,0.0,0.0,0.0,0.0,0.0,0.0,0.0,0.0,0.0,0.0,0.0,0.0,0.0,0.0,0.0,0.0,0.0,0.0,0.0,0.0,0.0,0.0,0.0,0.0,0.0,0.0,0.0,0.0,0.0,0.0,0.0,0.0,0.0,0.0,0.0,0.0,0.0,0.0,0.0,0.0,0.0,0.0,0.0,0.0,0.0,0.0,0.0,0.0,0.0,0.0,0.0,0.0,0.0,0.0,0.0,0.0,0.0,0.0,0.0,0.0,0.0,0.0,0.0,0.0,0.0,0.0,0.0,0.0,0.0,0.0,0.0,0.0,0.0,0.0,0.0,0.0,0.0,0.0,0.0,0.0,0.0,0.0,0.0,0.0,0.0,0.0,0.0,0.0,0.0,0.0,0.0,0.0,0.0,0.0,0.0,0.0,0.0,0.0,0.0,0.0,0.0,0.0,0.0,0.0,0.0,0.0,0.0,0.0,0.0,0.0,0.0,0.0,0.0,0.0,0.0,0.0,0.0,0.0,0.0,0.0,0.0,0.0,0.0,0.0,0.0,0.0,0.0,0.0,0.0,0.0,0.0,0.0,0.0,0.0,0.0,0.0,0.0,0.0,0.0,0.0,0.0,0.0,0.0,0.0,0.0,0.0,0.0,0.0,0.0,0.0,0.0,0.0,0.0,0.0,0.0,0.0,0.0,0.0,0.0,0.0,0.0,0.0,0.0,0.0,0.0,0.0,0.0,0.0,0.0,0.0,0.0,0.0,0.0,0.0,0.0,0.0,0.0,0.0,0.0,0.0,0.0,0.0,0.0,0.0,0.0,0.0,0.0,0.0,0.0,0.0,0.0,0.0,0.0,0.0,0.0,0.0,0.0,0.0,0.0,0.0,0.0,0.0,0.0,0.0,0.0,0.0,0.0,0.0,0.0,0.0,0.0,0.0,0.0,0.0,0.0,0.0,0.0,0.0,0.0,0.0,0.0,0.0,0.0,0.0,0.0,0.0,0.0,0.0,0.0,0.0,0.0,0.0,0.0,0.0,0.0,0.0,0.0,0.0,0.0,0.0,0.0,0.0,0.0,0.0,0.0,0.0,0.0,0.0,0.0,0.0,0.0,0.0,0.0,0.0,0.0,0.0,0.0,0.0,0.0,0.0,0.0,0.0,0.0,0.0,0.0,0.0,0.0,0.0,0.0,0.0,0.0,0.0,0.0,0.0,0.0,0.0,0.0,0.0,0.0,0.0,0.0,0.0,0.0,0.0,0.0,0.0,0.0,0.0,0.0,0.0,0.0,0.0,0.0,0.0,0.0,0.0,0.0,0.0,0.0,0.0,0.0,0.0,0.0,0.0,0.0,0.0,0.0,0.0,0.0,0.0,0.0,0.0,0.0,0.0,0.0,0.0,0.0,0.0,0.0,0.0,0.0,0.0,0.0,0.0,0.0,0.0,0.0,0.0,0.0,0.0,0.0,0.0,0.0,0.0,0.0,0.0,0.0,0.0,0.0,0.0,0.0,0.0,0.0,0.0,0.0,0.0,0.0,0.0,0.0,0.0,0.0,0.0,0.0,0.0,0.0,0.0,0.0,0.0,0.0,0.0,0.0,0.0,0.0,0.0,0.0,0.0,0.0,0.0,0.0,0.0,0.0,0.0,0.0,0.0,0.0,0.0,0.0,0.0,0.0,0.0,0.0,0.0,0.0,0.0,0.0,0.0,0.0,0.0,0.0,0.0,0.0,0.0,0.0,0.0,0.0,0.0,0.0,0.0,0.0,0.0,0.0,0.0,0.0,0.0,0.0,0.0,0.0,0.0,0.0,0.0,0.0,0.0,0.0,0.0,0.0,0.0,0.0,0.0,0.0,0.0,0.0,0.0,0.0,0.0,0.0,0.0,0.0,0.0,0.0,0.0,0.0,0.0,0.0,0.0,0.0,0.0,0.0,0.0,0.0,0.0,0.0,0.0,0.0,0.0,0.0,0.0,0.0,0.0,0.0,0.0,0.0,0.0,0.0,0.0,0.0,0.0,0.0,0.0,0.0,0.0,0.0,0.0,0.0,0.0,0.0,0.0,0.0,0.0,0.0,0.0,0.0,0.0,0.0,0.0,0.0,0.0,0.0,0.0,0.0,0.0,0.0,0.0,0.0,0.0,0.0,0.0,0.0,0.0,0.0,0.0,0.0,0.0,0.0,0.0,0.0,0.0,0.0,0.0,0.0,0.0,0.0,0.0,0.0,0.0,0.0,0.0,0.0,0.0,0.0,0.0,0.0,0.0,0.0,0.0,0.0,0.0,0.0,-1.1963,0.0,0.0,0.0,0.0,0.0,0.0,0.0,0.0,0.0,0.0,0.0,0.0,0.0,0.0,0.0,0.0,0.0,0.0,0.0,0.0,0.0,0.0,0.0,0.0,0.0,0.0,0.0,0.0,0.0,0.0,0.0,0.0,0.0,0.0,0.0,0.0,0.0,0.0,0.0,0.0,0.0,0.0,0.0,0.0,0.0,0.0,0.0,0.0,0.0,0.0,0.0,0.0,0.0,0.0,0.0,0.0,0.0,0.0,0.0,0.0,0.0,0.0,0.0,0.0,0.0,0.0,0.0,0.0,0.0,0.0,0.0,0.0,0.0,0.0,0.0,0.0,0.0,0.0,0.0,0.0,0.0,0.0,0.0,0.0,0.0,0.0,0.0,0.0,0.0,0.0,0.0,0.0,0.0,0.0,0.0,0.0,0.0,0.0,0.0,0.0,0.0,0.0,0.0,0.0,0.0,0.0,0.0,0.0,0.0,0.0,-1.1943,-1.2383,-1.1007,-1.0925,-1.234,0.0,0.0,0.0,0.0,0.0,0.0,0.0,0.0,0.0,0.0,0.0,0.0,0.0,0.0,0.0,0.0,0.0,0.0,0.0,0.0,0.0,0.0,0.0,0.0,0.0,0.0,0.0,0.0,0.0,0.0,0.0,0.0,0.0,0.0,0.0,0.0,0.0,0.0,0.0,0.0,0.0,0.0,0.0,0.0,0.0,0.0,0.0,0.0,0.0,0.0,0.0,0.0,0.0,0.0,0.0,0.0,0.0,0.0,0.0,0.0,0.0,0.0,0.0,0.0,0.0,0.0,0.0,0.0,0.0,0.0,0.0,0.0,0.0,0.0,0.0,0.0,0.0,0.0,0.0,0.0,0.0,0.0,0.0,0.0,0.0,0.0,0.0,0.0,0.0,0.0,0.0,0.0,0.0,0.0,0.0,0.0,0.0,0.0,0.0,0.0,0.0,0.0,0.0,0.0,0.0,0.0,0.0,0.0,0.0,0.0,0.0,0.0,-1.1805,-1.1652,-1.3147,0.0,0.0,0.0,0.0,0.0,0.0,0.0,0.0,0.0,0.0,0.0,0.0,0.0,0.0,0.0,0.0,0.0,0.0,0.0,0.0,0.0,0.0,0.0,0.0,0.0,0.0,0.0,0.0,0.0,0.0,0.0,0.0,0.0,0.0,0.0,0.0,0.0,0.0,0.0,0.0,0.0,0.0,0.0,0.0,0.0,0.0,0.0,0.0,0.0,0.0,0.0,0.0,0.0,0.0,0.0,0.0,0.0,0.0,0.0,0.0,0.0,0.0,0.0,0.0,0.0,0.0,0.0,0.0,0.0,0.0,0.0,0.0,0.0,0.0,0.0,0.0,0.0,0.0,0.0,0.0,0.0,0.0,0.0,0.0,0.0,0.0,0.0,0.0,0.0,0.0,0.0,0.0,0.0,0.0,0.0,0.0,0.0,0.0,0.0,0.0,0.0,0.0,0.0,0.0,0.0,0.0,0.0,0.0,0.0,0.0,-1.4251,-1.5544,-1.4935,0.0,-1.4837,0.0,0.0,0.0,0.0,0.0,0.0,0.0,0.0,0.0,0.0,0.0,0.0,0.0,0.0,0.0,0.0,0.0,0.0,0.0,0.0,0.0,0.0,0.0,0.0,0.0,0.0,0.0,0.0,0.0,0.0,0.0,0.0,0.0,0.0,0.0,0.0,0.0,0.0,0.0,0.0,0.0,0.0,0.0,0.0,0.0,0.0,0.0,0.0,0.0,0.0,0.0,0.0,0.0,0.0,0.0,0.0,0.0,0.0,0.0,0.0,0.0,0.0,0.0,0.0,0.0,0.0,0.0,0.0,0.0,0.0,0.0,0.0,0.0,0.0,0.0,0.0,0.0,0.0,0.0,0.0,0.0,0.0,0.0,0.0,0.0,0.0,0.0,0.0,0.0,0.0,0.0,0.0,0.0,0.0,0.0,0.0,0.0,0.0,0.0,0.0,0.0,0.0,0.0,0.0,0.0,0.0,0.0,0.0,0.0,0.0,-1.497,-1.5542,-1.5258,-1.512,0.0,0.0,0.0,0.0,0.0,0.0,0.0,0.0,0.0,0.0,0.0,0.0,0.0,0.0,0.0,0.0,0.0,0.0,0.0,0.0,0.0,0.0,0.0,0.0,0.0,0.0,0.0,0.0,0.0,0.0,0.0,0.0,0.0,0.0,0.0,0.0,0.0,0.0,0.0,0.0,0.0,0.0,0.0,0.0,0.0,0.0,0.0,0.0,0.0,0.0,0.0,0.0,0.0,0.0,0.0,0.0,0.0,0.0,0.0,0.0,0.0,0.0,0.0,0.0,0.0,0.0,0.0,0.0,0.0,0.0,0.0,0.0,0.0,0.0,0.0,0.0,0.0,0.0,0.0,0.0,0.0,0.0,0.0,0.0,0.0,0.0,0.0,0.0,0.0,0.0,0.0,0.0,0.0,0.0,0.0,0.0,0.0,0.0,0.0,0.0,0.0,0.0,0.0,0.0,0.0,0.0,0.0,0.0,0.0,0.0,-1.5938,-1.5914,-1.6131,-1.5541,-1.5365,-1.5697,0.0,0.0,0.0,0.0,0.0,0.0,0.0,0.0,0.0,0.0,0.0,0.0,0.0,0.0,0.0,0.0,0.0,0.0,0.0,0.0,0.0,0.0,0.0,0.0,0.0,0.0,0.0,0.0,0.0,0.0,0.0,0.0,0.0,0.0,0.0,0.0,0.0,0.0,0.0,0.0,0.0,0.0,0.0,0.0,0.0,0.0,0.0,0.0,0.0,0.0,0.0,0.0,0.0,0.0,0.0,0.0,0.0,0.0,0.0,0.0,0.0,0.0,0.0,0.0,0.0,0.0,0.0,0.0,0.0,0.0,0.0,0.0,0.0,0.0,0.0,0.0,0.0,0.0,0.0,0.0,0.0,0.0,0.0,0.0,0.0,0.0,0.0,0.0,0.0,0.0,0.0,0.0,0.0,0.0,0.0,0.0,0.0,0.0,0.0,0.0,0.0,0.0,0.0,0.0,0.0,0.0,0.0,0.0,-1.9093,-1.7853,-1.748,-1.8178,-1.6485,-1.5877,0.0,0.0,0.0,0.0,0.0,0.0,0.0,0.0,0.0,0.0,0.0,0.0,0.0,0.0,0.0,0.0,0.0,0.0,0.0,0.0,0.0,0.0,0.0,0.0,0.0,0.0,0.0,0.0,0.0,0.0,0.0,0.0,0.0,0.0,0.0,0.0,0.0,0.0,0.0,0.0,0.0,0.0,0.0,0.0,0.0,0.0,0.0,0.0,0.0,0.0,0.0,0.0,0.0,0.0,0.0,0.0,0.0,0.0,0.0,0.0,0.0,0.0,0.0,0.0,0.0,0.0,0.0,0.0,0.0,0.0,0.0,0.0,0.0,0.0,0.0,0.0,0.0,0.0,0.0,0.0,0.0,0.0,0.0,0.0,0.0,0.0,0.0,0.0,0.0,0.0,0.0,0.0,0.0,0.0,0.0,0.0,0.0,0.0,0.0,0.0,0.0,0.0,0.0,0.0,0.0,0.0,0.0,0.0,0.0,-1.8127,-1.8516,-1.8836,-1.9032,-1.868,-1.8228,0.0,0.0,0.0,0.0,0.0,0.0,0.0,0.0,0.0,0.0,0.0,0.0,0.0,0.0,0.0,0.0,0.0,0.0,0.0,0.0,0.0,0.0,0.0,0.0,0.0,0.0,0.0,0.0,0.0,0.0,0.0,0.0,0.0,0.0,0.0,0.0,0.0,0.0,0.0,0.0,0.0,0.0,0.0,0.0,0.0,0.0,0.0,0.0,0.0,0.0,0.0,0.0,0.0,0.0,0.0,0.0,0.0,0.0,0.0,0.0,0.0,0.0,0.0,0.0,0.0,0.0,0.0,0.0,0.0,0.0,0.0,0.0,0.0,0.0,0.0,0.0,0.0,0.0,0.0,0.0,0.0,0.0,0.0,0.0,0.0,0.0,0.0,0.0,0.0,0.0,0.0,0.0,0.0,0.0,0.0,0.0,0.0,0.0,0.0,0.0,0.0,0.0,0.0,0.0,0.0,0.0,0.0,0.0,0.0,-1.8203,0.0,-1.9875,-1.9735,-1.9952,-1.9488,0.0,0.0,0.0,0.0,0.0,0.0,0.0,0.0,0.0,0.0,0.0,0.0,0.0,0.0,0.0,0.0,0.0,0.0,0.0,0.0,0.0,0.0,0.0,0.0,0.0,0.0,0.0,0.0,0.0,0.0,0.0,0.0,0.0,0.0,0.0,0.0,0.0,0.0,0.0,0.0,0.0,0.0,0.0,0.0,0.0,0.0,0.0,0.0,0.0,0.0,0.0,0.0,0.0,0.0,0.0,0.0,0.0,0.0,0.0,0.0,0.0,0.0,0.0,0.0,0.0,0.0,0.0,0.0,0.0,0.0,0.0,0.0,0.0,0.0,0.0,0.0,0.0,0.0,0.0,0.0,0.0,0.0,0.0,0.0,0.0,0.0,0.0,0.0,0.0,0.0,0.0,0.0,0.0,0.0,0.0,0.0,0.0,0.0,0.0,0.0,0.0,0.0,0.0,0.0,0.0,0.0,0.0,0.0,-1.8765,-1.9761,-2.0321,-2.0573,-2.0434,-2.01,-1.9572,0.0,0.0,0.0,0.0,0.0,0.0,0.0,0.0,0.0,0.0,0.0,0.0,0.0,0.0,0.0,0.0,0.0,0.0,0.0,0.0,0.0,0.0,0.0,0.0,0.0,0.0,0.0,0.0,0.0,0.0,0.0,0.0,0.0,0.0,0.0,0.0,0.0,0.0,0.0,0.0,0.0,0.0,0.0,0.0,0.0,0.0,0.0,0.0,0.0,0.0,0.0,0.0,0.0,0.0,0.0,0.0,0.0,0.0,0.0,0.0,0.0,0.0,0.0,0.0,0.0,0.0,0.0,0.0,0.0,0.0,0.0,0.0,0.0,0.0,0.0,0.0,0.0,0.0,0.0,0.0,0.0,0.0,0.0,0.0,0.0,0.0,0.0,0.0,0.0,0.0,0.0,0.0,0.0,0.0,0.0,0.0,0.0,0.0,0.0,0.0,0.0,0.0,0.0,0.0,0.0,0.0,0.0,0.0,0.0,-2.0359,-2.0871,-2.1555,-2.2331,-2.1786,-2.1424,0.0,0.0,0.0,0.0,0.0,0.0,0.0,0.0,0.0,0.0,0.0,0.0,0.0,0.0,0.0,0.0,0.0,0.0,0.0,0.0,0.0,0.0,0.0,0.0,0.0,0.0,0.0,0.0,0.0,0.0,0.0,0.0,0.0,0.0,0.0,0.0,0.0,0.0,0.0,0.0,0.0,0.0,0.0,0.0,0.0,0.0,0.0,0.0,0.0,0.0,0.0,0.0,0.0,0.0,0.0,0.0,0.0,0.0,0.0,0.0,0.0,0.0,0.0,0.0,0.0,0.0,0.0,0.0,0.0,0.0,0.0,0.0,0.0,0.0,0.0,0.0,0.0,0.0,0.0,0.0,0.0,0.0,0.0,0.0,0.0,0.0,0.0,0.0,0.0,0.0,0.0,0.0,0.0,0.0,0.0,0.0,0.0,0.0,0.0,0.0,0.0,0.0,0.0,0.0,0.0,0.0,0.0,0.0,0.0,-2.2453,-2.2589,-2.3003,-2.3729,-2.3364,-2.3063,-2.2787,0.0,0.0,0.0,0.0,0.0,0.0,0.0,0.0,0.0,0.0,0.0,0.0,0.0,0.0,0.0,0.0,0.0,0.0,0.0,0.0,0.0,0.0,0.0,0.0,0.0,0.0,0.0,0.0,0.0,0.0,0.0,0.0,0.0,0.0,0.0,0.0,0.0,0.0,0.0,0.0,0.0,0.0,0.0,0.0,0.0,0.0,0.0,0.0,0.0,0.0,0.0,0.0,0.0,0.0,0.0,0.0,0.0,0.0,0.0,0.0,0.0,0.0,0.0,0.0,0.0,0.0,0.0,0.0,0.0,0.0,0.0,0.0,0.0,0.0,0.0,0.0,0.0,0.0,0.0,0.0,0.0,0.0,0.0,0.0,0.0,0.0,0.0,0.0,0.0,0.0,0.0,0.0,0.0,0.0,0.0,0.0,0.0,0.0,0.0,0.0,0.0,0.0,0.0,0.0,0.0,0.0,0.0,0.0,-2.5627,-2.5316,-2.51,-2.4941,-2.4959,-2.4553,0.0,0.0,0.0,0.0,0.0,0.0,0.0,0.0,0.0,0.0,0.0,0.0,0.0,0.0,0.0,0.0,0.0,0.0,0.0,0.0,0.0,0.0,0.0,0.0,0.0,0.0,0.0,0.0,0.0,0.0,0.0,0.0,0.0,0.0,0.0,0.0,0.0,0.0,0.0,0.0,0.0,0.0,0.0,0.0,0.0,0.0,0.0,0.0,0.0,0.0,0.0,0.0,0.0,0.0,0.0,0.0,0.0,0.0,0.0,0.0,0.0,0.0,0.0,0.0,0.0,0.0,0.0,0.0,0.0,0.0,0.0,0.0,0.0,0.0,0.0,0.0,0.0,0.0,0.0,0.0,0.0,0.0,0.0,0.0,0.0,0.0,0.0,0.0,0.0,0.0,0.0,0.0,0.0,0.0,0.0,0.0,0.0,0.0,0.0,0.0,0.0,0.0,0.0,0.0,0.0,0.0,0.0,0.0,0.0,-2.7234,-2.869,-2.9362,-2.9184,-2.7744,-2.7056,0.0,0.0,0.0,0.0,0.0,0.0,0.0,0.0,0.0,0.0,0.0,0.0,0.0,0.0,0.0,0.0,0.0,0.0,0.0,0.0,0.0,0.0,0.0,0.0,0.0,0.0,0.0,0.0,0.0,0.0,0.0,0.0,0.0,0.0,0.0,0.0,0.0,0.0,0.0,0.0,0.0,0.0,0.0,0.0,0.0,0.0,0.0,0.0,0.0,0.0,0.0,0.0,0.0,0.0,0.0,0.0,0.0,0.0,0.0,0.0,0.0,0.0,0.0,0.0,0.0,0.0,0.0,0.0,0.0,0.0,0.0,0.0,0.0,0.0,0.0,0.0,0.0,0.0,0.0,0.0,0.0,0.0,0.0,0.0,0.0,0.0,0.0,0.0,0.0,0.0,0.0,0.0,0.0,0.0,0.0,0.0,0.0,0.0,0.0,0.0,0.0,0.0,0.0,0.0,0.0,0.0,0.0,0.0,-2.8751,-2.8787,-3.1705,-3.3271,-3.3296,-3.1601,-2.9942,0.0,0.0,0.0,0.0,0.0,0.0,0.0,0.0,0.0,0.0,0.0,0.0,0.0,0.0,0.0,0.0,0.0,0.0,0.0,0.0,0.0,0.0,0.0,0.0,0.0,0.0,0.0,0.0,0.0,0.0,0.0,0.0,0.0,0.0,0.0,0.0,0.0,0.0,0.0,0.0,0.0,0.0,0.0,0.0,0.0,0.0,0.0,0.0,0.0,0.0,0.0,0.0,0.0,0.0,0.0,0.0,0.0,0.0,0.0,0.0,0.0,0.0,0.0,0.0,0.0,0.0,0.0,0.0,0.0,0.0,0.0,0.0,0.0,0.0,0.0,0.0,0.0,0.0,0.0,0.0,0.0,0.0,0.0,0.0,0.0,0.0,0.0,0.0,0.0,0.0,0.0,0.0,0.0,0.0,0.0,0.0,0.0,0.0,0.0,0.0,0.0,0.0,0.0,0.0,0.0,0.0,0.0,0.0,-3.086,-3.0622,-3.4416,-3.6569,-3.6794,-3.5511,-3.2811,0.0,0.0,0.0,0.0,0.0,0.0,0.0,0.0,0.0,0.0,0.0,0.0,0.0,0.0,0.0,0.0,0.0,0.0,0.0,0.0,0.0,0.0,0.0,0.0,0.0,0.0,0.0,0.0,0.0,0.0,0.0,0.0,0.0,0.0,0.0,0.0,0.0,0.0,0.0,0.0,0.0,0.0,0.0,0.0,0.0,0.0,0.0,0.0,0.0,0.0,0.0,0.0,0.0,0.0,0.0,0.0,0.0,0.0,0.0,0.0,0.0,0.0,0.0,0.0,0.0,0.0,0.0,0.0,0.0,0.0,0.0,0.0,0.0,0.0,0.0,0.0,0.0,0.0,0.0,0.0,0.0,0.0,0.0,0.0,0.0,0.0,0.0,0.0,0.0,0.0,0.0,0.0,0.0,0.0,0.0,0.0,0.0,0.0,0.0,0.0,0.0,0.0,0.0,0.0,0.0,0.0,0.0,0.0,-3.1435,-3.3551,-3.6638,-3.8332,-3.8464,-3.5927,-3.3636,0.0,0.0,0.0,0.0,0.0,0.0,0.0,0.0,0.0,0.0,0.0,0.0,0.0,0.0,0.0,0.0,0.0,0.0,0.0,0.0,0.0,0.0,0.0,0.0,0.0,0.0,0.0,0.0,0.0,0.0,0.0,0.0,0.0,0.0,0.0,0.0,0.0,0.0,0.0,0.0,0.0,0.0,0.0,0.0,0.0,0.0,0.0,0.0,-1.8669,0.0,0.0,0.0,0.0,0.0,0.0,0.0,0.0,0.0,0.0,0.0,0.0,0.0,0.0,0.0,0.0,0.0,0.0,0.0,0.0,0.0,0.0,0.0,0.0,0.0,0.0,0.0,0.0,0.0,0.0,0.0,0.0,0.0,0.0,0.0,0.0,0.0,0.0,0.0,0.0,0.0,0.0,0.0,0.0,0.0,0.0,0.0,0.0,0.0,0.0,0.0,0.0,0.0,0.0,0.0,0.0,0.0,0.0,0.0,-3.2516,-3.5111,-3.823,-3.9919,-3.993,-3.819,-3.6137,0.0,0.0,0.0,0.0,0.0,0.0,0.0,0.0,0.0,0.0,0.0,0.0,0.0,0.0,0.0,0.0,0.0,0.0,0.0,0.0,0.0,0.0,0.0,0.0,0.0,0.0,0.0,0.0,0.0,0.0,0.0,0.0,0.0,0.0,0.0,0.0,0.0,0.0,0.0,0.0,0.0,0.0,0.0,0.0,0.0,0.0,0.0,0.0,0.0,0.0,0.0,0.0,0.0,0.0,0.0,0.0,0.0,0.0,0.0,0.0,0.0,0.0,0.0,0.0,0.0,0.0,0.0,0.0,0.0,0.0,0.0,0.0,0.0,0.0,0.0,0.0,0.0,0.0,0.0,0.0,0.0,0.0,0.0,0.0,0.0,0.0,0.0,0.0,0.0,0.0,0.0,0.0,0.0,0.0,0.0,0.0,0.0,0.0,0.0,0.0,0.0,0.0,0.0,0.0,0.0,0.0,0.0,-3.2418,-3.4073,-3.6654,-3.972,-4.1372,-4.1452,-4.0645,-3.8785,-3.5835,0.0,0.0,0.0,0.0,0.0,0.0,0.0,0.0,0.0,0.0,0.0,0.0,0.0,0.0,0.0,0.0,0.0,0.0,0.0,0.0,0.0,0.0,0.0,0.0,0.0,0.0,0.0,0.0,0.0,0.0,0.0,0.0,0.0,0.0,0.0,0.0,0.0,0.0,-1.7076,-1.7238,0.0,0.0,0.0,0.0,0.0,0.0,0.0,0.0,-1.9089,0.0,0.0,0.0,0.0,0.0,0.0,0.0,0.0,0.0,0.0,0.0,0.0,0.0,0.0,0.0,0.0,0.0,0.0,0.0,0.0,0.0,0.0,0.0,0.0,0.0,0.0,0.0,0.0,0.0,0.0,0.0,0.0,0.0,0.0,0.0,0.0,0.0,0.0,0.0,0.0,0.0,0.0,0.0,0.0,0.0,0.0,0.0,0.0,0.0,0.0,0.0,0.0,0.0,0.0,0.0,0.0,-3.442,-3.4354,-3.6282,-4.0371,-4.1686,-4.2653,-4.317,-4.0889,-3.935,-3.8699,0.0,0.0,0.0,0.0,0.0,0.0,0.0,0.0,0.0,0.0,0.0,0.0,0.0,0.0,0.0,0.0,0.0,0.0,0.0,0.0,0.0,0.0,0.0,0.0,0.0,0.0,0.0,0.0,0.0,0.0,0.0,0.0,0.0,0.0,0.0,0.0,0.0,0.0,0.0,-1.8557,-1.868,0.0,0.0,0.0,0.0,0.0,0.0,0.0,0.0,-2.1339,0.0,0.0,0.0,0.0,0.0,0.0,0.0,0.0,0.0,0.0,0.0,0.0,0.0,0.0,0.0,0.0,0.0,0.0,0.0,0.0,0.0,0.0,0.0,0.0,0.0,0.0,0.0,0.0,0.0,0.0,0.0,0.0,0.0,0.0,0.0,0.0,0.0,0.0,0.0,0.0,0.0,0.0,0.0,0.0,0.0,0.0,0.0,0.0,0.0,0.0,0.0,0.0,0.0,0.0,0.0,-3.5299,-3.4854,-3.6578,-4.078,-4.2114,-4.331,-4.4398,-4.1325,-3.9812,0.0,0.0,0.0,0.0,0.0,0.0,0.0,0.0,0.0,0.0,0.0,0.0,0.0,0.0,0.0,0.0,0.0,0.0,0.0,0.0,0.0,0.0,0.0,0.0,0.0,0.0,0.0,0.0,0.0,0.0,0.0,0.0,0.0,0.0,0.0,0.0,0.0,0.0,0.0,0.0,-2.0293,-2.0803,-2.262,0.0,0.0,0.0,0.0,0.0,0.0,-2.2986,-2.2697,0.0,0.0,0.0,0.0,0.0,0.0,0.0,0.0,0.0,0.0,0.0,0.0,0.0,0.0,0.0,0.0,0.0,0.0,0.0,0.0,0.0,0.0,0.0,0.0,0.0,0.0,0.0,0.0,0.0,0.0,0.0,0.0,0.0,0.0,0.0,0.0,0.0,0.0,0.0,0.0,0.0,0.0,0.0,0.0,0.0,0.0,0.0,0.0,0.0,0.0,0.0,0.0,0.0,0.0,0.0,-3.5797,-3.532,-3.6746,-4.0367,-4.1973,-4.348,-4.4947,-4.1455,-3.9875,0.0,0.0,0.0,0.0,0.0,0.0,0.0,0.0,0.0,0.0,0.0,0.0,0.0,0.0,0.0,0.0,0.0,0.0,0.0,0.0,0.0,0.0,0.0,0.0,0.0,0.0,0.0,0.0,0.0,0.0,0.0,0.0,0.0,0.0,0.0,0.0,0.0,0.0,0.0,0.0,0.0,-2.2813,-2.5044,-2.3856,0.0,0.0,0.0,0.0,-2.3902,-2.4164,0.0,0.0,0.0,0.0,0.0,0.0,0.0,0.0,0.0,0.0,0.0,0.0,0.0,0.0,0.0,0.0,0.0,0.0,0.0,0.0,0.0,0.0,0.0,0.0,0.0,0.0,0.0,0.0,0.0,0.0,0.0,0.0,0.0,0.0,0.0,0.0,0.0,0.0,0.0,0.0,0.0,0.0,0.0,0.0,0.0,0.0,0.0,0.0,0.0,0.0,0.0,0.0,0.0,0.0,0.0,0.0,-3.5948,-3.6772,-3.8233,-4.0429,-4.1559,-4.2804,-4.4227,-4.0704,-3.9068,0.0,0.0,0.0,0.0,0.0,0.0,0.0,0.0,0.0,0.0,0.0,0.0,0.0,0.0,0.0,0.0,0.0,0.0,0.0,0.0,0.0,0.0,0.0,0.0,0.0,0.0,0.0,0.0,0.0,0.0,0.0,0.0,0.0,0.0,0.0,0.0,0.0,0.0,0.0,0.0,0.0,-2.342,-2.568,-2.4879,-2.3902,0.0,0.0,-2.6318,-2.6242,-2.7249,0.0,0.0,0.0,0.0,0.0,0.0,0.0,0.0,0.0,0.0,0.0,0.0,0.0,0.0,0.0,0.0,0.0,0.0,0.0,0.0,0.0,0.0,0.0,0.0,0.0,0.0,0.0,0.0,0.0,0.0,0.0,0.0,0.0,0.0,0.0,0.0,0.0,0.0,0.0,0.0,0.0,0.0,0.0,0.0,0.0,0.0,0.0,0.0,0.0,0.0,0.0,0.0,0.0,0.0,0.0,-3.4549,-3.6216,-3.6706,-3.8226,-4.0778,-4.1333,-4.2459,-4.4317,-3.9554,-3.785,0.0,0.0,0.0,0.0,0.0,0.0,0.0,0.0,0.0,0.0,0.0,0.0,0.0,0.0,0.0,0.0,0.0,0.0,0.0,0.0,0.0,0.0,0.0,0.0,0.0,0.0,0.0,0.0,0.0,0.0,0.0,0.0,0.0,0.0,0.0,0.0,0.0,0.0,0.0,0.0,0.0,0.0,-2.6809,-2.6889,0.0,0.0,0.0,-2.8107,-2.7245,0.0,0.0,0.0,0.0,0.0,0.0,0.0,0.0,0.0,0.0,0.0,0.0,0.0,0.0,0.0,0.0,0.0,0.0,0.0,0.0,0.0,0.0,0.0,0.0,0.0,0.0,0.0,0.0,0.0,0.0,0.0,0.0,0.0,0.0,0.0,0.0,0.0,0.0,0.0,0.0,0.0,0.0,0.0,0.0,0.0,0.0,0.0,0.0,0.0,0.0,0.0,0.0,0.0,0.0,0.0,0.0,0.0,-3.646,-3.6571,-3.8095,-4.1049,-4.121,-4.2153,-4.4031,-3.9522,0.0,0.0,0.0,0.0,0.0,0.0,0.0,0.0,0.0,0.0,0.0,0.0,0.0,0.0,0.0,0.0,0.0,0.0,0.0,0.0,0.0,0.0,0.0,0.0,0.0,0.0,0.0,-1.7968,0.0,0.0,0.0,0.0,0.0,0.0,0.0,0.0,0.0,0.0,0.0,0.0,0.0,0.0,-2.7435,-2.8008,-2.8605,-2.9307,0.0,0.0,-2.964,-2.9006,-3.1246,-3.1808,0.0,0.0,0.0,0.0,0.0,0.0,0.0,0.0,0.0,0.0,0.0,0.0,0.0,0.0,0.0,0.0,0.0,0.0,0.0,0.0,0.0,0.0,0.0,0.0,0.0,0.0,0.0,0.0,0.0,0.0,0.0,0.0,0.0,0.0,0.0,0.0,0.0,0.0,0.0,0.0,0.0,0.0,0.0,0.0,0.0,0.0,0.0,0.0,0.0,0.0,0.0,0.0,0.0,0.0,0.0,-3.6444,-3.6727,-3.8298,-4.1078,-4.1198,-4.1939,-4.3372,-4.1498,-4.0192,0.0,0.0,0.0,0.0,0.0,0.0,0.0,0.0,0.0,0.0,0.0,0.0,0.0,0.0,0.0,0.0,0.0,0.0,0.0,0.0,0.0,0.0,0.0,0.0,0.0,0.0,0.0,0.0,0.0,0.0,0.0,0.0,0.0,0.0,0.0,0.0,0.0,0.0,0.0,0.0,0.0,-2.7891,-2.9273,-2.9569,-3.0403,0.0,0.0,-3.1114,-3.2482,-3.4272,-3.4297,-3.0625,0.0,0.0,0.0,0.0,0.0,0.0,0.0,0.0,0.0,0.0,0.0,0.0,0.0,0.0,0.0,0.0,0.0,0.0,0.0,0.0,0.0,0.0,0.0,0.0,0.0,0.0,0.0,0.0,0.0,0.0,0.0,0.0,0.0,0.0,0.0,0.0,0.0,0.0,0.0,0.0,0.0,0.0,0.0,0.0,0.0,0.0,0.0,0.0,0.0,0.0,0.0,0.0,0.0,-3.5355,-3.7261,-3.7103,-3.8431,-4.1175,-4.1243,-4.1831,-4.3155,-4.1651,-3.9792,0.0,0.0,0.0,0.0,0.0,0.0,0.0,0.0,0.0,0.0,0.0,0.0,0.0,0.0,0.0,0.0,0.0,0.0,0.0,0.0,0.0,0.0,0.0,0.0,0.0,0.0,0.0,0.0,-2.0264,-1.9948,-1.915,0.0,0.0,0.0,0.0,0.0,0.0,0.0,0.0,0.0,0.0,-2.952,-3.1119,-3.195,0.0,0.0,-3.359,-3.3371,-3.3129,-3.4025,-3.3707,-3.056,-2.9255,0.0,0.0,0.0,0.0,0.0,0.0,0.0,0.0,0.0,0.0,0.0,0.0,0.0,0.0,0.0,0.0,0.0,0.0,0.0,0.0,0.0,0.0,0.0,0.0,0.0,0.0,0.0,0.0,0.0,0.0,0.0,0.0,0.0,0.0,0.0,0.0,0.0,0.0,0.0,0.0,0.0,0.0,0.0,0.0,0.0,0.0,0.0,0.0,0.0,0.0,0.0,0.0,-3.6046,-3.7783,-3.7543,-3.8725,-4.1331,-4.1271,-4.1818,-4.3015,-4.2225,-4.0642,0.0,0.0,0.0,0.0,0.0,0.0,0.0,0.0,0.0,0.0,0.0,0.0,0.0,0.0,0.0,0.0,0.0,0.0,0.0,0.0,0.0,0.0,0.0,0.0,0.0,0.0,0.0,0.0,-2.107,-2.0563,-2.0143,0.0,0.0,0.0,0.0,0.0,0.0,0.0,0.0,0.0,0.0,-3.0915,-3.1691,-3.2932,-3.3874,-3.4068,-3.4165,-3.4126,-3.3761,-3.3939,-3.3356,-3.1209,0.0,0.0,0.0,0.0,0.0,0.0,0.0,0.0,0.0,0.0,0.0,0.0,0.0,0.0,0.0,0.0,0.0,0.0,0.0,0.0,0.0,0.0,0.0,0.0,0.0,0.0,0.0,0.0,0.0,0.0,-3.4988,0.0,0.0,0.0,0.0,0.0,0.0,0.0,0.0,0.0,0.0,0.0,0.0,0.0,0.0,0.0,0.0,0.0,0.0,0.0,0.0,0.0,0.0,-3.7029,-3.78,-3.8038,-3.9212,-4.1297,-4.1288,-4.1835,-4.308,-4.3629,-4.3472,-4.2408,0.0,0.0,0.0,0.0,0.0,0.0,0.0,0.0,0.0,0.0,0.0,0.0,0.0,0.0,0.0,0.0,0.0,0.0,0.0,0.0,0.0,0.0,0.0,0.0,0.0,0.0,-2.2005,-2.1773,-2.1874,0.0,0.0,0.0,0.0,0.0,0.0,0.0,0.0,0.0,0.0,-2.9824,-3.1858,-3.0569,-3.1951,-3.3372,-3.4052,-3.3,-3.2805,-3.479,-3.4489,-3.3858,0.0,0.0,0.0,0.0,0.0,0.0,0.0,0.0,0.0,0.0,0.0,0.0,0.0,0.0,0.0,0.0,0.0,0.0,0.0,0.0,0.0,0.0,0.0,0.0,0.0,0.0,0.0,-3.6678,-3.6629,0.0,0.0,0.0,0.0,0.0,0.0,0.0,0.0,0.0,0.0,0.0,-3.9157,-3.9076,0.0,0.0,0.0,0.0,0.0,0.0,0.0,0.0,0.0,0.0,0.0,0.0,-3.7265,-3.8422,-3.8774,-3.9736,-4.1331,-4.1733,-4.2601,-4.3986,-4.4459,-4.4236,-4.3346,0.0,0.0,0.0,0.0,0.0,0.0,0.0,0.0,0.0,0.0,0.0,0.0,0.0,0.0,0.0,0.0,0.0,0.0,0.0,0.0,0.0,0.0,0.0,0.0,0.0,-2.3375,0.0,0.0,0.0,0.0,0.0,0.0,0.0,0.0,0.0,0.0,0.0,-2.7413,-2.8149,-2.9683,-3.0728,-3.0705,-3.2086,-3.368,0.0,0.0,0.0,0.0,0.0,0.0,0.0,0.0,0.0,0.0,0.0,0.0,0.0,0.0,-3.3561,-2.9877,-3.0752,-3.2196,-3.2461,0.0,0.0,0.0,0.0,0.0,0.0,0.0,0.0,0.0,0.0,0.0,0.0,0.0,0.0,-3.9107,0.0,-3.829,0.0,0.0,0.0,0.0,0.0,0.0,0.0,0.0,-3.9674,-4.0586,-4.1698,-4.118,-4.1825,0.0,-4.3238,-4.1644,0.0,0.0,0.0,0.0,0.0,0.0,0.0,0.0,-3.7756,-3.8455,-3.9253,-4.026,-4.1347,-4.2039,-4.3069,-4.4474,-4.508,-4.5212,-4.4918,-4.2286,-3.9881,0.0,0.0,0.0,0.0,0.0,0.0,0.0,0.0,0.0,0.0,0.0,0.0,0.0,0.0,0.0,0.0,0.0,0.0,0.0,0.0,0.0,0.0,0.0,-2.4972,0.0,0.0,0.0,0.0,0.0,0.0,0.0,0.0,0.0,-2.6315,-2.7794,-2.9248,-3.0064,-3.1298,-3.1737,-3.07,0.0,0.0,0.0,0.0,0.0,0.0,0.0,-3.1095,-3.1348,-3.244,-3.3623,-3.4764,-3.5914,-3.6497,-3.6011,0.0,0.0,-3.3722,-3.4563,-3.6078,-3.6581,-3.6438,-3.6166,-3.6153,-3.6253,-3.6374,0.0,0.0,0.0,0.0,0.0,0.0,0.0,0.0,-4.1262,-4.1458,0.0,-4.0746,0.0,0.0,0.0,0.0,0.0,-4.0373,0.0,0.0,-4.237,-4.3233,-4.3066,-4.2833,-4.3191,-4.4092,-4.4699,-4.3969,-4.2148,-4.1094,0.0,0.0,0.0,0.0,0.0,0.0,-3.8494,-3.798,-3.96,-4.0796,-4.1508,-4.2191,-4.3208,-4.4542,-4.5603,-4.6483,-4.7069,-4.56,-4.4107,-4.2602,-3.9318,0.0,0.0,0.0,0.0,0.0,0.0,0.0,0.0,0.0,0.0,0.0,0.0,0.0,0.0,0.0,0.0,0.0,0.0,0.0,0.0,-2.7466,0.0,0.0,0.0,0.0,0.0,0.0,0.0,0.0,0.0,0.0,-2.865,-2.9483,-3.0617,-3.186,0.0,0.0,0.0,0.0,-3.3656,-2.9745,-2.9653,-3.0415,-3.1195,-3.2368,-3.389,-3.593,0.0,0.0,-4.0399,-3.891,-3.77,-3.7614,-3.9428,-4.0194,-3.8669,-3.8576,-3.8863,-3.9108,-3.856,-3.7806,-3.794,-3.7742,-3.6994,-4.9274,0.0,0.0,0.0,0.0,-4.4116,-4.507,-4.6308,-4.6112,-4.5899,-4.5709,-4.4457,0.0,0.0,0.0,0.0,0.0,0.0,-4.2607,-4.3608,-4.4562,-4.5487,-4.6343,-4.6694,-4.7272,-4.802,-4.7704,-4.6838,-4.5569,-4.4626,-4.2668,-3.9753,0.0,0.0,0.0,0.0,-3.9007,-3.9512,-4.1047,-4.227,-4.2953,-4.3694,-4.4648,-4.5831,-4.675,-4.7157,-4.6979,-4.6674,-4.5276,-4.2716,-4.1648,0.0,0.0,0.0,0.0,0.0,0.0,0.0,0.0,0.0,0.0,0.0,0.0,0.0,0.0,0.0,0.0,0.0,0.0,0.0,-2.9259,-2.9538,-2.9185,0.0,0.0,0.0,0.0,0.0,0.0,0.0,0.0,0.0,-3.235,-3.183,-3.1892,0.0,0.0,-3.1306,-3.0058,-3.1646,-3.3016,-3.3332,-3.3558,0.0,-3.6643,-3.6076,-3.5768,-3.6826,-3.9217,-4.1209,-4.1874,-4.2732,-4.3217,-4.2731,-4.3962,-4.5063,-4.5126,-4.4317,-4.4058,-4.4977,-4.4688,-4.4333,-4.4682,-4.4233,-4.3686,-5.4743,-5.1329,-4.8969,-4.7597,-4.7111,-4.7828,-4.8785,-4.9851,-4.9732,-4.9658,-4.9582,-4.8286,-4.6569,-4.4569,-4.2565,0.0,0.0,0.0,-4.5192,-4.6873,-4.7379,-4.8216,-4.9262,-4.9607,-5.0022,-5.0446,-4.9607,-4.8784,-4.7975,-4.6541,-4.4595,-4.2124,0.0,0.0,-3.9124,-3.9554,-3.9862,-4.0209,-4.1985,-4.3151,-4.3582,-4.4903,-4.5871,-4.6471,-4.7243,-4.7454,-4.7046,-4.7322,-4.6379,-4.3994,-4.3267,-4.1375,0.0,0.0,0.0,0.0,0.0,0.0,0.0,0.0,0.0,0.0,0.0,-2.8786,0.0,0.0,0.0,0.0,-3.0871,-3.0629,-3.0642,-3.0428,0.0,0.0,0.0,0.0,0.0,0.0,0.0,-3.2176,-3.4771,-3.6541,-3.6115,-3.5493,-3.524,-3.5584,-3.4758,-3.3915,-3.3348,0.0,-3.5525,-3.5979,-3.6027,-3.6707,-3.8683,-3.8667,-3.8893,-4.0418,-4.2294,-4.3751,-4.4253,-4.5662,-4.6374,-4.5953,-4.6568,-4.7378,-4.754,-4.6811,-4.6682,-4.8074,-4.7831,-4.7473,-4.7787,-4.7341,-4.6957,-5.9375,-5.8177,-5.355,-5.1246,-5.0791,-5.2015,-5.2629,-5.273,-5.2534,-5.283,-5.3358,-5.1953,-5.0344,-4.8528,-4.6289,0.0,-4.6721,-4.7142,-4.8241,-4.9914,-5.0437,-5.1045,-5.1677,-5.152,-5.1537,-5.1629,-5.0634,-4.9955,-4.9521,-4.7477,-4.6049,-4.529,-4.3635,-4.1873,-4.0238,-4.0926,-4.1061,-4.0496,-4.2675,-4.3797,-4.385,-4.5866,-4.6861,-4.6634,-4.7176,-4.7403,-4.7199,-4.7626,-4.7281,-4.5856,-4.438,-4.288,-4.1222,0.0,0.0,0.0,0.0,0.0,0.0,0.0,0.0,0.0,0.0,0.0,0.0,0.0,0.0,0.0,-3.3512,0.0,-3.2289,-3.1041,0.0,0.0,0.0,-3.3429,-3.6135,-3.7145,-3.7841,-3.8315,0.0,0.0,-3.9573,-3.9687,-3.98,-4.0008,-4.0237,-3.9962,-3.8748,-3.9541,-3.9865,-3.7987,-3.7845,-3.8213,-3.946,-4.0915,-4.2779,-4.5014,-4.6439,-4.6682,-4.673,-4.7265,-4.7556,-4.6925,-4.7443,-4.7799,-4.7202,-4.7087,-4.7394,-4.8686,-4.8382,-4.7912,-4.7926,-4.741,-4.707,-6.0438,-6.0086,-5.8296,-5.6682,-5.5342,-5.4972,-5.5173,-5.5731,-5.5576,-5.5275,-5.4813,-5.3673,-5.1785,-4.9521,-4.9294,-4.9295,-4.9413,-5.0011,-5.0681,-5.1424,-5.1429,-5.1492,-5.1537,-5.1249,-5.1185,-5.128,-5.0951,-5.0718,-5.0612,-4.9544,-4.8134,-4.647,-4.4998,-4.342,-4.1827,-4.2499,-4.2838,-4.2791,-4.4426,-4.5471,-4.5923,-4.6962,-4.7391,-4.7057,-4.7203,-4.7183,-4.6996,-4.7089,-4.673,-4.584,-4.4816,-4.3154,-4.0809,-3.8579,0.0,0.0,0.0,0.0,0.0,0.0,0.0,0.0,0.0,-3.2458,-3.0949,0.0,-3.3129,0.0,-3.4323,-3.5619,-3.5974,-3.5831,0.0,0.0,-3.5174,-3.6016,-3.7199,-3.9308,-4.0053,-3.8264,-4.0453,-4.1787,-4.0918,-4.124,-4.2236,-4.3962,-4.1598,-3.9735,-3.9946,-4.0769,-4.1191,-4.082,-4.1905,-4.3249,-4.3832,-4.4901,-4.5775,-4.652,-4.6779,-4.6911,-4.6911,-4.7022,-4.7103,-4.6925,-4.7006,-4.7459,-4.8269,-4.8107,-4.8058,-4.8702,-4.8026,-4.7346,-4.7864,-4.741,-4.6975,-6.1281,-6.1172,-6.0323,-5.9538,-5.8826,-5.7826,-5.7402,-5.7431,-5.728,-5.66,-5.5543,-5.4421,-5.3067,-5.1678,-5.1503,-5.1483,-5.1637,-5.1817,-5.2203,-5.2748,-5.2573,-5.2428,-5.2248,-5.2067,-5.1815,-5.1461,-5.106,-5.074,-5.0486,-4.9904,-4.8938,-4.7628,-4.702,-4.5884,-4.4212,-4.2966,-4.2506,-4.2941,-4.4358,-4.5711,-4.6963,-4.7407,-4.7192,-4.6304,-4.5962,-4.5374,-4.4577,-4.4512,-4.4367,-4.3929,-4.3396,-4.2268,-4.0474,-3.8354,-3.6506,0.0,0.0,0.0,0.0,0.0,0.0,0.0,0.0,0.0,0.0,0.0,-3.4764,-3.4003,-3.5946,-3.7156,-3.6951,-3.7237,-3.7422,-3.7329,-3.8264,-3.9394,-4.0645,-4.2434,-4.3135,-4.2121,-4.3702,-4.4604,-4.3863,-4.4057,-4.4751,-4.6131,-4.4237,-4.2877,-4.3265,-4.3718,-4.3978,-4.4026,-4.4949,-4.5969,-4.6666,-4.7119,-4.7394,-4.7378,-4.7394,-4.7281,-4.6957,-4.7168,-4.7281,-4.6989,-4.7151,-4.7475,-4.7977,-4.8107,-4.8155,-4.8366,-4.8204,-4.7799,-4.754,-4.7184,-4.6911,-6.1913,-6.173,-6.0934,-6.0901,-6.1261,-6.0269,-5.9338,-5.8349,-5.8044,-5.7178,-5.5864,-5.4636,-5.4102,-5.4112,-5.3186,-5.3025,-5.3473,-5.3196,-5.3394,-5.3956,-5.3771,-5.3551,-5.3313,-5.3229,-5.274,-5.1915,-5.1262,-5.071,-5.022,-4.9692,-4.9176,-4.8705,-4.8729,-4.8035,-4.6585,-4.3225,-4.192,-4.2799,-4.3915,-4.5406,-4.7224,-4.7159,-4.6323,-4.4854,-4.4056,-4.2985,-4.1547,-4.1466,-4.1466,-4.1466,-4.1216,-4.0899,-4.0432,-3.7935,-3.6522,0.0,-3.4775,0.0,0.0,0.0,0.0,0.0,0.0,0.0,0.0,-3.6351,-3.6529,-3.7064,-3.8096,-3.8362,-3.7481,-3.7968,-3.8845,-4.0114,-4.1327,-4.2826,-4.4707,-4.5485,-4.6165,-4.6941,-4.6957,-4.6925,-4.7054,-4.7022,-4.6876,-4.6957,-4.6714,-4.6488,-4.6909,-4.6844,-4.6811,-4.7022,-4.6941,-4.7006,-4.7815,-4.8026,-4.801,-4.8091,-4.8139,-4.7912,-4.7346,-4.7637,-4.7815,-4.7378,-4.7653,-4.7848,-4.7346,-4.7848,-4.8123,-4.8236,-4.8512,-4.8366,-4.7443,-4.7119,-4.7006,-6.1941,-6.1784,-6.1723,-6.163,-6.1512,-6.1404,-6.065,-5.9322,-5.8011,-5.698,-5.6164,-5.5048,-5.4738,-5.5019,-5.4724,-5.4643,-5.4781,-5.5279,-5.5553,-5.5553,-5.4873,-5.4381,-5.4037,-5.3327,-5.2871,-5.2686,-5.2379,-5.2176,-5.206,-5.0826,-4.9991,-4.9588,-4.7819,-4.6979,-4.6958,0.0,0.0,0.0,-4.6176,-4.6094,-4.6305,-4.5245,-4.4154,-4.3103,-4.2405,0.0,-4.0785,-4.0691,-4.0707,-4.0704,-4.0143,0.0,0.0,0.0,0.0,0.0,0.0,0.0,0.0,0.0,0.0,0.0,-3.915,-3.8683,-3.7231,-3.6627,-3.7728,-4.1001,-4.0761,-4.0902,-4.2242,-4.3224,-4.3627,-4.3273,-4.4037,-4.4951,-4.5765,-4.5993,-4.6479,-4.7621,-4.7281,-4.7346,-4.8317,-4.7637,-4.7151,-4.7653,-4.7265,-4.7168,-4.7751,-4.7799,-4.7783,-4.7767,-4.7346,-4.7427,-4.8625,-4.8398,-4.8333,-4.8657,-4.8783,-4.8754,-4.8576,-4.8188,-4.8252,-4.8414,-4.8285,-4.8382,-4.9208,-4.9159,-4.8799,-4.8799,-4.8528,-4.8123,-4.7864,-4.7799,-4.7621,-6.1812,0.0,-6.1784,-6.1746,0.0,-6.1633,-6.1153,-6.016,-5.897,-5.7781,-5.6582,-5.5785,-5.5511,-5.5621,-5.5587,-5.5502,-5.54,-5.5791,-5.567,-5.5158,-5.4735,-5.4157,-5.3456,-5.2983,-5.2511,-5.2091,-5.2003,-5.1803,-5.149,-5.1055,-5.0605,-5.0137,-4.9137,-4.8587,-4.8348,-4.7371,-4.6996,-4.7183,-4.6466,-4.64,-4.6949,-4.5991,-4.4886,-4.3735,-4.3362,0.0,0.0,0.0,0.0,0.0,0.0,0.0,0.0,-4.111,0.0,-4.1531,-4.078,-4.0754,-4.1753,-4.1574,-4.1655,-4.23,-4.2507,-4.1857,-4.0046,-4.027,-4.1371,-4.3443,-4.3117,-4.3244,-4.4365,-4.5228,-4.5555,-4.5277,-4.5816,-4.6337,-4.6495,-4.6819,-4.7288,-4.7848,-4.7977,-4.8252,-4.8864,-4.8447,-4.8107,-4.8395,-4.8204,-4.8188,-4.8803,-4.8431,-4.8107,-4.8411,-4.8236,-4.8333,-4.9273,-4.9414,-4.9255,-4.9628,-4.9709,-4.9547,-4.9206,-4.881,-4.8605,-4.8897,-4.8686,-4.8751,-4.9337,-4.9532,-4.9548,-4.9532,-4.9273,-4.89,-4.8576,-4.7961,-4.7491,-6.1728,-6.1386,-6.1718,-6.1644,-6.1339,-6.1491,-6.1193,-6.0564,0.0,0.0,0.0,-5.6472,-5.6184,-5.6147,-5.613,-5.6043,-5.5902,-5.5867,-5.5508,-5.4861,-5.4439,-5.3792,-5.2971,-5.2705,-5.2219,-5.1531,-5.1514,-5.1252,-5.0774,-5.1153,-5.1136,-5.0806,-5.0909,-5.0591,-4.9902,-4.9547,-4.8835,-4.7705,-4.6682,-4.6795,-4.7945,-4.7151,-4.6117,-4.482,-4.4674,-4.3978,-4.2667,-4.2619,-4.2554,-4.2424,-4.2424,-4.2473,-4.257,-4.2197,-4.2098,-4.2278,-4.1703,-4.2171,-4.4091,-4.3509,-4.3879,-4.5872,-4.5484,-4.4593,-4.325,-4.4172,-4.4934,-4.521,-4.5146,-4.5245,-4.5668,-4.6078,-4.6486,-4.67,-4.7105,-4.7326,-4.7316,-4.7783,-4.822,-4.8398,-4.8754,-4.9107,-4.9402,-4.9159,-4.9042,-4.9123,-4.8977,-4.9252,-4.9775,-4.9143,-4.8738,-4.9337,-4.9159,-4.924,-5.0123,-5.0245,-5.042,-5.0518,-5.055,-5.0322,-4.9782,-4.9414,-4.9273,-4.9515,-4.9321,-4.9285,-4.9434,-4.9936,-5.0228,-5.0131,-5.0115,-4.9888,-4.9111,-4.801,-4.7297,-6.17,-6.1559,-6.184,-6.1802,-6.1566,-6.1415,-6.08,-5.9888,-5.8977,-5.8187,-5.7449,-5.6611,-5.637,-5.6682,-5.6682,-5.6682,-5.6647,-5.6468,-5.6665,-5.6999,-5.5005,-5.4205,-5.4422,-5.3188,-5.2485,-5.2277,-5.2224,-5.221,-5.2061,-5.1564,-5.1564,-5.1926,-5.1194,-5.0814,-5.0955,-5.0929,-5.0778,-5.0552,-4.869,-4.7799,-4.7993,-4.6666,-4.5581,-4.482,-4.4253,-4.3508,-4.2731,-4.2763,-4.2391,-4.179,-4.1742,-4.1986,-4.257,-4.3184,-4.3945,-4.5111,-4.566,-4.6097,-4.639,-4.6308,-4.6372,-4.6682,-4.6649,-4.6228,-4.5435,-4.4998,-4.5356,-4.666,-4.6403,-4.6471,-4.711,-4.7374,-4.7586,-4.7889,-4.8016,-4.8221,-4.856,-4.8787,-4.9094,-4.9629,-4.9321,-4.958,-5.0455,-4.9807,-4.9333,-4.9726,-4.9564,-4.9354,-4.9936,-4.9953,-5.0115,-5.0519,-4.9791,-4.9783,-5.0733,-5.0598,-5.0586,-5.1234,-5.1176,-5.102,-5.0858,-5.0313,-5.0147,-5.073,-5.0309,-5.0212,-5.0665,-5.094,-5.0762,-5.0325,-5.0179,-4.9872,-4.9224,-4.8382,-4.7686,-6.1718,-6.1633,-6.1868,-6.1784,-6.1415,-6.0956,-6.0481,-5.9908,-5.9069,-5.8495,-5.8066,-5.7637,-5.7426,-5.7374,-5.7391,-5.7171,-5.6799,-5.6583,-5.6205,-5.5576,-5.4408,-5.3709,-5.3446,-5.2815,-5.248,-5.2409,-5.2409,-5.2409,-5.2376,-5.2061,-5.2078,-5.234,-5.1651,-5.1267,-5.1205,-5.1221,-5.1221,-5.1151,-4.9839,-4.9143,-4.9111,-4.8107,-4.741,-4.7087,-4.7119,-4.7054,-4.673,-4.7087,-4.6957,-4.6228,-4.5824,-4.5937,-4.6617,-4.5888,-4.6067,-4.7392,-4.7508,-4.7313,-4.6909,-4.6911,-4.6911,-4.6911,-4.6911,-4.6747,-4.6407,-4.6217,-4.6415,-4.7101,-4.7042,-4.734,-4.8097,-4.823,-4.8492,-4.8922,-4.8971,-4.8977,-4.9033,-4.9402,-4.9742,-5.005,-5.0179,-5.0455,-5.1102,-5.06,-5.0276,-5.0617,-5.0357,-5.0341,-5.0633,-5.0681,-5.0795,-5.1054,-5.0617,-5.054,-5.1203,-5.109,-5.1062,-5.1466,-5.1424,-5.1371,-5.1333,-5.0918,-5.0913,-5.1086,-5.0876,-5.0843,-5.1205,-5.1221,-5.1043,-5.0811,-5.0325,-4.9969,-4.958,-4.8787,-4.7815,-6.169,-6.1605,-6.1812,-6.1615,-6.1087,-6.0512,-6.0135,-5.9928,-5.9284,-5.884,-5.8596,-5.849,-5.8224,-5.7918,-5.7881,-5.7577,-5.6981,-5.6429,-5.554,-5.4439,-5.3725,-5.3114,-5.2658,-5.2473,-5.2409,-5.2409,-5.2409,-5.2409,-5.2409,-5.2409,-5.2338,-5.223,-5.1977,-5.161,-5.1221,-5.1221,-5.1221,-5.1188,-5.0617,-5.0341,-5.0325,-4.9791,-4.9515,-4.9548,-5.0034,-5.0341,-5.0357,-5.0892,-5.0843,-5.0131,-4.9564,-4.9434,-4.9758,-4.8285,-4.7864,-4.8799,-4.8382,-4.7767,-4.7232,-4.7281,-4.7362,-4.7378,-4.7362,-4.7397,-4.7431,-4.7621,-4.7577,-4.7366,-4.7437,-4.7867,-4.8627,-4.8775,-4.9069,-4.9733,-4.9793,-4.973,-4.9621,-5.0017,-5.0341,-5.0422,-5.0843,-5.1188,-5.1221,-5.1221,-5.1172,-5.1156,-5.1221,-5.1221,-5.1221,-5.1221,-5.1221,-5.1221,-5.1221,-5.1172,-5.1258,-5.1317,-5.1392,-5.1462,-5.1445,-5.1387,-5.1371,-5.1296,-5.1221,-5.1221,-5.1221,-5.1172,-5.1205,-5.1221,-5.1205,-5.107,-5.0568,-4.9985,-4.9483,-4.8738,-4.7799,-6.1605,-6.1605,-6.1551,-6.1205,-6.064,-6.028,-5.9946,-5.9603,-5.9166,-5.8927,-5.8753,-5.8402,-5.8116,-5.7918,-5.7918,-5.7758,-5.7355,-5.5909,-5.5392,-5.5338,-5.3529,-5.2807,-5.3169,-5.2672,-5.2409,-5.2409,-5.2409,-5.2409,-5.2409,-5.239,-5.223,-5.1888,-5.1815,-5.1594,-5.1258,-5.1221,-5.1221,-5.1221,-5.1118,-5.1086,-5.1086,-5.1005,-5.1005,-5.0989,-5.1038,-5.107,-5.1038,-5.1151,-5.0859,-5.0179,-5.0034,-4.9726,-4.9188,-4.888,-4.8884,-4.8961,-4.8363,-4.7977,-4.7961,-4.8479,-4.8735,-4.8819,-4.8719,-4.881,-4.9004,-4.9197,-4.883,-4.793,-4.7637,-4.8182,-4.8928,-4.8992,-4.9414,-5.0454,-5.0438,-5.0481,-5.0837,-5.1038,-5.1086,-5.1086,-5.114,-5.1221,-5.1221,-5.1221,-5.1221,-5.1221,-5.1221,-5.1221,-5.1221,-5.1221,-5.1221,-5.1221,-5.1221,-5.1275,-5.1387,-5.1296,-5.135,-5.1424,-5.1333,-5.1258,-5.1258,-5.1221,-5.1221,-5.1221,-5.1221,-5.1221,-5.1221,-5.1221,-5.1172,-5.1118,-5.0584,-4.9791,-4.8641,-4.8188,-4.7799,-6.1299,-6.1317,-6.1281,-6.0956,-6.0405,-5.9961,-5.9669,-5.9386,-5.9132,-5.8927,-5.8788,-5.849,-5.826,-5.8063,-5.7954,-5.7552,-5.6915,-5.6107,-5.5322,-5.4552,-5.3476,-5.2937,-5.2771,-5.2539,-5.2409,-5.2409,-5.2409,-5.2409,-5.2373,-5.2283,-5.2013,-5.1647,-5.161,-5.1483,-5.1221,-5.1221,-5.1221,-5.1221,-5.1221,-5.1221,-5.1221,-5.1221,-5.1221,-5.1221,-5.1221,-5.1221,-5.1221,-5.1221,-5.1038,-5.0746,-5.0341,-5.0179,-5.0293,-4.9499,-4.9224,-4.9564,-4.8997,-4.8803,-4.9224,-4.9091,-4.8994,-4.8994,-4.8994,-4.9086,-4.9284,-4.9477,-4.9356,-4.9051,-4.909,-4.9523,-5.0253,-5.0197,-5.0451,-5.1159,-5.1169,-5.1099,-5.1172,-5.1221,-5.1221,-5.1221,-5.1221,-5.1221,-5.1221,-5.1221,-5.1221,-5.1221,-5.1221,-5.1221,-5.1221,-5.1221,-5.1221,-5.1221,-5.1221,-5.1221,-5.1296,-5.1258,-5.1258,-5.1296,-5.1258,-5.1221,-5.1221,-5.1221,-5.1221,-5.1221,-5.1221,-5.1221,-5.1221,-5.0811,-5.0617,-5.0762,-5.0957,-5.0212,-4.8382,-4.8333,-4.8107,-6.1212,-6.0974,-6.0896,-6.0605,-6.0118,-5.9718,-5.9437,-5.9285,-5.9098,-5.8927,-5.8788,-5.8596,-5.8384,-5.8188,-5.8007,-5.7468,-5.6797,-5.6174,-5.5222,-5.4039,-5.3589,-5.3053,-5.2492,-5.2605,-5.2556,-5.2407,-5.2338,-5.2283,-5.2247,-5.2086,-5.1831,-5.1536,-5.1515,-5.1387,-5.1221,-5.1221,-5.1221,-5.1221,-5.1221,-5.1221,-5.1221,-5.1221,-5.1221,-5.1221,-5.1221,-5.1221,-5.1221,-5.1221,-5.1221,-5.1205,-5.0681,-5.0633,-5.1124,-5.0179,-4.9775,-5.0034,-4.9823,-4.9742,-5.0082,-4.9791,-4.9613,-4.9613,-4.9613,-4.9706,-4.9922,-5.0118,-5.0295,-5.0558,-5.0731,-5.0999,-5.1164,-5.1069,-5.1169,-5.17,-5.1573,-5.135,-5.1205,-5.1221,-5.1221,-5.1221,-5.1221,-5.1221,-5.1221,-5.1221,-5.1221,-5.1221,-5.1221,-5.1221,-5.1221,-5.1221,-5.1221,-5.1221,-5.1221,-5.1221,-5.1221,-5.1221,-5.1221,-5.1221,-5.1221,-5.1221,-5.1221,-5.1221,-5.1221,-5.1221,-5.1221,-5.1221,-5.1221,-5.0762,-5.0179,-5.0406,-5.0406,-4.9807,-4.7961,-4.8188,-4.7893,-6.1572,-6.064,-6.0401,-6.015,-5.9796,-5.9469,-5.9319,-5.9251,-5.9098,-5.8927,-5.8736,-5.8596,-5.8367,-5.8137,-5.7974,-5.7755,-5.7335,-5.5973,-5.5105,-5.4619,-5.3871,-5.3086,-5.2473,-5.3036,-5.3019,-5.247,-5.2227,-5.2046,-5.19,-5.1864,-5.1704,-5.1548,-5.1564,-5.1403,-5.1221,-5.1221,-5.1221,-5.1221,-5.1221,-5.1221,-5.1221,-5.1221,-5.1183,-5.1183,-5.1221,-5.1221,-5.1221,-5.1221,-5.1221,-5.1221,-5.1156,-5.1135,-5.1205,-5.1124,-5.073,-5.0276,-5.0697,-5.0746,-5.0309,-5.0649,-5.0973,-5.1021,-5.0945,-5.1208,-5.1394,-5.1503,-5.1701,-5.2189,-5.2075,-5.1945,-5.1446,-5.113,-5.111,-5.1627,-5.1445,-5.1242,-5.1221,-5.1221,-5.1221,-5.1221,-5.1221,-5.1221,-5.1221,-5.1221,-5.1221,-5.1221,-5.1221,-5.1221,-5.1221,-5.1221,-5.1221,-5.1221,-5.1221,-5.1221,-5.1221,-5.1221,-5.1221,-5.1221,-5.1221,-5.1221,-5.1221,-5.1221,-5.1221,-5.1156,-5.1075,-5.1021,-5.1118,-5.0827,-5.0212,-4.9839,-4.9111,-4.8204,-4.7459,-4.7119,-4.7003,-6.0399,-5.9961,-5.9975,-5.9764,-5.9451,-5.9335,-5.9166,-5.8996,-5.8995,-5.8583,-5.8066,-5.832,-5.8128,-5.7508,-5.7642,-5.7588,-5.7335,-5.6757,-5.5833,-5.4754,-5.4725,-5.4195,-5.3152,-5.3318,-5.3245,-5.2907,-5.2353,-5.215,-5.223,-5.2263,-5.2134,-5.1983,-5.1961,-5.1712,-5.1302,-5.1221,-5.1221,-5.1221,-5.1221,-5.1221,-5.1183,-5.1086,-5.101,-5.0994,-5.1162,-5.1221,-5.1221,-5.1221,-5.1221,-5.1221,-5.1221,-5.1221,-5.1221,-5.1221,-5.1086,-5.0859,-5.1038,-5.107,-5.0876,-5.1038,-5.1221,-5.1221,-5.1312,-5.1499,-5.1741,-5.1941,-5.2086,-5.2354,-5.2409,-5.2243,-5.204,-5.1638,-5.1447,-5.1529,-5.1371,-5.1221,-5.1221,-5.1221,-5.1221,-5.1221,-5.1221,-5.1221,-5.1221,-5.1221,-5.1221,-5.1221,-5.1221,-5.1221,-5.1221,-5.1221,-5.1221,-5.1221,-5.1221,-5.1221,-5.1221,-5.1221,-5.1221,-5.1221,-5.1221,-5.1221,-5.1221,-5.114,-5.1086,-5.0617,-5.0568,-5.0552,-5.0536,-5.0438,-4.9888,-4.9062,-4.8301,-4.8058,-4.7154,-4.7297,-4.7244,-5.9774,-5.9899,-5.9722,-5.9535,-5.9319,-5.9183,-5.903,-5.8823,-5.8823,-5.8358,-5.7752,-5.8091,-5.7863,-5.7273,-5.7389,-5.7402,-5.7164,-5.6963,-5.6008,-5.47,-5.504,-5.4456,-5.3225,-5.3192,-5.3102,-5.2774,-5.2433,-5.231,-5.2416,-5.2655,-5.2675,-5.256,-5.2349,-5.1993,-5.1539,-5.1313,-5.1221,-5.1183,-5.1146,-5.1124,-5.1086,-5.0896,-5.0781,-5.082,-5.0934,-5.0994,-5.0994,-5.0994,-5.1032,-5.1086,-5.1108,-5.1146,-5.1183,-5.1221,-5.1221,-5.1221,-5.1221,-5.1221,-5.1221,-5.1221,-5.1221,-5.1221,-5.1371,-5.1573,-5.1778,-5.1993,-5.2211,-5.2338,-5.2409,-5.239,-5.2194,-5.1961,-5.1741,-5.1573,-5.1387,-5.1221,-5.1221,-5.1221,-5.1221,-5.1221,-5.1221,-5.1221,-5.1221,-5.1221,-5.1221,-5.1221,-5.1221,-5.1221,-5.1221,-5.1221,-5.1221,-5.1221,-5.1221,-5.1221,-5.1221,-5.1221,-5.1221,-5.1221,-5.1221,-5.1221,-5.114,-5.1021,-5.073,-5.0244,-4.9985,-4.9936,-4.9904,-4.9872,-4.9337,-4.8544,-4.8463,-4.8414,-4.7977,-4.7848,-4.7564,-5.9819,-6.0338,-5.9681,-5.9268,-5.9183,-5.8927,-5.8788,-5.8718,-5.8544,-5.821,-5.77,-5.7884,-5.7651,-5.7301,-5.7243,-5.7176,-5.6963,-5.6404,-5.5617,-5.4815,-5.468,-5.3836,-5.2419,-5.2844,-5.27,-5.2056,-5.2323,-5.2443,-5.2469,-5.3013,-5.3281,-5.3152,-5.2611,-5.2272,-5.2155,-5.1496,-5.1194,-5.1124,-5.0972,-5.0912,-5.0874,-5.0705,-5.0589,-5.0589,-5.0589,-5.0573,-5.0612,-5.0628,-5.0743,-5.0896,-5.095,-5.101,-5.1183,-5.1221,-5.1221,-5.1221,-5.1221,-5.1221,-5.1221,-5.1221,-5.1221,-5.1221,-5.1387,-5.161,-5.1794,-5.203,-5.2211,-5.2338,-5.2373,-5.2266,-5.1941,-5.1831,-5.1778,-5.1741,-5.1408,-5.1221,-5.1221,-5.1221,-5.1221,-5.1221,-5.1221,-5.1221,-5.1221,-5.1221,-5.1221,-5.1221,-5.1221,-5.1221,-5.1221,-5.1221,-5.1221,-5.1221,-5.1221,-5.1221,-5.1221,-5.1221,-5.1221,-5.1221,-5.1221,-5.1205,-5.0989,-5.0859,-5.0357,-4.9855,-4.924,-4.9192,-4.9629,-4.958,-4.9499,-4.8949,-4.8933,-4.867,-4.8133,-4.7758,-4.761,-5.9013,-5.9167,-5.8978,-5.8806,-5.8736,-5.8631,-5.8525,-5.8402,-5.8295,-5.7791,-5.7145,-5.7479,-5.7282,-5.677,-5.6888,-5.7063,-5.697,-5.6606,-5.5779,-5.4796,-5.4878,-5.422,-5.3058,-5.2914,-5.2744,-5.2421,-5.2817,-5.3279,-5.3621,-5.376,-5.3753,-5.3689,-5.3391,-5.2709,-5.1906,-5.1584,-5.1295,-5.083,-5.0743,-5.0705,-5.0666,-5.0496,-5.0379,-5.0379,-5.0207,-5.0207,-5.0379,-5.0666,-5.0896,-5.1086,-5.1108,-5.1146,-5.1183,-5.1221,-5.1221,-5.1221,-5.1221,-5.1221,-5.1221,-5.1221,-5.1221,-5.1258,-5.1499,-5.1721,-5.1815,-5.2122,-5.2302,-5.239,-5.2373,-5.2266,-5.205,-5.1868,-5.1704,-5.1408,-5.1242,-5.1221,-5.1221,-5.1221,-5.1221,-5.1221,-5.1221,-5.1221,-5.1221,-5.1221,-5.1221,-5.1221,-5.1221,-5.1221,-5.1221,-5.1221,-5.1221,-5.1221,-5.1221,-5.1221,-5.1221,-5.1221,-5.1221,-5.1221,-5.1221,-5.1059,-5.0843,-5.0438,-4.9936,-4.9273,-4.8673,-4.869,-4.9111,-4.9269,-4.9204,-4.9366,-4.935,-4.8763,-4.7884,-4.7619,-4.7716,-5.8579,-5.8525,-5.8614,-5.8579,-5.849,-5.8419,-5.826,-5.8063,-5.7991,-5.7482,-5.6936,-5.7163,-5.7018,-5.6546,-5.6766,-5.6856,-5.6872,-5.6774,-5.5863,-5.4613,-5.4698,-5.4096,-5.2782,-5.2391,-5.2367,-5.2508,-5.2909,-5.3574,-5.4213,-5.4284,-5.4274,-5.4274,-5.3894,-5.3293,-5.2373,-5.2069,-5.1621,-5.1069,-5.0895,-5.0728,-5.0466,-5.0246,-5.0144,-5.0129,-4.9955,-5.0216,-5.0698,-5.081,-5.0858,-5.1032,-5.1146,-5.1221,-5.1221,-5.1221,-5.1221,-5.1221,-5.1221,-5.1221,-5.1221,-5.1221,-5.1258,-5.1333,-5.1594,-5.1831,-5.1941,-5.223,-5.2373,-5.2409,-5.2318,-5.2194,-5.2013,-5.1794,-5.152,-5.1258,-5.1221,-5.1221,-5.1221,-5.1221,-5.1221,-5.1221,-5.1221,-5.1221,-5.1221,-5.1221,-5.1221,-5.1221,-5.1221,-5.1221,-5.1221,-5.1221,-5.1221,-5.1221,-5.1221,-5.1221,-5.1221,-5.1221,-5.1221,-5.1221,-5.1221,-5.0908,-5.0649,-4.9969,-4.935,-4.8398,-4.7686,-4.8269,-4.8722,-4.8977,-4.9074,-4.9366,-4.9632,-4.907,-4.8433,-4.8361,-4.826,-5.8489,-5.8455,-5.8455,-5.8402,-5.8331,-5.8188,-5.8007,-5.7845,-5.7625,-5.7331,-5.7013,-5.6992,-5.6894,-5.6741,-5.6702,-5.6719,-5.668,-5.6702,-5.5908,-5.4698,-5.4239,-5.344,-5.1983,-5.1652,-5.1891,-5.2359,-5.2882,-5.3455,-5.409,-5.4413,-5.4771,-5.4527,-5.3975,-5.3643,-5.3273,-5.2908,-5.2197,-5.1471,-5.1288,-5.093,-5.0366,-5.005,-5.0058,-5.0065,-5.0026,-5.0462,-5.1406,-5.1163,-5.0878,-5.0912,-5.1108,-5.1221,-5.1221,-5.1221,-5.1221,-5.1221,-5.1221,-5.1221,-5.1221,-5.1221,-5.1258,-5.1424,-5.1631,-5.1904,-5.2066,-5.223,-5.2373,-5.2338,-5.2211,-5.203,-5.1831,-5.1647,-5.1424,-5.1258,-5.1221,-5.1221,-5.1221,-5.1221,-5.1221,-5.1221,-5.1221,-5.1221,-5.1221,-5.1221,-5.1221,-5.1221,-5.1221,-5.1221,-5.1221,-5.1221,-5.1221,-5.1221,-5.1221,-5.1221,-5.1221,-5.1221,-5.1221,-5.1221,-5.1205,-5.094,-5.0471,-4.9758,-4.8754,-4.7751,-4.7165,-4.7764,-4.8249,-4.8521,-4.903,-4.9468,-4.9507,-4.932,-4.901,-4.871,-4.8276,-5.8479,-5.7862,-5.7845,-5.7735,-5.7588,-5.7402,-5.7385,-5.7402,-5.7101,-5.6987,-5.6949,-5.6834,-5.6757,-5.6697,-5.6697,-5.6697,-5.6697,-5.668,-5.6172,-5.5034,-5.4273,-5.3008,-5.1766,-5.1777,-5.2191,-5.2746,-5.3254,-5.3912,-5.4262,-5.429,-5.4231,-5.4001,-5.3871,-5.3507,-5.3018,-5.3028,-5.2308,-5.131,-5.1151,-5.0927,-5.0538,-5.0144,-5.0404,-5.1092,-5.0364,-5.0811,-5.2173,-5.2023,-5.1533,-5.114,-5.1146,-5.1221,-5.1221,-5.1221,-5.1221,-5.1221,-5.1221,-5.1221,-5.1221,-5.1221,-5.1221,-5.1312,-5.1631,-5.1868,-5.2013,-5.223,-5.2302,-5.2211,-5.2119,-5.1957,-5.1647,-5.1536,-5.1387,-5.1258,-5.1221,-5.1221,-5.1221,-5.1221,-5.1221,-5.1221,-5.1221,-5.1221,-5.1221,-5.1221,-5.1221,-5.1221,-5.1221,-5.1221,-5.1221,-5.1221,-5.1221,-5.1221,-5.1221,-5.1221,-5.1221,-5.1221,-5.1221,-5.1221,-5.1188,-5.107,-5.0487,-4.9738,-4.856,-4.733,-4.6966,-4.7287,-4.7671,-4.7954,-4.8634,-4.9379,-4.9464,-4.9277,-4.8776,-4.8392,-4.7992,-5.8066,-5.7476,-5.7476,-5.7402,-5.7289,-5.7084,-5.7025,-5.6987,-5.6719,-5.6619,-5.668,-5.6603,-5.6603,-5.6697,-5.6697,-5.6697,-5.6697,-5.6603,-5.6051,-5.5045,-5.3677,-5.2335,-5.1415,-5.1539,-5.2068,-5.2837,-5.3166,-5.364,-5.411,-5.4044,-5.3844,-5.3655,-5.3746,-5.3554,-5.3283,-5.3359,-5.2939,-5.1982,-5.1786,-5.1515,-5.0633,-5.0459,-5.0688,-5.1206,-5.0713,-5.1144,-5.2461,-5.257,-5.2143,-5.1442,-5.1221,-5.1221,-5.1221,-5.1221,-5.1221,-5.1221,-5.1221,-5.1221,-5.1221,-5.1221,-5.1296,-5.1445,-5.1704,-5.1888,-5.2122,-5.2247,-5.2211,-5.2122,-5.1957,-5.1737,-5.1552,-5.1424,-5.1296,-5.1221,-5.1221,-5.1221,-5.1221,-5.1221,-5.1221,-5.1221,-5.1221,-5.1221,-5.1221,-5.1221,-5.1221,-5.1221,-5.1221,-5.1221,-5.1221,-5.1221,-5.1221,-5.1221,-5.1221,-5.1221,-5.1221,-5.1221,-5.1221,-5.1221,-5.0843,-5.0843,-5.0239,-4.9511,-4.8275,-4.7174,-4.6846,-4.6792,-4.7252,-4.771,-4.8279,-4.8824,-4.9138,-4.9094,-4.8503,-4.8057,-4.7659,-5.7506,-5.7252,-5.7235,-5.7214,-5.7101,-5.6949,-5.6719,-5.6603,-5.6424,-5.6346,-5.6385,-5.6385,-5.6502,-5.6641,-5.668,-5.668,-5.6658,-5.6502,-5.5708,-5.4512,-5.3049,-5.1627,-5.09,-5.0922,-5.157,-5.2428,-5.2361,-5.2996,-5.3659,-5.3789,-5.3599,-5.3409,-5.3599,-5.3746,-5.3648,-5.3895,-5.3564,-5.2775,-5.2655,-5.2172,-5.123,-5.1023,-5.1209,-5.1382,-5.1602,-5.1748,-5.2557,-5.278,-5.2517,-5.1361,-5.1232,-5.1221,-5.1221,-5.1221,-5.1221,-5.1221,-5.1221,-5.1221,-5.1221,-5.1221,-5.1371,-5.1668,-5.1778,-5.1961,-5.2194,-5.2211,-5.2086,-5.1957,-5.1684,-5.1536,-5.1441,-5.1312,-5.1221,-5.1221,-5.1221,-5.1221,-5.1221,-5.1221,-5.1221,-5.1221,-5.1221,-5.1221,-5.1221,-5.1221,-5.1221,-5.1221,-5.1221,-5.1221,-5.1221,-5.1221,-5.1221,-5.1221,-5.1221,-5.1221,-5.1221,-5.1221,-5.1221,-5.1172,-5.0568,-5.026,-4.9738,-4.8905,-4.7809,-4.7062,-4.7011,-4.7016,-4.7197,-4.7652,-4.8041,-4.8365,-4.872,-4.851,-4.8149,-4.7797,-4.7384,-5.7656,-5.6834,-5.6834,-5.6641,-5.6346,-5.6126,-5.6126,-5.6205,-5.6006,-5.603,-5.6132,-5.629,-5.6408,-5.6414,-5.6553,-5.6619,-5.6387,-5.6188,-5.5515,-5.3834,-5.2773,-5.1485,-5.063,-5.0518,-5.1199,-5.1905,-5.2084,-5.2508,-5.3125,-5.3305,-5.3115,-5.2982,-5.3305,-5.3481,-5.3524,-5.3872,-5.3627,-5.2874,-5.2796,-5.2553,-5.1987,-5.1644,-5.1769,-5.2183,-5.2756,-5.2851,-5.2773,-5.3044,-5.2805,-5.2106,-5.1491,-5.1221,-5.1221,-5.1221,-5.1221,-5.1221,-5.1221,-5.1221,-5.1221,-5.1333,-5.1483,-5.1631,-5.1831,-5.205,-5.205,-5.2102,-5.1921,-5.1737,-5.1552,-5.1424,-5.1312,-5.1221,-5.1221,-5.1221,-5.1221,-5.1221,-5.1221,-5.1221,-5.1221,-5.1221,-5.1221,-5.1221,-5.1221,-5.1221,-5.1221,-5.1221,-5.1221,-5.1221,-5.1221,-5.1221,-5.1221,-5.1221,-5.1221,-5.1221,-5.1221,-5.1188,-5.107,-5.0957,-5.0422,-4.9794,-4.9256,-4.8699,-4.7818,-4.7421,-4.7281,-4.7253,-4.7028,-4.7405,-4.7797,-4.805,-4.8238,-4.8042,-4.7836,-4.7494,-4.7178,-5.726,-5.5963,-5.6276,-5.6109,-5.566,-5.5756,-5.5863,-5.5903,-5.5726,-5.553,-5.5591,-5.5968,-5.5928,-5.5463,-5.6123,-5.6189,-5.5408,-5.5154,-5.4466,-5.3279,-5.2349,-5.1252,-5.0263,-5.0137,-5.0516,-5.1161,-5.1528,-5.2001,-5.252,-5.2916,-5.2982,-5.2758,-5.3173,-5.3365,-5.3321,-5.373,-5.3558,-5.3059,-5.2961,-5.2727,-5.1969,-5.2124,-5.2172,-5.2718,-5.341,-5.3659,-5.2974,-5.3028,-5.2783,-5.2213,-5.1572,-5.1221,-5.1221,-5.1221,-5.1221,-5.1221,-5.1221,-5.1221,-5.1258,-5.1312,-5.1408,-5.1573,-5.1737,-5.1831,-5.1868,-5.1868,-5.1737,-5.1536,-5.1424,-5.1312,-5.1221,-5.1221,-5.1221,-5.1221,-5.1221,-5.1221,-5.1221,-5.1221,-5.1221,-5.1221,-5.1221,-5.1221,-5.1221,-5.1221,-5.1221,-5.1221,-5.1221,-5.1221,-5.1221,-5.1221,-5.1221,-5.1221,-5.1221,-5.1221,-5.1221,-5.114,-5.094,-5.0714,-5.0309,-4.9639,-4.9008,-4.8537,-4.7983,-4.7725,-4.752,-4.678,-4.6602,-4.7078,-4.7569,-4.7795,-4.7915,-4.7767,-4.7672,-4.7583,-4.7251,-5.6556,-5.4999,-5.5506,-5.5342,-5.4888,-5.5317,-5.553,-5.5523,-5.5434,-5.515,-5.4863,-5.5558,-5.5247,-5.4662,-5.5413,-5.5199,-5.4334,-5.3547,-5.3078,-5.2713,-5.1841,-5.0857,-5.0034,-4.9796,-4.9784,-5.0139,-5.0731,-5.1355,-5.2188,-5.2593,-5.2692,-5.2757,-5.3084,-5.3233,-5.3248,-5.3484,-5.3524,-5.3124,-5.3152,-5.2882,-5.2087,-5.2473,-5.2692,-5.2857,-5.3277,-5.362,-5.3054,-5.2891,-5.2647,-5.2203,-5.1539,-5.1248,-5.1221,-5.1221,-5.1221,-5.1258,-5.1258,-5.1312,-5.1296,-5.1333,-5.1408,-5.1515,-5.1589,-5.161,-5.1668,-5.161,-5.1536,-5.1424,-5.1312,-5.1221,-5.1221,-5.1221,-5.1221,-5.1221,-5.1221,-5.1221,-5.1221,-5.1221,-5.1221,-5.1221,-5.1221,-5.1221,-5.1221,-5.1221,-5.1221,-5.1221,-5.1221,-5.1221,-5.1221,-5.1221,-5.1221,-5.1221,-5.1221,-5.1221,-5.1221,-5.1205,-5.0989,-5.0762,-5.0341,-4.987,-4.9229,-4.9004,-4.8657,-4.8009,-4.7554,-4.7009,-4.6808,-4.7267,-4.7631,-4.7703,-4.7577,-4.7403,-4.7482,-4.7672,-4.7245,-5.5877,-5.4682,-5.4193,-5.3854,-5.373,-5.4356,-5.4664,-5.4681,-5.4955,-5.4858,-5.4502,-5.4749,-5.4593,-5.4159,-5.4321,-5.4186,-5.365,-5.2809,-5.2197,-5.2,-5.1259,-5.0357,-4.982,-4.9637,-4.9425,-4.9218,-4.9837,-5.0967,-5.1984,-5.2204,-5.2312,-5.2695,-5.3026,-5.3115,-5.316,-5.3321,-5.3365,-5.3071,-5.3115,-5.2896,-5.2751,-5.2949,-5.3164,-5.3035,-5.3225,-5.307,-5.2908,-5.2556,-5.2278,-5.2155,-5.1539,-5.1286,-5.1221,-5.1221,-5.1275,-5.1387,-5.1387,-5.1387,-5.1424,-5.1557,-5.1557,-5.1573,-5.161,-5.161,-5.1573,-5.1515,-5.1424,-5.1296,-5.1258,-5.1221,-5.1221,-5.1221,-5.1221,-5.1221,-5.1221,-5.1221,-5.1221,-5.1221,-5.1221,-5.1221,-5.1221,-5.1221,-5.1221,-5.1221,-5.1221,-5.1221,-5.1221,-5.1221,-5.1221,-5.1221,-5.1221,-5.1221,-5.1221,-5.1221,-5.1221,-5.1221,-5.114,-5.0973,-5.0697,-5.0595,-5.0107,-4.9855,-4.9432,-4.8892,-4.8421,-4.8048,-4.7947,-4.7767,-4.7877,-4.8067,-4.7624,-4.7103,-4.753,-4.7893,-4.7081,-5.5903,-5.4029,-5.3997,-5.3496,-5.2948,-5.3515,-5.3839,-5.3848,-5.3938,-5.3721,-5.3547,-5.3831,-5.3618,-5.3236,-5.3775,-5.3815,-5.3185,-5.1985,-5.1582,-5.1497,-5.0847,-5.0129,-4.9637,-4.9597,-4.9622,-4.9491,-4.9646,-5.0232,-5.1572,-5.1744,-5.2021,-5.262,-5.2997,-5.3042,-5.2982,-5.31,-5.31,-5.2953,-5.2893,-5.2856,-5.2825,-5.3083,-5.3192,-5.3038,-5.3092,-5.2845,-5.2146,-5.2288,-5.1993,-5.1685,-5.1345,-5.1253,-5.1221,-5.1221,-5.1258,-5.1424,-5.1424,-5.1387,-5.1462,-5.1536,-5.1424,-5.1387,-5.1445,-5.1445,-5.1371,-5.135,-5.1312,-5.1258,-5.1221,-5.1221,-5.1221,-5.1221,-5.1221,-5.1221,-5.1221,-5.1221,-5.1221,-5.1221,-5.1221,-5.1221,-5.1221,-5.1221,-5.1221,-5.1221,-5.1221,-5.1221,-5.1221,-5.1221,-5.1221,-5.1221,-5.1221,-5.1221,-5.1221,-5.1221,-5.1221,-5.1221,-5.1183,-5.1032,-5.0951,-5.0833,-5.0709,-5.0333,-5.0181,-4.9904,-4.9483,-4.8909,-4.8279,-4.7846,-4.813,-4.8351,-4.7909,-4.764,-4.7972,-4.794,-4.7239,-5.584,-5.333,-5.3774,-5.3191,-5.2236,-5.277,-5.3055,-5.3087,-5.3052,-5.2769,-5.2333,-5.2931,-5.278,-5.2277,-5.2714,-5.315,-5.2764,-5.1353,-5.1128,-5.1117,-5.0595,-4.9971,-4.9677,-4.962,-4.9696,-4.9687,-4.9388,-4.9625,-5.0827,-5.1249,-5.1821,-5.2373,-5.2798,-5.2937,-5.2788,-5.2937,-5.2848,-5.2758,-5.2698,-5.2628,-5.2738,-5.2968,-5.3133,-5.286,-5.3405,-5.3046,-5.2126,-5.2074,-5.1977,-5.1604,-5.135,-5.1221,-5.1221,-5.1221,-5.1312,-5.1441,-5.135,-5.1387,-5.1424,-5.1387,-5.135,-5.1258,-5.1221,-5.1221,-5.1221,-5.1221,-5.1221,-5.1221,-5.1221,-5.1221,-5.1221,-5.1221,-5.1221,-5.1221,-5.1221,-5.1221,-5.1221,-5.1221,-5.1221,-5.1221,-5.1221,-5.1221,-5.1221,-5.1221,-5.1221,-5.1221,-5.1221,-5.1221,-5.1221,-5.1221,-5.1221,-5.1221,-5.1221,-5.1221,-5.1221,-5.1221,-5.1146,-5.1038,-5.0968,-5.0897,-5.0854,-5.0723,-5.0531,-5.0281,-4.9974,-4.9374,-4.8624,-4.8152,-4.8399,-4.8478,-4.8177,-4.8162,-4.8399,-4.8335,-4.7824,-5.4979,-5.3233,-5.2705,-5.2009,-5.1491,-5.2058,-5.2333,-5.2359,-5.2697,-5.2672,-5.2122,-5.2427,-5.2215,-5.1769,-5.1699,-5.1733,-5.1356,-5.1051,-5.0692,-5.0703,-5.0247,-4.9892,-4.9637,-4.9597,-4.9564,-4.9606,-4.9237,-4.9786,-5.0511,-5.0784,-5.1221,-5.1836,-5.2512,-5.2713,-5.2713,-5.2758,-5.2713,-5.2713,-5.2713,-5.292,-5.3193,-5.3495,-5.3555,-5.3576,-5.3542,-5.3351,-5.266,-5.2398,-5.2058,-5.1912,-5.1442,-5.1253,-5.1221,-5.1221,-5.1296,-5.1424,-5.1478,-5.1478,-5.1478,-5.1424,-5.135,-5.1221,-5.1221,-5.1221,-5.1221,-5.1221,-5.1221,-5.1221,-5.1221,-5.1221,-5.1221,-5.1221,-5.1221,-5.1221,-5.1221,-5.1221,-5.1221,-5.1221,-5.1221,-5.1221,-5.1221,-5.1221,-5.1221,-5.1221,-5.1221,-5.1221,-5.1221,-5.1221,-5.1221,-5.1221,-5.1221,-5.1221,-5.1146,-5.1108,-5.107,-5.1108,-5.1032,-5.0934,-5.0896,-5.0896,-5.0781,-5.0705,-5.0573,-5.0322,-5.0101,-4.9864,-4.9295,-4.8964,-4.8864,-4.8778,-4.8667,-4.8667,-4.8731,-4.8573,-4.8423,-5.4043,-5.3043,-5.2184,-5.1546,-5.1091,-5.1371,-5.1522,-5.1647,-5.1769,-5.1736,-5.1669,-5.1863,-5.1585,-5.1218,-5.1345,-5.1085,-5.0596,-5.055,-5.0534,-5.0379,-5.0089,-4.9836,-4.9797,-4.9757,-4.9677,-4.9477,-4.9403,-4.934,-5.0029,-5.0533,-5.1036,-5.1682,-5.2344,-5.2713,-5.2713,-5.2713,-5.2713,-5.2803,-5.2951,-5.3173,-5.3343,-5.344,-5.3518,-5.3652,-5.3373,-5.3086,-5.2783,-5.2446,-5.196,-5.1718,-5.128,-5.1237,-5.1221,-5.1221,-5.1258,-5.1296,-5.1312,-5.1403,-5.1478,-5.1403,-5.1312,-5.1237,-5.1221,-5.1221,-5.1221,-5.1221,-5.1221,-5.1221,-5.1221,-5.1221,-5.1221,-5.1221,-5.1221,-5.1221,-5.1221,-5.1221,-5.1221,-5.1221,-5.1221,-5.1221,-5.1221,-5.1221,-5.1221,-5.1221,-5.1221,-5.1221,-5.1221,-5.1221,-5.1221,-5.1221,-5.1221,-5.1221,-5.1108,-5.101,-5.0934,-5.0896,-5.0804,-5.0727,-5.0727,-5.0705,-5.0666,-5.0589,-5.0457,-5.0418,-5.0299,-5.0031,-4.9785,-4.9621,-4.9378,-4.9315,-4.9252,-4.9252,-4.9268,-4.9378,-4.9244,-5.2998,-5.2588,-5.1884,-5.1314,-5.0852,-5.082,-5.0934,-5.1086,-5.1021,-5.1043,-5.1199,-5.1366,-5.1243,-5.1063,-5.1259,-5.0994,-5.0172,-5.0448,-5.0448,-5.0262,-5.005,-4.9916,-4.9876,-4.9876,-4.9797,-4.9677,-4.9477,-4.9425,-4.9522,-4.9943,-5.0713,-5.1482,-5.2298,-5.2652,-5.2713,-5.2713,-5.2713,-5.2758,-5.3129,-5.324,-5.3137,-5.3191,-5.3406,-5.3499,-5.331,-5.3005,-5.2967,-5.2592,-5.2203,-5.1977,-5.1378,-5.1237,-5.1221,-5.1221,-5.1221,-5.1221,-5.1221,-5.1237,-5.1275,-5.1221,-5.1221,-5.1221,-5.1221,-5.1221,-5.1221,-5.1221,-5.1221,-5.1221,-5.1221,-5.1221,-5.1221,-5.1221,-5.1221,-5.1221,-5.1221,-5.1221,-5.1221,-5.1221,-5.1221,-5.1221,-5.1221,-5.1221,-5.1221,-5.1221,-5.1221,-5.1221,-5.1221,-5.1221,-5.1221,-5.1183,-5.1146,-5.1108,-5.101,-5.0896,-5.0781,-5.0705,-5.0573,-5.0496,-5.0496,-5.0457,-5.0379,-5.0379,-5.0301,-5.0301,-5.0301,-5.0143,-4.9851,-4.9884,-4.99,-4.971,-4.96,-4.9742,-4.9837,-4.9916,-4.9844,-5.1748,-5.1684,-5.1597,-5.1181,-5.0612,-5.0628,-5.0743,-5.095,-5.0912,-5.1026,-5.1221,-5.1242,-5.1397,-5.148,-5.1225,-5.1005,-5.0713,-5.0656,-5.0457,-5.0262,-5.0066,-4.9876,-4.9836,-4.9836,-4.9852,-4.9757,-4.9597,-4.9396,-4.9428,-4.9925,-5.0379,-5.0836,-5.2034,-5.2513,-5.2758,-5.2803,-5.2803,-5.2846,-5.3124,-5.3015,-5.286,-5.2928,-5.3334,-5.3588,-5.3824,-5.422,-5.498,-5.3871,-5.2981,-5.2786,-5.1863,-5.1194,-5.1194,-5.1162,-5.1146,-5.1108,-5.1108,-5.1086,-5.101,-5.1124,-5.1183,-5.1183,-5.1183,-5.1108,-5.1108,-5.1183,-5.1183,-5.1183,-5.1183,-5.1221,-5.1221,-5.1221,-5.1221,-5.1221,-5.1221,-5.1221,-5.1221,-5.1221,-5.1221,-5.1221,-5.1221,-5.1221,-5.1221,-5.1221,-5.1221,-5.1221,-5.1221,-5.1221,-5.1183,-5.1146,-5.1032,-5.0994,-5.0912,-5.0797,-5.0628,-5.0534,-5.0379,-5.0301,-5.0301,-5.0168,-5.005,-5.005,-5.0129,-5.0089,-5.0089,-5.001,-4.9955,-4.9916,-4.9916,-4.9916,-4.9916,-4.9916,-4.9916,-4.9916,-4.9836,-5.1239,-5.0973,-5.084,-5.0735,-5.0589,-5.0457,-5.0573,-5.0874,-5.0912,-5.1086,-5.1387,-5.1258,-5.1111,-5.099,-5.1005,-5.0639,-5.0191,-5.0368,-5.0253,-5.005,-4.9836,-4.9717,-4.9717,-4.9677,-4.9637,-4.9557,-4.9557,-4.9517,-4.9384,-5.0123,-5.0649,-5.1277,-5.1886,-5.2474,-5.2796,-5.3011,-5.3084,-5.3033,-5.3003,-5.2797,-5.2616,-5.2159,-5.2435,-5.3069,-5.3271,-5.3647,-5.412,-5.4138,-5.3577,-5.2935,-5.2161,-5.1631,-5.1145,-5.1059,-5.0972,-5.088,-5.088,-5.0804,-5.082,-5.0972,-5.1146,-5.0994,-5.0918,-5.0842,-5.088,-5.0918,-5.101,-5.1048,-5.1146,-5.1221,-5.1221,-5.1221,-5.1221,-5.1221,-5.1221,-5.1221,-5.1183,-5.1146,-5.1146,-5.1108,-5.1146,-5.1221,-5.1221,-5.1221,-5.1221,-5.1221,-5.1221,-5.1183,-5.1146,-5.107,-5.0934,-5.0804,-5.0705,-5.0589,-5.0418,-5.0301,-5.0168,-5.0129,-5.0089,-5.001,-4.9916,-4.9916,-4.9955,-4.9916,-4.9916,-4.9916,-4.9916,-4.9916,-4.9916,-4.9916,-4.9916,-4.9916,-4.9916,-4.9916,-4.9836,-5.088,-5.0527,-5.0418,-5.0418,-5.0457,-5.0246,-5.0418,-5.0743,-5.0836,-5.1086,-5.1462,-5.1183,-5.094,-5.0719,-5.0704,-5.0496,-5.008,-5.0133,-5.0097,-4.9931,-4.9717,-4.9597,-4.9557,-4.9517,-4.9437,-4.9316,-4.9412,-4.9412,-4.9272,-5.059,-5.0809,-5.0998,-5.1713,-5.2548,-5.296,-5.3305,-5.3421,-5.3309,-5.297,-5.2591,-5.2408,-5.1905,-5.1925,-5.2725,-5.3132,-5.3711,-5.4184,-5.4412,-5.4055,-5.3324,-5.2527,-5.1839,-5.1353,-5.0964,-5.0775,-5.0666,-5.0589,-5.0589,-5.0628,-5.0781,-5.0972,-5.082,-5.0705,-5.0628,-5.0666,-5.0781,-5.0912,-5.095,-5.1086,-5.1221,-5.1221,-5.1221,-5.1221,-5.1221,-5.1221,-5.1183,-5.1108,-5.1032,-5.101,-5.0972,-5.1032,-5.1108,-5.1086,-5.1086,-5.1146,-5.1108,-5.107,-5.1086,-5.1048,-5.0934,-5.0743,-5.0628,-5.0496,-5.034,-5.0168,-5.0089,-5.005,-5.001,-4.9995,-4.9955,-4.9916,-4.9916,-4.9916,-4.9916,-4.9916,-4.9916,-4.9916,-4.9916,-4.9916,-4.9916,-4.9916,-4.9916,-4.9916,-4.9916,-4.9916,-5.0489,-5.034,-5.0496,-5.0473,-5.0285,-5.001,-5.0207,-5.0628,-5.0666,-5.0934,-5.1312,-5.0896,-5.0842,-5.0919,-5.0733,-5.04,-5.0213,-5.0198,-5.0089,-4.9836,-4.9613,-4.9573,-4.9437,-4.9316,-4.9113,-4.9021,-4.9103,-4.9144,-4.9093,-4.9968,-5.0274,-5.0773,-5.17,-5.2715,-5.3066,-5.329,-5.3406,-5.334,-5.2914,-5.2361,-5.2043,-5.1726,-5.214,-5.2434,-5.32,-5.386,-5.4395,-5.4403,-5.4127,-5.3811,-5.2556,-5.1869,-5.1533,-5.0874,-5.0605,-5.055,-5.055,-5.0473,-5.0356,-5.0512,-5.0589,-5.0628,-5.055,-5.055,-5.0628,-5.0759,-5.0912,-5.0912,-5.1086,-5.1183,-5.1221,-5.1221,-5.1221,-5.1183,-5.1183,-5.1108,-5.101,-5.0972,-5.0934,-5.0934,-5.0934,-5.0896,-5.0912,-5.095,-5.101,-5.101,-5.0972,-5.0934,-5.0896,-5.0743,-5.0589,-5.0473,-5.034,-5.0168,-5.005,-4.9955,-4.9916,-4.9916,-4.9916,-4.9916,-4.9916,-4.9916,-4.9916,-4.9916,-4.9916,-4.9916,-4.9916,-4.9916,-4.9916,-4.9916,-4.9916,-4.9916,-4.9916,-4.9916,-4.9916,-5.0473,-5.0496,-5.0434,-5.0379,-5.0262,-5.001,-5.0168,-5.0589,-5.0743,-5.0858,-5.0858,-5.0666,-5.0666,-5.0689,-5.0534,-5.034,-5.0262,-4.9892,-4.9733,-4.9677,-4.9387,-4.9087,-4.899,-4.8908,-4.8744,-4.8676,-4.8774,-4.9062,-4.921,-4.9853,-5.0242,-5.0792,-5.1565,-5.2627,-5.3302,-5.3498,-5.3211,-5.3033,-5.2381,-5.169,-5.1581,-5.1701,-5.1784,-5.1781,-5.2835,-5.3698,-5.4321,-5.4094,-5.3941,-5.3821,-5.2566,-5.172,-5.1266,-5.0575,-5.0356,-5.0207,-5.0168,-5.0144,-5.005,-5.0129,-5.0207,-5.034,-5.0418,-5.0418,-5.0418,-5.0743,-5.0858,-5.095,-5.1086,-5.1183,-5.1221,-5.1221,-5.1183,-5.1162,-5.1124,-5.101,-5.0934,-5.0912,-5.0912,-5.0972,-5.0972,-5.0896,-5.0874,-5.0759,-5.0781,-5.0743,-5.065,-5.0705,-5.0705,-5.0534,-5.0379,-5.0301,-5.0168,-5.005,-4.9916,-4.9916,-4.9916,-4.9916,-4.9916,-4.9916,-4.9916,-4.9916,-4.9916,-4.9916,-4.9916,-4.9916,-4.9916,-4.9916,-4.9916,-4.9916,-4.9916,-4.9916,-4.9916,-4.9916,-4.9916,-5.0301,-5.034,-5.034,-5.0223,-5.0129,-4.9971,-5.0129,-5.0457,-5.0628,-5.0628,-5.0589,-5.0457,-5.0418,-5.0379,-5.0207,-5.005,-5.001,-4.9693,-4.9533,-4.9437,-4.9047,-4.8883,-4.8759,-4.8537,-4.8453,-4.8412,-4.8635,-4.8924,-4.9021,-4.9895,-5.0595,-5.1099,-5.1354,-5.2171,-5.2855,-5.297,-5.2754,-5.2469,-5.184,-5.1439,-5.1439,-5.1428,-5.1437,-5.1752,-5.2462,-5.3324,-5.3639,-5.3672,-5.3535,-5.335,-5.263,-5.1594,-5.0989,-5.0467,-5.0137,-4.9955,-4.9916,-4.9931,-4.9916,-4.9916,-5.0089,-5.0301,-5.0301,-5.0301,-5.0379,-5.0666,-5.082,-5.095,-5.1108,-5.1183,-5.1221,-5.1221,-5.1146,-5.1124,-5.101,-5.0896,-5.0781,-5.0781,-5.0743,-5.082,-5.0858,-5.082,-5.0743,-5.0628,-5.0473,-5.0418,-5.034,-5.0418,-5.0473,-5.034,-5.0207,-5.0129,-5.0089,-4.9955,-4.9916,-4.9916,-4.9916,-4.9916,-4.9916,-4.9916,-4.9916,-4.9916,-4.9916,-4.9916,-4.9916,-4.9916,-4.9916,-4.9916,-4.9876,-4.9876,-4.9916,-4.9916,-4.9916,-4.9916,-4.9916,-5.0097,-4.9939,-5.0184,-5.0129,-4.9916,-4.9916,-5.005,-5.0317,-5.0301,-5.0434,-5.0534,-5.0089,-5.0089,-5.0184,-4.9812,-4.9693,-4.9613,-4.9396,-4.9331,-4.9153,-4.8867,-4.88,-4.8676,-4.8495,-4.8328,-4.837,-4.8495,-4.8676,-4.8764,-4.9636,-5.0702,-5.1294,-5.0988,-5.1489,-5.1855,-5.2064,-5.2007,-5.1833,-5.1485,-5.1184,-5.1175,-5.1085,-5.1279,-5.1649,-5.2246,-5.3045,-5.3457,-5.3594,-5.3707,-5.3355,-5.2611,-5.1868,-5.1191,-5.0501,-5.0121,-4.9916,-4.9916,-4.9916,-4.99,-4.9884,-5.0002,-5.0198,-5.0174,-5.0237,-5.0457,-5.0743,-5.0934,-5.1026,-5.1124,-5.1146,-5.1221,-5.1146,-5.1086,-5.0972,-5.0874,-5.0743,-5.0612,-5.0534,-5.0496,-5.0496,-5.0589,-5.055,-5.0457,-5.034,-5.0262,-5.0168,-5.0129,-5.0184,-5.0184,-5.0144,-5.001,-4.9995,-4.9955,-4.9916,-4.9916,-4.9916,-4.9916,-4.9916,-4.9916,-4.9916,-4.9916,-4.9916,-4.9916,-4.9916,-4.9916,-4.9916,-4.9916,-4.9876,-4.9876,-4.9876,-4.9836,-4.9797,-4.9797,-4.9876,-4.9892,-4.9267,-4.9236,-4.9805,-4.9971,-4.9916,-4.9916,-4.9955,-5.005,-5.0223,-5.0246,-5.0089,-4.9971,-4.9971,-4.9971,-4.9717,-4.9582,-4.9452,-4.9291,-4.9144,-4.8924,-4.8759,-4.8593,-4.8469,-4.837,-4.8202,-4.8202,-4.8286,-4.8495,-4.8759,-4.9505,-4.9837,-5.0133,-5.0413,-5.0556,-5.0668,-5.0803,-5.1136,-5.1263,-5.0906,-5.0794,-5.0944,-5.0975,-5.117,-5.1286,-5.1669,-5.2448,-5.2995,-5.276,-5.2824,-5.2948,-5.2203,-5.1469,-5.0618,-5.0184,-4.9916,-4.9916,-4.9916,-4.99,-4.9837,-4.9473,-4.9543,-5.0094,-5.0019,-5.0243,-5.0518,-5.0918,-5.1086,-5.1124,-5.1124,-5.1183,-5.1146,-5.1086,-5.0972,-5.082,-5.0705,-5.055,-5.0418,-5.0418,-5.0379,-5.0379,-5.0418,-5.034,-5.0207,-5.0129,-5.005,-4.9955,-4.9916,-4.9971,-5.001,-4.9931,-4.9931,-4.9916,-4.9916,-4.9916,-4.9916,-4.9916,-4.9916,-4.9916,-4.9916,-4.9916,-4.9916,-4.9916,-4.9916,-4.9916,-4.9916,-4.9916,-4.9916,-4.9876,-4.9836,-4.9717,-4.9677,-4.9677,-4.9717,-4.9757,-4.9812,-4.8455,-4.848,-4.8897,-4.9268,-4.9552,-4.9805,-4.9916,-4.9916,-5.0089,-5.005,-4.9916,-4.9916,-4.9916,-4.9789,-4.9346,-4.9155,-4.9405,-4.8705,-4.8517,-4.8759,-4.8635,-4.8552,-4.8412,-4.8328,-4.8286,-4.8286,-4.8328,-4.8537,-4.8744,-4.9153,-4.9564,-4.9836,-4.9876,-4.9955,-5.0113,-5.0303,-5.0469,-5.0604,-5.0587,-5.0349,-5.0515,-5.0833,-5.0735,-5.0765,-5.1085,-5.166,-5.2291,-5.1777,-5.1873,-5.2227,-5.1533,-5.0896,-5.0278,-5.005,-4.9916,-4.9916,-4.9916,-4.9916,-4.9852,-4.9615,-4.9843,-5.0101,-5.0103,-5.0422,-5.0725,-5.1108,-5.1146,-5.1183,-5.1183,-5.1183,-5.1086,-5.0972,-5.082,-5.0666,-5.0496,-5.034,-5.0301,-5.0301,-5.0301,-5.0285,-5.0207,-5.0184,-5.005,-4.9955,-4.9916,-4.9916,-4.9916,-4.9916,-4.9916,-4.9916,-4.9916,-4.9916,-4.9916,-4.9916,-4.9916,-4.9916,-4.9916,-4.9916,-4.9916,-4.9916,-4.9916,-4.9916,-4.9916,-4.9916,-4.9916,-4.9876,-4.9876,-4.9797,-4.9717,-4.9597,-4.9477,-4.9396,-4.9477,-4.9597,-4.9637,-4.77,-4.7601,-4.7801,-4.8281,-4.8873,-4.9426,-4.971,-4.9773,-4.971,-4.9829,-4.986,-4.9916,-4.9916,-4.9726,-4.9,-4.8903,-4.8876,-4.8366,-4.8183,-4.8604,-4.851,-4.8453,-4.8495,-4.8453,-4.8396,-4.8521,-4.8604,-4.862,-4.8785,-4.9153,-4.9517,-4.9876,-4.9916,-4.9955,-5.0089,-5.001,-5.0129,-5.0279,-5.0295,-5.0223,-5.0223,-5.0294,-5.034,-5.0473,-5.0639,-5.0902,-5.127,-5.1229,-5.0957,-5.1087,-5.0992,-5.0524,-5.02,-5.005,-4.9916,-4.9916,-4.9916,-4.9916,-4.9837,-4.9631,-4.9977,-5.0267,-5.0525,-5.0637,-5.0827,-5.1129,-5.1183,-5.1183,-5.1146,-5.107,-5.0972,-5.0781,-5.0628,-5.0457,-5.0285,-5.0168,-5.0168,-5.0168,-5.0168,-5.0129,-5.0089,-5.001,-5.001,-4.9916,-4.9916,-4.9916,-4.9916,-4.9916,-4.9916,-4.9916,-4.9916,-4.9916,-4.9916,-4.9916,-4.9916,-4.9916,-4.9916,-4.9916,-4.9916,-4.9916,-4.9916,-4.9916,-4.9916,-4.9916,-4.9916,-4.9876,-4.9836,-4.9701,-4.9582,-4.9452,-4.9331,-4.9169,-4.9194,-4.93,-4.9437,-4.7018,-4.7044,-4.7482,-4.7774,-4.7995,-4.8482,-4.8701,-4.8701,-4.8701,-4.9142,-4.9773,-4.9844,-4.9916,-4.9726,-4.8803,-4.8651,-4.8898,-4.8233,-4.8122,-4.8419,-4.8537,-4.8495,-4.8578,-4.8521,-4.8521,-4.8563,-4.8646,-4.8785,-4.9031,-4.9275,-4.9477,-4.9836,-4.9916,-4.9955,-5.001,-4.9876,-4.9931,-5.005,-5.001,-5.001,-5.005,-4.9995,-5.0034,-5.0089,-5.0153,-5.0541,-5.093,-5.1232,-5.1168,-5.1256,-5.1208,-5.0723,-5.0058,-4.9931,-4.9916,-4.9916,-4.9916,-4.9916,-4.9821,-4.9631,-4.9756,-5.0037,-5.0247,-5.0454,-5.0693,-5.0989,-5.1183,-5.1146,-5.107,-5.0972,-5.082,-5.0628,-5.0434,-5.0262,-5.0129,-5.0089,-4.9995,-4.9995,-4.9995,-4.9955,-4.9916,-4.9916,-4.9916,-4.9916,-4.9916,-4.9916,-4.9916,-4.9916,-4.9916,-4.9916,-4.9916,-4.9916,-4.9916,-4.9916,-4.9916,-4.9916,-4.9916,-4.9916,-4.9916,-4.9916,-4.9916,-4.9916,-4.9876,-4.9916,-4.9876,-4.9671,-4.9544,-4.9574,-4.9454,-4.9135,-4.8957,-4.8732,-4.8815,-4.8913,-4.9122,-4.6287,-4.6292,-4.6765,-4.7002,-4.7089,-4.7622,-4.7856,-4.7902,-4.8168,-4.8442,-4.8804,-4.9119,-4.9497,-4.9663,-4.8788,-4.8667,-4.896,-4.81,-4.8153,-4.8435,-4.8604,-4.8563,-4.8604,-4.8604,-4.8563,-4.8604,-4.8604,-4.8826,-4.9235,-4.9316,-4.9477,-4.9836,-4.9916,-4.9876,-4.9892,-4.9852,-4.9852,-4.9892,-4.9836,-4.9836,-4.9876,-4.9916,-4.9916,-4.9916,-5.001,-5.0311,-5.0374,-5.0676,-5.0676,-5.066,-5.0596,-5.0446,-5.0018,-4.9916,-4.9916,-4.9916,-4.9916,-4.9916,-4.9789,-4.9686,-4.9606,-4.9928,-5.0185,-5.0528,-5.0729,-5.101,-5.101,-5.101,-5.0972,-5.0912,-5.0628,-5.0379,-5.0262,-5.0089,-5.001,-4.9955,-4.9955,-4.9955,-4.9955,-4.9916,-4.9916,-4.9916,-4.9916,-4.9916,-4.9916,-4.9916,-4.9916,-4.9916,-4.9916,-4.9876,-4.9876,-4.9876,-4.9876,-4.9876,-4.9916,-4.9916,-4.9916,-4.9916,-4.9916,-4.9916,-4.9916,-4.9876,-4.9892,-4.9742,-4.9489,-4.9134,-4.9055,-4.8889,-4.88,-4.8491,-4.8391,-4.8291,-4.8373,-4.8481,-4.8757,-4.5714,-4.5573,-4.5919,-4.6062,-4.6133,-4.6788,-4.706,-4.7154,-4.7652,-4.7746,-4.7637,-4.8153,-4.8883,-4.9103,-4.885,-4.8981,-4.8739,-4.8013,-4.8137,-4.845,-4.8589,-4.8604,-4.8604,-4.8604,-4.8604,-4.8661,-4.8702,-4.899,-4.9356,-4.9396,-4.9557,-4.9836,-4.9876,-4.9892,-4.9812,-4.9773,-4.9773,-4.9812,-4.9797,-4.9757,-4.9836,-4.9916,-4.9916,-4.9916,-4.9916,-4.9916,-4.9931,-4.9947,-4.9947,-4.9979,-5.0082,-4.9995,-4.9963,-4.9916,-4.9916,-4.9916,-4.9916,-4.9916,-4.9884,-4.9868,-4.9971,-5.0191,-5.0425,-5.0531,-5.0701,-5.0707,-5.0729,-5.082,-5.0836,-5.0721,-5.0434,-5.0223,-5.0089,-5.001,-4.9916,-4.9876,-4.9876,-4.9876,-4.9876,-4.9876,-4.9876,-4.9876,-4.9916,-4.9916,-4.9916,-4.9916,-4.9916,-4.9916,-4.9876,-4.9876,-4.9876,-4.9876,-4.9876,-4.9876,-4.9876,-4.9916,-4.9916,-4.9916,-4.9916,-4.9916,-4.9876,-4.9836,-4.9662,-4.9347,-4.9079,-4.8607,-4.8034,-4.7689,-4.7632,-4.7676,-4.7602,-4.7486,-4.7716,-4.7879,-4.8314,-4.5662,-4.5494,-4.545,-4.5279,-4.5275,-4.5742,-4.5904,-4.5959,-4.6098,-4.6701,-4.7377,-4.7348,-4.773,-4.8599,-4.8481,-4.8587,-4.8876,-4.8126,-4.8127,-4.8486,-4.8589,-4.8604,-4.8604,-4.8604,-4.8744,-4.88,-4.8939,-4.9184,-4.9437,-4.9517,-4.9637,-4.9892,-4.9916,-4.9836,-4.9717,-4.9677,-4.9757,-4.9757,-4.9797,-4.9836,-4.9836,-4.9916,-4.9916,-4.9916,-4.9916,-4.9916,-4.9916,-4.9916,-4.9916,-4.9916,-4.9916,-4.9916,-4.9916,-4.9916,-4.9916,-4.9916,-4.9916,-4.9916,-4.9916,-4.9916,-5.001,-4.9963,-5.0048,-4.9949,-5.0071,-5.0035,-5.0157,-5.0496,-5.0489,-5.0482,-5.0271,-5.0105,-4.9916,-4.9916,-4.9916,-4.9876,-4.9876,-4.9876,-4.9836,-4.9836,-4.9836,-4.9876,-4.9916,-4.9916,-4.9916,-4.9916,-4.9916,-4.9916,-4.9916,-4.9876,-4.9836,-4.9836,-4.9836,-4.9876,-4.9892,-4.9916,-4.9916,-4.9916,-4.9916,-4.9916,-4.9876,-4.9717,-4.9496,-4.9055,-4.8497,-4.7995,-4.7424,-4.6599,-4.6643,-4.6687,-4.6613,-4.6649,-4.6933,-4.7417,-4.7957]}]]